<?xml version='1.0' encoding='UTF-8'?><gpx version="1.1" creator="JPX - https://github.com/jenetics/jpx" xmlns="http://www.topografix.com/GPX/1/1"><trk><trkseg><trkpt lat="45.63228394696257" lon="10.600921182483976"><ele>63.0</ele><time>2026-03-28T14:32:29Z</time></trkpt><trkpt lat="45.63234897908581" lon="10.600906734200976"><ele>63.0</ele><time>2026-03-28T14:32:37Z</time></trkpt><trkpt lat="45.63247840172531" lon="10.600866983153939"><ele>63.0</ele><time>2026-03-28T14:34:37Z</time></trkpt><trkpt lat="45.63254229798718" lon="10.600850453577838"><ele>63.0</ele><time>2026-03-28T14:34:38Z</time></trkpt><trkpt lat="45.632666544454565" lon="10.600882688029616"><ele>63.0</ele><time>2026-03-28T14:34:53Z</time></trkpt><trkpt lat="45.63274709946586" lon="10.600857981633013"><ele>63.833333333333336</ele><time>2026-03-28T14:34:57Z</time></trkpt><trkpt lat="45.63282417534697" lon="10.600841128292123"><ele>64.66666666666667</ele><time>2026-03-28T14:35:00Z</time></trkpt><trkpt lat="45.63290288031198" lon="10.600869696617544"><ele>65.5</ele><time>2026-03-28T14:35:03Z</time></trkpt><trkpt lat="45.632967434148846" lon="10.600908927743374"><ele>66.33333333333334</ele><time>2026-03-28T14:35:05Z</time></trkpt><trkpt lat="45.63303454837053" lon="10.600996217968216"><ele>67.16666666666667</ele><time>2026-03-28T14:35:08Z</time></trkpt><trkpt lat="45.633050372379515" lon="10.60109365029016"><ele>68.0</ele><time>2026-03-28T14:35:10Z</time></trkpt><trkpt lat="45.633033934085404" lon="10.601189152616156"><ele>68.0</ele><time>2026-03-28T14:35:12Z</time></trkpt><trkpt lat="45.63298588245127" lon="10.601325730001466"><ele>68.0</ele><time>2026-03-28T14:35:14Z</time></trkpt><trkpt lat="45.63295510074103" lon="10.601419070870296"><ele>68.0</ele><time>2026-03-28T14:35:15Z</time></trkpt><trkpt lat="45.632915969868144" lon="10.601526433973643"><ele>68.0</ele><time>2026-03-28T14:35:16Z</time></trkpt><trkpt lat="45.63288149191507" lon="10.601624544630461"><ele>68.0</ele><time>2026-03-28T14:35:17Z</time></trkpt><trkpt lat="45.63284997202205" lon="10.601733517135337"><ele>68.0</ele><time>2026-03-28T14:35:18Z</time></trkpt><trkpt lat="45.632813372924105" lon="10.601847094139117"><ele>68.0</ele><time>2026-03-28T14:35:19Z</time></trkpt><trkpt lat="45.63276285992662" lon="10.601974168587354"><ele>68.0</ele><time>2026-03-28T14:35:20Z</time></trkpt><trkpt lat="45.63271570131838" lon="10.602123873138183"><ele>68.0</ele><time>2026-03-28T14:35:21Z</time></trkpt><trkpt lat="45.63267301037241" lon="10.602262342519136"><ele>68.0</ele><time>2026-03-28T14:35:22Z</time></trkpt><trkpt lat="45.63262651241644" lon="10.60240930322666"><ele>68.0</ele><time>2026-03-28T14:35:23Z</time></trkpt><trkpt lat="45.632582913397066" lon="10.602549287785534"><ele>68.0</ele><time>2026-03-28T14:35:24Z</time></trkpt><trkpt lat="45.63254239553369" lon="10.602688068530915"><ele>68.0</ele><time>2026-03-28T14:35:25Z</time></trkpt><trkpt lat="45.63249696591916" lon="10.60282676295081"><ele>68.0</ele><time>2026-03-28T14:35:26Z</time></trkpt><trkpt lat="45.63245258542096" lon="10.602967041619088"><ele>68.0</ele><time>2026-03-28T14:35:27Z</time></trkpt><trkpt lat="45.632409864471356" lon="10.603096668914533"><ele>68.0</ele><time>2026-03-28T14:35:28Z</time></trkpt><trkpt lat="45.632369513451714" lon="10.603204365461277"><ele>68.2</ele><time>2026-03-28T14:35:29Z</time></trkpt><trkpt lat="45.6323348385146" lon="10.603322812402382"><ele>68.4</ele><time>2026-03-28T14:35:30Z</time></trkpt><trkpt lat="45.63229985779586" lon="10.603423090483938"><ele>68.60000000000001</ele><time>2026-03-28T14:35:31Z</time></trkpt><trkpt lat="45.632258945149005" lon="10.603528739830692"><ele>68.8</ele><time>2026-03-28T14:35:32Z</time></trkpt><trkpt lat="45.63222184060974" lon="10.603637983158613"><ele>69.0</ele><time>2026-03-28T14:35:33Z</time></trkpt><trkpt lat="45.632180199311776" lon="10.603800330166958"><ele>69.0</ele><time>2026-03-28T14:35:35Z</time></trkpt><trkpt lat="45.63215752609821" lon="10.603891666973583"><ele>69.0</ele><time>2026-03-28T14:35:36Z</time></trkpt><trkpt lat="45.632196737177864" lon="10.603975501244747"><ele>69.0</ele><time>2026-03-28T14:35:37Z</time></trkpt><trkpt lat="45.632246463119266" lon="10.604046663823882"><ele>69.0</ele><time>2026-03-28T14:35:38Z</time></trkpt><trkpt lat="45.63233484385484" lon="10.604089476378896"><ele>69.0</ele><time>2026-03-28T14:35:39Z</time></trkpt><trkpt lat="45.63240664809738" lon="10.604185099432959"><ele>69.0</ele><time>2026-03-28T14:35:40Z</time></trkpt><trkpt lat="45.63249658174772" lon="10.604275146089039"><ele>69.0</ele><time>2026-03-28T14:35:41Z</time></trkpt><trkpt lat="45.63258518641455" lon="10.604385970165028"><ele>69.0</ele><time>2026-03-28T14:35:42Z</time></trkpt><trkpt lat="45.632661809037685" lon="10.604493527305731"><ele>69.0</ele><time>2026-03-28T14:35:43Z</time></trkpt><trkpt lat="45.63272700788904" lon="10.604600459613719"><ele>69.0</ele><time>2026-03-28T14:35:44Z</time></trkpt><trkpt lat="45.63279082449159" lon="10.604693914871428"><ele>69.0</ele><time>2026-03-28T14:35:45Z</time></trkpt><trkpt lat="45.632861813323665" lon="10.604800112435928"><ele>68.8</ele><time>2026-03-28T14:35:46Z</time></trkpt><trkpt lat="45.632931079941805" lon="10.604912660844146"><ele>68.60000000000001</ele><time>2026-03-28T14:35:47Z</time></trkpt><trkpt lat="45.633007409206606" lon="10.605018142613853"><ele>68.4</ele><time>2026-03-28T14:35:48Z</time></trkpt><trkpt lat="45.63307060974044" lon="10.605114323367868"><ele>68.2</ele><time>2026-03-28T14:35:49Z</time></trkpt><trkpt lat="45.63313882557506" lon="10.605209952099091"><ele>68.0</ele><time>2026-03-28T14:35:50Z</time></trkpt><trkpt lat="45.63320277018971" lon="10.605301714744368"><ele>68.33333333333334</ele><time>2026-03-28T14:35:51Z</time></trkpt><trkpt lat="45.63326596605251" lon="10.605395733778577"><ele>68.66666666666667</ele><time>2026-03-28T14:35:52Z</time></trkpt><trkpt lat="45.63332863716721" lon="10.605473377376004"><ele>69.0</ele><time>2026-03-28T14:35:53Z</time></trkpt><trkpt lat="45.633389697416554" lon="10.605565199538406"><ele>69.33333333333333</ele><time>2026-03-28T14:35:54Z</time></trkpt><trkpt lat="45.63344674119064" lon="10.605642622202094"><ele>69.66666666666666</ele><time>2026-03-28T14:35:55Z</time></trkpt><trkpt lat="45.63350431422559" lon="10.605717402187787"><ele>70.0</ele><time>2026-03-28T14:35:56Z</time></trkpt><trkpt lat="45.63356212024159" lon="10.605791936302921"><ele>70.0</ele><time>2026-03-28T14:35:57Z</time></trkpt><trkpt lat="45.633622589382085" lon="10.605870722254549"><ele>70.0</ele><time>2026-03-28T14:35:58Z</time></trkpt><trkpt lat="45.633698020696336" lon="10.605953050947216"><ele>70.0</ele><time>2026-03-28T14:35:59Z</time></trkpt><trkpt lat="45.63377152765145" lon="10.60603167192464"><ele>70.0</ele><time>2026-03-28T14:36:00Z</time></trkpt><trkpt lat="45.63384488511127" lon="10.606120546309295"><ele>70.0</ele><time>2026-03-28T14:36:01Z</time></trkpt><trkpt lat="45.63391292299539" lon="10.606207250654995"><ele>70.0</ele><time>2026-03-28T14:36:02Z</time></trkpt><trkpt lat="45.6339828639445" lon="10.606290081065572"><ele>70.0</ele><time>2026-03-28T14:36:03Z</time></trkpt><trkpt lat="45.63403331802739" lon="10.606360068623175"><ele>70.0</ele><time>2026-03-28T14:36:04Z</time></trkpt><trkpt lat="45.634129993391255" lon="10.606465209327554"><ele>70.0</ele><time>2026-03-28T14:36:06Z</time></trkpt><trkpt lat="45.634182429183355" lon="10.606515970121123"><ele>70.0</ele><time>2026-03-28T14:36:07Z</time></trkpt><trkpt lat="45.63424435299107" lon="10.60656656197264"><ele>70.0</ele><time>2026-03-28T14:36:08Z</time></trkpt><trkpt lat="45.634314135814606" lon="10.606612153714131"><ele>70.0</ele><time>2026-03-28T14:36:09Z</time></trkpt><trkpt lat="45.63440099679722" lon="10.606678480419493"><ele>70.0</ele><time>2026-03-28T14:36:10Z</time></trkpt><trkpt lat="45.63448187409751" lon="10.606745352674004"><ele>70.0</ele><time>2026-03-28T14:36:11Z</time></trkpt><trkpt lat="45.63454981097064" lon="10.606807230707503"><ele>70.0</ele><time>2026-03-28T14:36:12Z</time></trkpt><trkpt lat="45.63461848391819" lon="10.606877695403824"><ele>70.0</ele><time>2026-03-28T14:36:13Z</time></trkpt><trkpt lat="45.63468284099769" lon="10.606964408326602"><ele>70.0</ele><time>2026-03-28T14:36:14Z</time></trkpt><trkpt lat="45.634749237228085" lon="10.60707765731485"><ele>70.16666666666666</ele><time>2026-03-28T14:36:15Z</time></trkpt><trkpt lat="45.63481025589849" lon="10.607181438389317"><ele>70.33333333333333</ele><time>2026-03-28T14:36:16Z</time></trkpt><trkpt lat="45.63486118301225" lon="10.607265824178628"><ele>70.5</ele><time>2026-03-28T14:36:17Z</time></trkpt><trkpt lat="45.63490516381042" lon="10.607334393503983"><ele>70.66666666666667</ele><time>2026-03-28T14:36:18Z</time></trkpt><trkpt lat="45.63495573224764" lon="10.607397274682638"><ele>70.83333333333334</ele><time>2026-03-28T14:36:19Z</time></trkpt><trkpt lat="45.6350165091137" lon="10.607503345280339"><ele>71.0</ele><time>2026-03-28T14:36:21Z</time></trkpt><trkpt lat="45.63506291321793" lon="10.607590313466629"><ele>71.0</ele><time>2026-03-28T14:36:25Z</time></trkpt><trkpt lat="45.635121888438114" lon="10.607653517329076"><ele>71.0</ele><time>2026-03-28T14:36:28Z</time></trkpt><trkpt lat="45.635222019205266" lon="10.607599110720827"><ele>71.0</ele><time>2026-03-28T14:36:30Z</time></trkpt><trkpt lat="45.63528175309947" lon="10.607511148148829"><ele>71.0</ele><time>2026-03-28T14:36:31Z</time></trkpt><trkpt lat="45.63533972310417" lon="10.607424159143935"><ele>71.0</ele><time>2026-03-28T14:36:32Z</time></trkpt><trkpt lat="45.635403281335584" lon="10.607319448356979"><ele>71.0</ele><time>2026-03-28T14:36:33Z</time></trkpt><trkpt lat="45.63546765685795" lon="10.607218957884353"><ele>71.14285714285714</ele><time>2026-03-28T14:36:34Z</time></trkpt><trkpt lat="45.63552415380179" lon="10.607130833447021"><ele>71.28571428571428</ele><time>2026-03-28T14:36:35Z</time></trkpt><trkpt lat="45.635582777585526" lon="10.607075494254993"><ele>71.42857142857143</ele><time>2026-03-28T14:36:36Z</time></trkpt><trkpt lat="45.63561816647325" lon="10.60699053743797"><ele>71.57142857142857</ele><time>2026-03-28T14:36:37Z</time></trkpt><trkpt lat="45.635667163547524" lon="10.606921902834374"><ele>71.71428571428572</ele><time>2026-03-28T14:36:38Z</time></trkpt><trkpt lat="45.63571294930691" lon="10.606854408689202"><ele>71.85714285714286</ele><time>2026-03-28T14:36:39Z</time></trkpt><trkpt lat="45.63576352289976" lon="10.606773477672267"><ele>72.0</ele><time>2026-03-28T14:36:40Z</time></trkpt><trkpt lat="45.63583042544638" lon="10.606707928280942"><ele>72.0</ele><time>2026-03-28T14:36:41Z</time></trkpt><trkpt lat="45.63588929368863" lon="10.606619967938284"><ele>72.0</ele><time>2026-03-28T14:36:42Z</time></trkpt><trkpt lat="45.63593764049262" lon="10.60651494320609"><ele>72.0</ele><time>2026-03-28T14:36:43Z</time></trkpt><trkpt lat="45.63600007619849" lon="10.60645579110065"><ele>72.0</ele><time>2026-03-28T14:36:44Z</time></trkpt><trkpt lat="45.63605267600688" lon="10.606378345571551"><ele>72.0</ele><time>2026-03-28T14:36:45Z</time></trkpt><trkpt lat="45.63609113269533" lon="10.606288109264575"><ele>72.0</ele><time>2026-03-28T14:36:46Z</time></trkpt><trkpt lat="45.636145343157644" lon="10.606212443706537"><ele>72.4</ele><time>2026-03-28T14:36:47Z</time></trkpt><trkpt lat="45.63619307612677" lon="10.606140838632859"><ele>72.80000000000001</ele><time>2026-03-28T14:36:48Z</time></trkpt><trkpt lat="45.636291331883626" lon="10.60603106811435"><ele>73.2</ele><time>2026-03-28T14:36:50Z</time></trkpt><trkpt lat="45.63633655461236" lon="10.605966411231288"><ele>73.60000000000001</ele><time>2026-03-28T14:36:51Z</time></trkpt><trkpt lat="45.63640052860354" lon="10.605844120630229"><ele>74.0</ele><time>2026-03-28T14:36:53Z</time></trkpt><trkpt lat="45.63647198595607" lon="10.605741767834434"><ele>74.0</ele><time>2026-03-28T14:36:55Z</time></trkpt><trkpt lat="45.63655757033933" lon="10.605651494921794"><ele>74.0</ele><time>2026-03-28T14:36:57Z</time></trkpt><trkpt lat="45.63660748894297" lon="10.605580847600661"><ele>74.0</ele><time>2026-03-28T14:37:00Z</time></trkpt><trkpt lat="45.63665317959227" lon="10.605516613397839"><ele>74.0</ele><time>2026-03-28T14:37:05Z</time></trkpt><trkpt lat="45.636701286688144" lon="10.605448982032817"><ele>74.0</ele><time>2026-03-28T14:37:11Z</time></trkpt><trkpt lat="45.636749848424294" lon="10.605380733019642"><ele>74.0</ele><time>2026-03-28T14:37:18Z</time></trkpt><trkpt lat="45.636789347733526" lon="10.6052825793043"><ele>73.8</ele><time>2026-03-28T14:37:20Z</time></trkpt><trkpt lat="45.636860656826016" lon="10.605221709497773"><ele>73.60000000000001</ele><time>2026-03-28T14:37:22Z</time></trkpt><trkpt lat="45.636846359287716" lon="10.605073081016714"><ele>73.4</ele><time>2026-03-28T14:37:24Z</time></trkpt><trkpt lat="45.63679866166053" lon="10.605002412564838"><ele>73.2</ele><time>2026-03-28T14:37:25Z</time></trkpt><trkpt lat="45.63672531328285" lon="10.604927011179912"><ele>73.0</ele><time>2026-03-28T14:37:26Z</time></trkpt><trkpt lat="45.63664869386445" lon="10.60482772068847"><ele>73.0</ele><time>2026-03-28T14:37:27Z</time></trkpt><trkpt lat="45.63657915120021" lon="10.604692180124667"><ele>73.0</ele><time>2026-03-28T14:37:28Z</time></trkpt><trkpt lat="45.636507015044465" lon="10.604544766764246"><ele>73.0</ele><time>2026-03-28T14:37:29Z</time></trkpt><trkpt lat="45.63643205208163" lon="10.60440129345784"><ele>73.0</ele><time>2026-03-28T14:37:30Z</time></trkpt><trkpt lat="45.63635853259176" lon="10.604265038613772"><ele>72.8</ele><time>2026-03-28T14:37:31Z</time></trkpt><trkpt lat="45.63629098092056" lon="10.604136134847828"><ele>72.6</ele><time>2026-03-28T14:37:32Z</time></trkpt><trkpt lat="45.63622726277193" lon="10.60401661236744"><ele>72.4</ele><time>2026-03-28T14:37:33Z</time></trkpt><trkpt lat="45.636168137251396" lon="10.603906639399025"><ele>72.2</ele><time>2026-03-28T14:37:34Z</time></trkpt><trkpt lat="45.636109056943965" lon="10.6037952050673"><ele>72.0</ele><time>2026-03-28T14:37:35Z</time></trkpt><trkpt lat="45.63605197017138" lon="10.603682863579007"><ele>71.66666666666667</ele><time>2026-03-28T14:37:36Z</time></trkpt><trkpt lat="45.63598804438022" lon="10.603564487203561"><ele>71.33333333333333</ele><time>2026-03-28T14:37:37Z</time></trkpt><trkpt lat="45.63593147273161" lon="10.60345804188431"><ele>71.0</ele><time>2026-03-28T14:37:38Z</time></trkpt><trkpt lat="45.635879800340916" lon="10.603361118209632"><ele>70.66666666666666</ele><time>2026-03-28T14:37:39Z</time></trkpt><trkpt lat="45.63583323105518" lon="10.60327376588448"><ele>70.33333333333333</ele><time>2026-03-28T14:37:40Z</time></trkpt><trkpt lat="45.635789932002474" lon="10.603193192827419"><ele>70.0</ele><time>2026-03-28T14:37:41Z</time></trkpt><trkpt lat="45.635748825766" lon="10.603115246328938"><ele>70.0</ele><time>2026-03-28T14:37:42Z</time></trkpt><trkpt lat="45.635706678676165" lon="10.60303496443274"><ele>70.0</ele><time>2026-03-28T14:37:43Z</time></trkpt><trkpt lat="45.63566379520784" lon="10.602949605349439"><ele>70.0</ele><time>2026-03-28T14:37:44Z</time></trkpt><trkpt lat="45.63561973707061" lon="10.602866268180092"><ele>70.0</ele><time>2026-03-28T14:37:45Z</time></trkpt><trkpt lat="45.63556803898539" lon="10.602770140487996"><ele>70.0</ele><time>2026-03-28T14:37:46Z</time></trkpt><trkpt lat="45.63551269480191" lon="10.602662232733925"><ele>70.0</ele><time>2026-03-28T14:37:47Z</time></trkpt><trkpt lat="45.635465673140565" lon="10.602568436943718"><ele>70.2</ele><time>2026-03-28T14:37:48Z</time></trkpt><trkpt lat="45.635427375203385" lon="10.602495934999336"><ele>70.4</ele><time>2026-03-28T14:37:49Z</time></trkpt><trkpt lat="45.63536273480786" lon="10.602388337212084"><ele>70.6</ele><time>2026-03-28T14:37:51Z</time></trkpt><trkpt lat="45.63531595439363" lon="10.602303058499501"><ele>70.8</ele><time>2026-03-28T14:37:52Z</time></trkpt><trkpt lat="45.635262481614355" lon="10.602191841745734"><ele>71.0</ele><time>2026-03-28T14:37:53Z</time></trkpt><trkpt lat="45.63519057553841" lon="10.602056337951494"><ele>70.5</ele><time>2026-03-28T14:37:54Z</time></trkpt><trkpt lat="45.63510825357701" lon="10.601914112814882"><ele>70.0</ele><time>2026-03-28T14:37:55Z</time></trkpt><trkpt lat="45.63505733953871" lon="10.601729556054808"><ele>69.5</ele><time>2026-03-28T14:37:56Z</time></trkpt><trkpt lat="45.6349867916914" lon="10.60156151281432"><ele>69.0</ele><time>2026-03-28T14:37:57Z</time></trkpt><trkpt lat="45.634937685110266" lon="10.601396513700113"><ele>69.0</ele><time>2026-03-28T14:37:58Z</time></trkpt><trkpt lat="45.63491574338187" lon="10.601244899811972"><ele>69.0</ele><time>2026-03-28T14:37:59Z</time></trkpt><trkpt lat="45.63490437756661" lon="10.601096314612649"><ele>69.0</ele><time>2026-03-28T14:38:00Z</time></trkpt><trkpt lat="45.63489110197213" lon="10.60095448203587"><ele>69.0</ele><time>2026-03-28T14:38:01Z</time></trkpt><trkpt lat="45.63493129405319" lon="10.600812252210867"><ele>69.0</ele><time>2026-03-28T14:38:02Z</time></trkpt><trkpt lat="45.63496004171388" lon="10.600685774242216"><ele>69.2</ele><time>2026-03-28T14:38:03Z</time></trkpt><trkpt lat="45.63498206430736" lon="10.600557499214018"><ele>69.4</ele><time>2026-03-28T14:38:04Z</time></trkpt><trkpt lat="45.63501419719842" lon="10.600465381394581"><ele>69.6</ele><time>2026-03-28T14:38:05Z</time></trkpt><trkpt lat="45.6350668576649" lon="10.60031714340632"><ele>69.8</ele><time>2026-03-28T14:38:07Z</time></trkpt><trkpt lat="45.63512209861428" lon="10.600163015604293"><ele>70.0</ele><time>2026-03-28T14:38:09Z</time></trkpt><trkpt lat="45.63517261772918" lon="10.600032770900738"><ele>70.4</ele><time>2026-03-28T14:38:11Z</time></trkpt><trkpt lat="45.63521098483794" lon="10.5999426025618"><ele>70.8</ele><time>2026-03-28T14:38:14Z</time></trkpt><trkpt lat="45.63525614131344" lon="10.599831177683301"><ele>71.2</ele><time>2026-03-28T14:38:16Z</time></trkpt><trkpt lat="45.635333971023854" lon="10.59968299711634"><ele>71.6</ele><time>2026-03-28T14:38:18Z</time></trkpt><trkpt lat="45.63537752447268" lon="10.599598641647763"><ele>72.0</ele><time>2026-03-28T14:38:20Z</time></trkpt><trkpt lat="45.63542212131462" lon="10.599488177068523"><ele>72.0</ele><time>2026-03-28T14:38:30Z</time></trkpt><trkpt lat="45.6355018633962" lon="10.599353567803153"><ele>72.0</ele><time>2026-03-28T14:38:32Z</time></trkpt><trkpt lat="45.635577433771815" lon="10.599195827207238"><ele>72.0</ele><time>2026-03-28T14:38:34Z</time></trkpt><trkpt lat="45.635614553930736" lon="10.599094904867133"><ele>72.0</ele><time>2026-03-28T14:38:35Z</time></trkpt><trkpt lat="45.63566381612707" lon="10.599000212433149"><ele>72.0</ele><time>2026-03-28T14:38:36Z</time></trkpt><trkpt lat="45.63569220734207" lon="10.59886676149307"><ele>72.0</ele><time>2026-03-28T14:38:40Z</time></trkpt><trkpt lat="45.63571675894254" lon="10.5987267328251"><ele>72.0</ele><time>2026-03-28T14:38:42Z</time></trkpt><trkpt lat="45.63572788149087" lon="10.598538085271095"><ele>72.0</ele><time>2026-03-28T14:38:44Z</time></trkpt><trkpt lat="45.63572947060813" lon="10.59841740507182"><ele>72.0</ele><time>2026-03-28T14:38:45Z</time></trkpt><trkpt lat="45.63572485872467" lon="10.598315264431106"><ele>72.0</ele><time>2026-03-28T14:38:46Z</time></trkpt><trkpt lat="45.63572345257667" lon="10.598205940119904"><ele>72.4</ele><time>2026-03-28T14:38:47Z</time></trkpt><trkpt lat="45.63571804966386" lon="10.598094614538864"><ele>72.80000000000001</ele><time>2026-03-28T14:38:48Z</time></trkpt><trkpt lat="45.63571656125617" lon="10.597965637437662"><ele>73.2</ele><time>2026-03-28T14:38:49Z</time></trkpt><trkpt lat="45.63570707042035" lon="10.59783585941794"><ele>73.60000000000001</ele><time>2026-03-28T14:38:50Z</time></trkpt><trkpt lat="45.63568915873542" lon="10.597700612461695"><ele>74.0</ele><time>2026-03-28T14:38:51Z</time></trkpt><trkpt lat="45.63566732343561" lon="10.597566300846845"><ele>75.0</ele><time>2026-03-28T14:38:52Z</time></trkpt><trkpt lat="45.63563997375162" lon="10.597433904628947"><ele>76.0</ele><time>2026-03-28T14:38:53Z</time></trkpt><trkpt lat="45.635604090940106" lon="10.59729963571752"><ele>77.0</ele><time>2026-03-28T14:38:54Z</time></trkpt><trkpt lat="45.63556418055253" lon="10.597159587145068"><ele>78.0</ele><time>2026-03-28T14:38:55Z</time></trkpt><trkpt lat="45.635519471893716" lon="10.597034098610361"><ele>79.0</ele><time>2026-03-28T14:38:56Z</time></trkpt><trkpt lat="45.63547939029521" lon="10.596914829639491"><ele>77.25</ele><time>2026-03-28T14:38:57Z</time></trkpt><trkpt lat="45.63542643175192" lon="10.59680182918279"><ele>75.5</ele><time>2026-03-28T14:38:58Z</time></trkpt><trkpt lat="45.63535807842748" lon="10.596670628851351"><ele>73.75</ele><time>2026-03-28T14:38:59Z</time></trkpt><trkpt lat="45.63527803394924" lon="10.59650046198269"><ele>72.0</ele><time>2026-03-28T14:39:00Z</time></trkpt><trkpt lat="45.635179619309746" lon="10.596296844203785"><ele>74.0</ele><time>2026-03-28T14:39:01Z</time></trkpt><trkpt lat="45.63507271863858" lon="10.596096853165076"><ele>76.0</ele><time>2026-03-28T14:39:02Z</time></trkpt><trkpt lat="45.635000503145775" lon="10.595886980544144"><ele>78.0</ele><time>2026-03-28T14:39:03Z</time></trkpt><trkpt lat="45.63492374980277" lon="10.59567800775783"><ele>78.0</ele><time>2026-03-28T14:39:04Z</time></trkpt><trkpt lat="45.634862126107656" lon="10.59549891474472"><ele>78.0</ele><time>2026-03-28T14:39:05Z</time></trkpt><trkpt lat="45.63479576183135" lon="10.595325771014966"><ele>78.0</ele><time>2026-03-28T14:39:06Z</time></trkpt><trkpt lat="45.634727626183825" lon="10.595160118832867"><ele>78.0</ele><time>2026-03-28T14:39:07Z</time></trkpt><trkpt lat="45.634652961071986" lon="10.594989396896404"><ele>77.75</ele><time>2026-03-28T14:39:08Z</time></trkpt><trkpt lat="45.63457660536998" lon="10.594814018635455"><ele>77.5</ele><time>2026-03-28T14:39:09Z</time></trkpt><trkpt lat="45.63449314088113" lon="10.594643176713383"><ele>77.25</ele><time>2026-03-28T14:39:10Z</time></trkpt><trkpt lat="45.63441325911735" lon="10.594465307447473"><ele>77.0</ele><time>2026-03-28T14:39:11Z</time></trkpt><trkpt lat="45.63432883803281" lon="10.59430864406669"><ele>77.0</ele><time>2026-03-28T14:39:12Z</time></trkpt><trkpt lat="45.634251946608124" lon="10.594157253411485"><ele>77.0</ele><time>2026-03-28T14:39:13Z</time></trkpt><trkpt lat="45.63418685612866" lon="10.59403289536533"><ele>77.0</ele><time>2026-03-28T14:39:14Z</time></trkpt><trkpt lat="45.634121437204556" lon="10.59392388456212"><ele>77.0</ele><time>2026-03-28T14:39:15Z</time></trkpt><trkpt lat="45.63405377776452" lon="10.593797331597793"><ele>81.75</ele><time>2026-03-28T14:39:16Z</time></trkpt><trkpt lat="45.633984675487945" lon="10.593662896622073"><ele>86.5</ele><time>2026-03-28T14:39:17Z</time></trkpt><trkpt lat="45.63391091144363" lon="10.593522179364331"><ele>91.25</ele><time>2026-03-28T14:39:18Z</time></trkpt><trkpt lat="45.63383121869869" lon="10.593376074604015"><ele>96.0</ele><time>2026-03-28T14:39:19Z</time></trkpt><trkpt lat="45.633747948529354" lon="10.593216538539666"><ele>96.0</ele><time>2026-03-28T14:39:20Z</time></trkpt><trkpt lat="45.63366659927685" lon="10.593057401219173"><ele>96.0</ele><time>2026-03-28T14:39:21Z</time></trkpt><trkpt lat="45.633583856414106" lon="10.592895495279613"><ele>96.0</ele><time>2026-03-28T14:39:22Z</time></trkpt><trkpt lat="45.63350433662657" lon="10.592747705399335"><ele>96.0</ele><time>2026-03-28T14:39:23Z</time></trkpt><trkpt lat="45.633428618905796" lon="10.592605822042607"><ele>90.75</ele><time>2026-03-28T14:39:24Z</time></trkpt><trkpt lat="45.633347289398515" lon="10.5924507183095"><ele>85.5</ele><time>2026-03-28T14:39:25Z</time></trkpt><trkpt lat="45.63325885761977" lon="10.592298243372504"><ele>80.25</ele><time>2026-03-28T14:39:26Z</time></trkpt><trkpt lat="45.63316473674015" lon="10.592156044367478"><ele>75.0</ele><time>2026-03-28T14:39:27Z</time></trkpt><trkpt lat="45.63305616529624" lon="10.592020729476024"><ele>74.5</ele><time>2026-03-28T14:39:28Z</time></trkpt><trkpt lat="45.632937627964864" lon="10.59189457533172"><ele>74.0</ele><time>2026-03-28T14:39:29Z</time></trkpt><trkpt lat="45.63281929262025" lon="10.591775789024634"><ele>73.5</ele><time>2026-03-28T14:39:30Z</time></trkpt><trkpt lat="45.63270668323204" lon="10.591663438271514"><ele>73.0</ele><time>2026-03-28T14:39:31Z</time></trkpt><trkpt lat="45.63260084939044" lon="10.591543432433737"><ele>73.0</ele><time>2026-03-28T14:39:32Z</time></trkpt><trkpt lat="45.63252319008108" lon="10.59138457989906"><ele>73.0</ele><time>2026-03-28T14:39:33Z</time></trkpt><trkpt lat="45.63244535325663" lon="10.591219776399361"><ele>73.0</ele><time>2026-03-28T14:39:34Z</time></trkpt><trkpt lat="45.63235122755152" lon="10.591053048957754"><ele>73.0</ele><time>2026-03-28T14:39:35Z</time></trkpt><trkpt lat="45.63227717232737" lon="10.590865229338752"><ele>79.0</ele><time>2026-03-28T14:39:36Z</time></trkpt><trkpt lat="45.63219481269707" lon="10.590654760918722"><ele>85.0</ele><time>2026-03-28T14:39:37Z</time></trkpt><trkpt lat="45.63209503340969" lon="10.590429869277804"><ele>91.0</ele><time>2026-03-28T14:39:38Z</time></trkpt><trkpt lat="45.63199011670553" lon="10.590173137960809"><ele>89.33333333333333</ele><time>2026-03-28T14:39:39Z</time></trkpt><trkpt lat="45.63185804346381" lon="10.589919453750058"><ele>87.66666666666667</ele><time>2026-03-28T14:39:40Z</time></trkpt><trkpt lat="45.63171141945355" lon="10.589687834993402"><ele>86.0</ele><time>2026-03-28T14:39:41Z</time></trkpt><trkpt lat="45.63158765904388" lon="10.589464670041693"><ele>86.0</ele><time>2026-03-28T14:39:42Z</time></trkpt><trkpt lat="45.63147833173894" lon="10.589279902489805"><ele>86.0</ele><time>2026-03-28T14:39:43Z</time></trkpt><trkpt lat="45.631374335701004" lon="10.589104950591699"><ele>86.0</ele><time>2026-03-28T14:39:44Z</time></trkpt><trkpt lat="45.6312760166264" lon="10.58893871498926"><ele>86.0</ele><time>2026-03-28T14:39:45Z</time></trkpt><trkpt lat="45.631178760700145" lon="10.588777826598836"><ele>86.0</ele><time>2026-03-28T14:39:46Z</time></trkpt><trkpt lat="45.631079640817546" lon="10.588619970629608"><ele>86.0</ele><time>2026-03-28T14:39:47Z</time></trkpt><trkpt lat="45.63098033454222" lon="10.588457021674074"><ele>86.0</ele><time>2026-03-28T14:39:48Z</time></trkpt><trkpt lat="45.63085083134939" lon="10.588305100500355"><ele>82.66666666666667</ele><time>2026-03-28T14:39:49Z</time></trkpt><trkpt lat="45.630729647666854" lon="10.588104158239476"><ele>79.33333333333333</ele><time>2026-03-28T14:39:50Z</time></trkpt><trkpt lat="45.630591971772716" lon="10.58790366037426"><ele>76.0</ele><time>2026-03-28T14:39:51Z</time></trkpt><trkpt lat="45.6304551938354" lon="10.587710535760277"><ele>77.33333333333333</ele><time>2026-03-28T14:39:52Z</time></trkpt><trkpt lat="45.630328948152986" lon="10.587522181268517"><ele>78.66666666666667</ele><time>2026-03-28T14:39:53Z</time></trkpt><trkpt lat="45.6302035789967" lon="10.58735148239616"><ele>80.0</ele><time>2026-03-28T14:39:54Z</time></trkpt><trkpt lat="45.630089158116114" lon="10.587204486886305"><ele>80.0</ele><time>2026-03-28T14:39:55Z</time></trkpt><trkpt lat="45.62997626486415" lon="10.587067579301262"><ele>80.0</ele><time>2026-03-28T14:39:56Z</time></trkpt><trkpt lat="45.62987240124369" lon="10.586960128623229"><ele>80.0</ele><time>2026-03-28T14:39:57Z</time></trkpt><trkpt lat="45.62976870594511" lon="10.586857149062068"><ele>80.0</ele><time>2026-03-28T14:39:58Z</time></trkpt><trkpt lat="45.62965996551184" lon="10.586767699950213"><ele>79.25</ele><time>2026-03-28T14:39:59Z</time></trkpt><trkpt lat="45.629535557874824" lon="10.586694532485978"><ele>78.5</ele><time>2026-03-28T14:40:00Z</time></trkpt><trkpt lat="45.629405353764156" lon="10.586645841385657"><ele>77.75</ele><time>2026-03-28T14:40:01Z</time></trkpt><trkpt lat="45.629281970716775" lon="10.586614381274023"><ele>77.0</ele><time>2026-03-28T14:40:02Z</time></trkpt><trkpt lat="45.62915345217457" lon="10.586598897898188"><ele>77.0</ele><time>2026-03-28T14:40:03Z</time></trkpt><trkpt lat="45.62901832151091" lon="10.586597082605904"><ele>77.0</ele><time>2026-03-28T14:40:04Z</time></trkpt><trkpt lat="45.62888556151897" lon="10.586595852452211"><ele>77.0</ele><time>2026-03-28T14:40:05Z</time></trkpt><trkpt lat="45.62875923301549" lon="10.586605084152227"><ele>77.0</ele><time>2026-03-28T14:40:06Z</time></trkpt><trkpt lat="45.62862652821655" lon="10.586617442692807"><ele>76.33333333333334</ele><time>2026-03-28T14:40:07Z</time></trkpt><trkpt lat="45.62847926669371" lon="10.58662517440531"><ele>75.66666666666667</ele><time>2026-03-28T14:40:08Z</time></trkpt><trkpt lat="45.62831342578422" lon="10.586614269935048"><ele>75.0</ele><time>2026-03-28T14:40:09Z</time></trkpt><trkpt lat="45.62813239426011" lon="10.58662441628068"><ele>75.0</ele><time>2026-03-28T14:40:10Z</time></trkpt><trkpt lat="45.627945091271094" lon="10.586616786697517"><ele>75.0</ele><time>2026-03-28T14:40:11Z</time></trkpt><trkpt lat="45.627773158452726" lon="10.586602075122363"><ele>75.0</ele><time>2026-03-28T14:40:12Z</time></trkpt><trkpt lat="45.62762919357567" lon="10.586496409249976"><ele>75.33333333333333</ele><time>2026-03-28T14:40:13Z</time></trkpt><trkpt lat="45.6274959834229" lon="10.586379721360304"><ele>75.66666666666666</ele><time>2026-03-28T14:40:14Z</time></trkpt><trkpt lat="45.627359170844805" lon="10.586252209224586"><ele>76.0</ele><time>2026-03-28T14:40:15Z</time></trkpt><trkpt lat="45.62722081441329" lon="10.58614438168811"><ele>76.5</ele><time>2026-03-28T14:40:16Z</time></trkpt><trkpt lat="45.62709194832202" lon="10.586019309079987"><ele>77.0</ele><time>2026-03-28T14:40:17Z</time></trkpt><trkpt lat="45.62697160243463" lon="10.585905274230441"><ele>77.5</ele><time>2026-03-28T14:40:18Z</time></trkpt><trkpt lat="45.62685664698131" lon="10.585795266738693"><ele>78.0</ele><time>2026-03-28T14:40:19Z</time></trkpt><trkpt lat="45.62675195118226" lon="10.58569158206061"><ele>78.0</ele><time>2026-03-28T14:40:20Z</time></trkpt><trkpt lat="45.626645384744656" lon="10.585599187225615"><ele>78.0</ele><time>2026-03-28T14:40:21Z</time></trkpt><trkpt lat="45.62654164280601" lon="10.585502586549653"><ele>78.0</ele><time>2026-03-28T14:40:22Z</time></trkpt><trkpt lat="45.62643494280571" lon="10.585394606450746"><ele>78.0</ele><time>2026-03-28T14:40:23Z</time></trkpt><trkpt lat="45.626355255932005" lon="10.5852444081278"><ele>78.25</ele><time>2026-03-28T14:40:24Z</time></trkpt><trkpt lat="45.62627317987475" lon="10.58511245471404"><ele>78.5</ele><time>2026-03-28T14:40:25Z</time></trkpt><trkpt lat="45.626210727608985" lon="10.584969483331886"><ele>78.75</ele><time>2026-03-28T14:40:26Z</time></trkpt><trkpt lat="45.62614662148044" lon="10.584828010001022"><ele>79.0</ele><time>2026-03-28T14:40:27Z</time></trkpt><trkpt lat="45.626085777260776" lon="10.584667367800254"><ele>77.75</ele><time>2026-03-28T14:40:28Z</time></trkpt><trkpt lat="45.62605259720574" lon="10.58450193774291"><ele>76.5</ele><time>2026-03-28T14:40:29Z</time></trkpt><trkpt lat="45.626026204122624" lon="10.58433349168463"><ele>75.25</ele><time>2026-03-28T14:40:30Z</time></trkpt><trkpt lat="45.62602206565103" lon="10.58415770205728"><ele>74.0</ele><time>2026-03-28T14:40:31Z</time></trkpt><trkpt lat="45.6260370446907" lon="10.583978724349329"><ele>74.0</ele><time>2026-03-28T14:40:32Z</time></trkpt><trkpt lat="45.62606505509547" lon="10.583796207142441"><ele>74.0</ele><time>2026-03-28T14:40:33Z</time></trkpt><trkpt lat="45.626094694493496" lon="10.583632110424585"><ele>74.0</ele><time>2026-03-28T14:40:34Z</time></trkpt><trkpt lat="45.62612027307211" lon="10.583475095096095"><ele>74.0</ele><time>2026-03-28T14:40:35Z</time></trkpt><trkpt lat="45.6261428237513" lon="10.583317869110761"><ele>76.75</ele><time>2026-03-28T14:40:36Z</time></trkpt><trkpt lat="45.6261665601432" lon="10.58314829294549"><ele>79.5</ele><time>2026-03-28T14:40:37Z</time></trkpt><trkpt lat="45.626186309722875" lon="10.58299131138691"><ele>82.25</ele><time>2026-03-28T14:40:38Z</time></trkpt><trkpt lat="45.62619747803217" lon="10.582807249089345"><ele>85.0</ele><time>2026-03-28T14:40:39Z</time></trkpt><trkpt lat="45.62619997339359" lon="10.582570642187795"><ele>85.0</ele><time>2026-03-28T14:40:40Z</time></trkpt><trkpt lat="45.62618890351592" lon="10.582393628183176"><ele>85.0</ele><time>2026-03-28T14:40:41Z</time></trkpt><trkpt lat="45.62620098669384" lon="10.582167049925228"><ele>85.0</ele><time>2026-03-28T14:40:42Z</time></trkpt><trkpt lat="45.62618292350525" lon="10.581945976508704"><ele>85.0</ele><time>2026-03-28T14:40:43Z</time></trkpt><trkpt lat="45.62618428842719" lon="10.5817474856968"><ele>85.0</ele><time>2026-03-28T14:40:44Z</time></trkpt><trkpt lat="45.62619308637146" lon="10.58157178746415"><ele>85.0</ele><time>2026-03-28T14:40:45Z</time></trkpt><trkpt lat="45.626190201242416" lon="10.581403260014058"><ele>85.0</ele><time>2026-03-28T14:40:46Z</time></trkpt><trkpt lat="45.626188829975575" lon="10.581248158553276"><ele>85.0</ele><time>2026-03-28T14:40:47Z</time></trkpt><trkpt lat="45.626186037563805" lon="10.581101734814276"><ele>85.0</ele><time>2026-03-28T14:40:48Z</time></trkpt><trkpt lat="45.62617789817648" lon="10.58095851948714"><ele>85.0</ele><time>2026-03-28T14:40:49Z</time></trkpt><trkpt lat="45.626179823406176" lon="10.580820099167543"><ele>85.0</ele><time>2026-03-28T14:40:50Z</time></trkpt><trkpt lat="45.626179139618806" lon="10.580670823925484"><ele>85.0</ele><time>2026-03-28T14:40:51Z</time></trkpt><trkpt lat="45.62618149106168" lon="10.580510960234488"><ele>85.0</ele><time>2026-03-28T14:40:52Z</time></trkpt><trkpt lat="45.62618170278137" lon="10.580370151534883"><ele>86.0</ele><time>2026-03-28T14:40:53Z</time></trkpt><trkpt lat="45.62618351224839" lon="10.580238910802498"><ele>87.0</ele><time>2026-03-28T14:40:54Z</time></trkpt><trkpt lat="45.626181168360105" lon="10.580113485220465"><ele>88.0</ele><time>2026-03-28T14:40:55Z</time></trkpt><trkpt lat="45.62618052411845" lon="10.579984695957986"><ele>89.0</ele><time>2026-03-28T14:40:56Z</time></trkpt><trkpt lat="45.62617655082595" lon="10.579828663205177"><ele>90.0</ele><time>2026-03-28T14:40:57Z</time></trkpt><trkpt lat="45.6261695446846" lon="10.579643642285482"><ele>89.5</ele><time>2026-03-28T14:40:58Z</time></trkpt><trkpt lat="45.62617335795328" lon="10.579431853829744"><ele>89.0</ele><time>2026-03-28T14:40:59Z</time></trkpt><trkpt lat="45.626167413788274" lon="10.579223359743168"><ele>88.5</ele><time>2026-03-28T14:41:00Z</time></trkpt><trkpt lat="45.626153107300404" lon="10.5790246254461"><ele>88.0</ele><time>2026-03-28T14:41:01Z</time></trkpt><trkpt lat="45.62614172438984" lon="10.578836234769987"><ele>84.5</ele><time>2026-03-28T14:41:02Z</time></trkpt><trkpt lat="45.626124656950466" lon="10.578658191714958"><ele>81.0</ele><time>2026-03-28T14:41:03Z</time></trkpt><trkpt lat="45.62610481731178" lon="10.578496159035355"><ele>77.5</ele><time>2026-03-28T14:41:04Z</time></trkpt><trkpt lat="45.62607772540209" lon="10.578315263088658"><ele>74.0</ele><time>2026-03-28T14:41:05Z</time></trkpt><trkpt lat="45.626046578863445" lon="10.578135015254526"><ele>74.0</ele><time>2026-03-28T14:41:06Z</time></trkpt><trkpt lat="45.62603216901813" lon="10.577923407339926"><ele>74.0</ele><time>2026-03-28T14:41:07Z</time></trkpt><trkpt lat="45.62599391088248" lon="10.57770754624805"><ele>74.0</ele><time>2026-03-28T14:41:08Z</time></trkpt><trkpt lat="45.6259744276541" lon="10.577484053897239"><ele>75.33333333333334</ele><time>2026-03-28T14:41:09Z</time></trkpt><trkpt lat="45.62594754739289" lon="10.577281477110779"><ele>76.66666666666667</ele><time>2026-03-28T14:41:10Z</time></trkpt><trkpt lat="45.62590978512438" lon="10.577076180824696"><ele>78.0</ele><time>2026-03-28T14:41:11Z</time></trkpt><trkpt lat="45.62585776699485" lon="10.57685610015481"><ele>79.0</ele><time>2026-03-28T14:41:12Z</time></trkpt><trkpt lat="45.62579694871001" lon="10.576622681097705"><ele>80.0</ele><time>2026-03-28T14:41:13Z</time></trkpt><trkpt lat="45.62574289727709" lon="10.576367748574674"><ele>81.0</ele><time>2026-03-28T14:41:14Z</time></trkpt><trkpt lat="45.62568965715557" lon="10.576098074833292"><ele>83.0</ele><time>2026-03-28T14:41:15Z</time></trkpt><trkpt lat="45.62563430575616" lon="10.575838674888871"><ele>85.0</ele><time>2026-03-28T14:41:16Z</time></trkpt><trkpt lat="45.62557273665355" lon="10.575589273977101"><ele>87.0</ele><time>2026-03-28T14:41:17Z</time></trkpt><trkpt lat="45.62549326019726" lon="10.575337326167435"><ele>91.33333333333334</ele><time>2026-03-28T14:41:18Z</time></trkpt><trkpt lat="45.62541605154988" lon="10.575112985766205"><ele>95.66666666666667</ele><time>2026-03-28T14:41:19Z</time></trkpt><trkpt lat="45.62534101064755" lon="10.574914448579866"><ele>100.0</ele><time>2026-03-28T14:41:20Z</time></trkpt><trkpt lat="45.62526326721023" lon="10.57474315911634"><ele>95.5</ele><time>2026-03-28T14:41:21Z</time></trkpt><trkpt lat="45.625181234509064" lon="10.57458321944068"><ele>91.0</ele><time>2026-03-28T14:41:22Z</time></trkpt><trkpt lat="45.62508977782012" lon="10.574433700094328"><ele>86.5</ele><time>2026-03-28T14:41:23Z</time></trkpt><trkpt lat="45.62499243124257" lon="10.574296225969828"><ele>82.0</ele><time>2026-03-28T14:41:24Z</time></trkpt><trkpt lat="45.62489740049902" lon="10.574171950013605"><ele>82.0</ele><time>2026-03-28T14:41:25Z</time></trkpt><trkpt lat="45.62480938322331" lon="10.574063762995381"><ele>82.0</ele><time>2026-03-28T14:41:26Z</time></trkpt><trkpt lat="45.62473086386894" lon="10.573968187575014"><ele>82.0</ele><time>2026-03-28T14:41:27Z</time></trkpt><trkpt lat="45.6246484720608" lon="10.573875687726485"><ele>82.0</ele><time>2026-03-28T14:41:28Z</time></trkpt><trkpt lat="45.62457202220161" lon="10.573787828907422"><ele>82.0</ele><time>2026-03-28T14:41:29Z</time></trkpt><trkpt lat="45.624492056062316" lon="10.573695428419105"><ele>81.0</ele><time>2026-03-28T14:41:30Z</time></trkpt><trkpt lat="45.62441082489983" lon="10.573589769563075"><ele>80.0</ele><time>2026-03-28T14:41:31Z</time></trkpt><trkpt lat="45.624339798655406" lon="10.573485549062566"><ele>79.0</ele><time>2026-03-28T14:41:32Z</time></trkpt><trkpt lat="45.62427781278608" lon="10.573372450326517"><ele>78.0</ele><time>2026-03-28T14:41:33Z</time></trkpt><trkpt lat="45.62422100221379" lon="10.573249897621084"><ele>77.0</ele><time>2026-03-28T14:41:34Z</time></trkpt><trkpt lat="45.624164965321135" lon="10.573123461619762"><ele>77.0</ele><time>2026-03-28T14:41:35Z</time></trkpt><trkpt lat="45.62411994566236" lon="10.573000431418988"><ele>77.0</ele><time>2026-03-28T14:41:36Z</time></trkpt><trkpt lat="45.624069504044094" lon="10.572856381933034"><ele>77.0</ele><time>2026-03-28T14:41:37Z</time></trkpt><trkpt lat="45.62401813666748" lon="10.572701202419811"><ele>77.0</ele><time>2026-03-28T14:41:38Z</time></trkpt><trkpt lat="45.623983778079044" lon="10.572558960361388"><ele>77.0</ele><time>2026-03-28T14:41:39Z</time></trkpt><trkpt lat="45.62393327992303" lon="10.572414672166932"><ele>78.0</ele><time>2026-03-28T14:41:40Z</time></trkpt><trkpt lat="45.623887159816626" lon="10.572269615664664"><ele>79.0</ele><time>2026-03-28T14:41:41Z</time></trkpt><trkpt lat="45.6238459995713" lon="10.572129018273728"><ele>80.0</ele><time>2026-03-28T14:41:42Z</time></trkpt><trkpt lat="45.62380729178348" lon="10.571990157983391"><ele>81.0</ele><time>2026-03-28T14:41:43Z</time></trkpt><trkpt lat="45.62375745322651" lon="10.571849977862662"><ele>82.0</ele><time>2026-03-28T14:41:44Z</time></trkpt><trkpt lat="45.623712289435844" lon="10.57171261393556"><ele>81.8</ele><time>2026-03-28T14:41:45Z</time></trkpt><trkpt lat="45.62365490683516" lon="10.57157969349166"><ele>81.6</ele><time>2026-03-28T14:41:46Z</time></trkpt><trkpt lat="45.623590583035025" lon="10.571458037426277"><ele>81.39999999999999</ele><time>2026-03-28T14:41:47Z</time></trkpt><trkpt lat="45.62352100830027" lon="10.571343010741604"><ele>81.19999999999999</ele><time>2026-03-28T14:41:48Z</time></trkpt><trkpt lat="45.62344702447828" lon="10.571231509584237"><ele>81.0</ele><time>2026-03-28T14:41:49Z</time></trkpt><trkpt lat="45.62336567403507" lon="10.57112853700244"><ele>81.0</ele><time>2026-03-28T14:41:50Z</time></trkpt><trkpt lat="45.623282299652665" lon="10.571002658842739"><ele>81.0</ele><time>2026-03-28T14:41:51Z</time></trkpt><trkpt lat="45.623163592848506" lon="10.570873757766206"><ele>81.0</ele><time>2026-03-28T14:41:52Z</time></trkpt><trkpt lat="45.62303214887284" lon="10.570734012020514"><ele>81.0</ele><time>2026-03-28T14:41:53Z</time></trkpt><trkpt lat="45.622882368578686" lon="10.570596924706292"><ele>79.0</ele><time>2026-03-28T14:41:54Z</time></trkpt><trkpt lat="45.62275967228753" lon="10.570421115789605"><ele>77.0</ele><time>2026-03-28T14:41:55Z</time></trkpt><trkpt lat="45.62265422089148" lon="10.570243646463284"><ele>75.0</ele><time>2026-03-28T14:41:56Z</time></trkpt><trkpt lat="45.622556912268465" lon="10.57007268426676"><ele>75.0</ele><time>2026-03-28T14:41:57Z</time></trkpt><trkpt lat="45.62246171532286" lon="10.569903815645404"><ele>75.0</ele><time>2026-03-28T14:41:58Z</time></trkpt><trkpt lat="45.62236830011528" lon="10.569745106322177"><ele>75.0</ele><time>2026-03-28T14:41:59Z</time></trkpt><trkpt lat="45.62228581392698" lon="10.569588517744997"><ele>75.0</ele><time>2026-03-28T14:42:00Z</time></trkpt><trkpt lat="45.62221556897656" lon="10.569414424843751"><ele>73.5</ele><time>2026-03-28T14:42:01Z</time></trkpt><trkpt lat="45.622145243301645" lon="10.569244835615123"><ele>72.0</ele><time>2026-03-28T14:42:02Z</time></trkpt><trkpt lat="45.62207600043448" lon="10.56906502664664"><ele>70.5</ele><time>2026-03-28T14:42:03Z</time></trkpt><trkpt lat="45.62200813806847" lon="10.5688846683178"><ele>69.0</ele><time>2026-03-28T14:42:04Z</time></trkpt><trkpt lat="45.621937483220414" lon="10.568715454884662"><ele>71.33333333333333</ele><time>2026-03-28T14:42:05Z</time></trkpt><trkpt lat="45.621850543606655" lon="10.568539567540777"><ele>73.66666666666666</ele><time>2026-03-28T14:42:06Z</time></trkpt><trkpt lat="45.62175018429786" lon="10.568351497421839"><ele>76.0</ele><time>2026-03-28T14:42:07Z</time></trkpt><trkpt lat="45.62163507245353" lon="10.568161073189316"><ele>76.0</ele><time>2026-03-28T14:42:08Z</time></trkpt><trkpt lat="45.62153072644714" lon="10.567974329799329"><ele>76.0</ele><time>2026-03-28T14:42:09Z</time></trkpt><trkpt lat="45.621429095634056" lon="10.56778822630334"><ele>76.0</ele><time>2026-03-28T14:42:10Z</time></trkpt><trkpt lat="45.62133091349164" lon="10.56761652789625"><ele>78.25</ele><time>2026-03-28T14:42:11Z</time></trkpt><trkpt lat="45.62123401017941" lon="10.567461792261625"><ele>80.5</ele><time>2026-03-28T14:42:12Z</time></trkpt><trkpt lat="45.62115658103881" lon="10.567331062336718"><ele>82.75</ele><time>2026-03-28T14:42:13Z</time></trkpt><trkpt lat="45.62107986860492" lon="10.567213888820563"><ele>85.0</ele><time>2026-03-28T14:42:14Z</time></trkpt><trkpt lat="45.62100832869129" lon="10.567102715327525"><ele>83.0</ele><time>2026-03-28T14:42:15Z</time></trkpt><trkpt lat="45.62093955841505" lon="10.566993874832383"><ele>81.0</ele><time>2026-03-28T14:42:16Z</time></trkpt><trkpt lat="45.62086649565467" lon="10.566871332324736"><ele>79.0</ele><time>2026-03-28T14:42:17Z</time></trkpt><trkpt lat="45.620780480087895" lon="10.566753642804283"><ele>77.0</ele><time>2026-03-28T14:42:18Z</time></trkpt><trkpt lat="45.620703008860886" lon="10.566633788431446"><ele>75.0</ele><time>2026-03-28T14:42:19Z</time></trkpt><trkpt lat="45.62061595724684" lon="10.566526787077285"><ele>75.0</ele><time>2026-03-28T14:42:20Z</time></trkpt><trkpt lat="45.62053047869193" lon="10.566404498321841"><ele>75.0</ele><time>2026-03-28T14:42:21Z</time></trkpt><trkpt lat="45.620443170148285" lon="10.566290072121744"><ele>75.0</ele><time>2026-03-28T14:42:22Z</time></trkpt><trkpt lat="45.62036023066814" lon="10.566171424811545"><ele>75.0</ele><time>2026-03-28T14:42:23Z</time></trkpt><trkpt lat="45.620282078416786" lon="10.566055867803515"><ele>73.5</ele><time>2026-03-28T14:42:24Z</time></trkpt><trkpt lat="45.620201075135185" lon="10.56594632049853"><ele>72.0</ele><time>2026-03-28T14:42:25Z</time></trkpt><trkpt lat="45.62011944605325" lon="10.565826990078925"><ele>70.5</ele><time>2026-03-28T14:42:26Z</time></trkpt><trkpt lat="45.62003493910334" lon="10.56570296218964"><ele>69.0</ele><time>2026-03-28T14:42:27Z</time></trkpt><trkpt lat="45.61995686588395" lon="10.565577601228219"><ele>69.0</ele><time>2026-03-28T14:42:28Z</time></trkpt><trkpt lat="45.61987655940921" lon="10.565468742116316"><ele>69.0</ele><time>2026-03-28T14:42:29Z</time></trkpt><trkpt lat="45.619825477212636" lon="10.565385689455484"><ele>69.0</ele><time>2026-03-28T14:42:30Z</time></trkpt><trkpt lat="45.61977535477477" lon="10.565311047812381"><ele>69.0</ele><time>2026-03-28T14:42:31Z</time></trkpt><trkpt lat="45.61971954076548" lon="10.565215933274576"><ele>69.0</ele><time>2026-03-28T14:42:33Z</time></trkpt><trkpt lat="45.619649559062545" lon="10.565127971638425"><ele>69.0</ele><time>2026-03-28T14:42:36Z</time></trkpt><trkpt lat="45.61954728761252" lon="10.564969487978809"><ele>68.8</ele><time>2026-03-28T14:42:40Z</time></trkpt><trkpt lat="45.619489588891234" lon="10.564848955098428"><ele>68.60000000000001</ele><time>2026-03-28T14:42:41Z</time></trkpt><trkpt lat="45.61943480513462" lon="10.564728899177577"><ele>68.4</ele><time>2026-03-28T14:42:42Z</time></trkpt><trkpt lat="45.61938223527364" lon="10.564599898735855"><ele>68.2</ele><time>2026-03-28T14:42:43Z</time></trkpt><trkpt lat="45.61933368180563" lon="10.56446599897224"><ele>68.0</ele><time>2026-03-28T14:42:44Z</time></trkpt><trkpt lat="45.619292141597555" lon="10.564360550838732"><ele>68.83333333333334</ele><time>2026-03-28T14:42:45Z</time></trkpt><trkpt lat="45.61926793605759" lon="10.564268584970774"><ele>69.66666666666667</ele><time>2026-03-28T14:42:46Z</time></trkpt><trkpt lat="45.61923968553593" lon="10.564187417478585"><ele>70.5</ele><time>2026-03-28T14:42:47Z</time></trkpt><trkpt lat="45.619193354689976" lon="10.56403247587494"><ele>71.33333333333333</ele><time>2026-03-28T14:42:49Z</time></trkpt><trkpt lat="45.61916465345376" lon="10.563949174700872"><ele>72.16666666666666</ele><time>2026-03-28T14:42:50Z</time></trkpt><trkpt lat="45.61912948628931" lon="10.563833233925536"><ele>73.0</ele><time>2026-03-28T14:42:52Z</time></trkpt><trkpt lat="45.6191062858601" lon="10.563749046853792"><ele>73.5</ele><time>2026-03-28T14:42:54Z</time></trkpt><trkpt lat="45.61906369299347" lon="10.563623278863375"><ele>74.0</ele><time>2026-03-28T14:42:57Z</time></trkpt><trkpt lat="45.619042180789215" lon="10.56350641431589"><ele>74.5</ele><time>2026-03-28T14:42:59Z</time></trkpt><trkpt lat="45.61901168334232" lon="10.563410357359194"><ele>75.0</ele><time>2026-03-28T14:43:02Z</time></trkpt><trkpt lat="45.618985688436204" lon="10.56332009778618"><ele>75.5</ele><time>2026-03-28T14:43:06Z</time></trkpt><trkpt lat="45.61895481341773" lon="10.563204421287372"><ele>76.0</ele><time>2026-03-28T14:43:09Z</time></trkpt><trkpt lat="45.618920142935124" lon="10.563104293507486"><ele>76.0</ele><time>2026-03-28T14:43:12Z</time></trkpt><trkpt lat="45.61889615401859" lon="10.563008962390159"><ele>76.0</ele><time>2026-03-28T14:43:14Z</time></trkpt><trkpt lat="45.61886524632463" lon="10.562898036817627"><ele>76.0</ele><time>2026-03-28T14:43:17Z</time></trkpt><trkpt lat="45.618842177146796" lon="10.56281022089822"><ele>76.0</ele><time>2026-03-28T14:43:19Z</time></trkpt><trkpt lat="45.61881272238068" lon="10.562685894776177"><ele>76.0</ele><time>2026-03-28T14:43:21Z</time></trkpt><trkpt lat="45.618784131781815" lon="10.56252291191374"><ele>76.0</ele><time>2026-03-28T14:43:23Z</time></trkpt><trkpt lat="45.618766446267756" lon="10.562432094205475"><ele>76.66666666666666</ele><time>2026-03-28T14:43:24Z</time></trkpt><trkpt lat="45.61874620439396" lon="10.56233271274383"><ele>77.33333333333333</ele><time>2026-03-28T14:43:25Z</time></trkpt><trkpt lat="45.61872277345464" lon="10.562220166689489"><ele>78.0</ele><time>2026-03-28T14:43:26Z</time></trkpt><trkpt lat="45.618706162219425" lon="10.562114681548232"><ele>78.66666666666667</ele><time>2026-03-28T14:43:27Z</time></trkpt><trkpt lat="45.61869047937923" lon="10.562023837363698"><ele>79.33333333333334</ele><time>2026-03-28T14:43:28Z</time></trkpt><trkpt lat="45.618664368332325" lon="10.561916668347436"><ele>80.0</ele><time>2026-03-28T14:43:29Z</time></trkpt><trkpt lat="45.618642176140845" lon="10.561797029585712"><ele>78.6</ele><time>2026-03-28T14:43:30Z</time></trkpt><trkpt lat="45.61861356895485" lon="10.561683608120761"><ele>77.2</ele><time>2026-03-28T14:43:31Z</time></trkpt><trkpt lat="45.618592390964075" lon="10.561569032000394"><ele>75.8</ele><time>2026-03-28T14:43:32Z</time></trkpt><trkpt lat="45.618569363973336" lon="10.561444343167118"><ele>74.4</ele><time>2026-03-28T14:43:33Z</time></trkpt><trkpt lat="45.61854193816447" lon="10.561310501370626"><ele>73.0</ele><time>2026-03-28T14:43:34Z</time></trkpt><trkpt lat="45.61852220101413" lon="10.561168812914831"><ele>73.0</ele><time>2026-03-28T14:43:35Z</time></trkpt><trkpt lat="45.61849265531471" lon="10.561022704793302"><ele>73.0</ele><time>2026-03-28T14:43:36Z</time></trkpt><trkpt lat="45.61846438443741" lon="10.560879637244735"><ele>73.0</ele><time>2026-03-28T14:43:37Z</time></trkpt><trkpt lat="45.61843923002602" lon="10.56075647502261"><ele>73.0</ele><time>2026-03-28T14:43:38Z</time></trkpt><trkpt lat="45.618413771793655" lon="10.560648527979383"><ele>73.0</ele><time>2026-03-28T14:43:39Z</time></trkpt><trkpt lat="45.61840604696011" lon="10.560531337493465"><ele>73.0</ele><time>2026-03-28T14:43:40Z</time></trkpt><trkpt lat="45.61838208339551" lon="10.56040673820629"><ele>73.0</ele><time>2026-03-28T14:43:41Z</time></trkpt><trkpt lat="45.6183587780875" lon="10.560285547668647"><ele>73.0</ele><time>2026-03-28T14:43:42Z</time></trkpt><trkpt lat="45.61833518858577" lon="10.560165932748127"><ele>73.0</ele><time>2026-03-28T14:43:43Z</time></trkpt><trkpt lat="45.61831289012566" lon="10.560051974875533"><ele>73.0</ele><time>2026-03-28T14:43:44Z</time></trkpt><trkpt lat="45.61829226279582" lon="10.559946557747308"><ele>73.0</ele><time>2026-03-28T14:43:45Z</time></trkpt><trkpt lat="45.61826320606124" lon="10.559798061410396"><ele>73.16666666666666</ele><time>2026-03-28T14:43:47Z</time></trkpt><trkpt lat="45.61824374347553" lon="10.559696886421705"><ele>73.33333333333333</ele><time>2026-03-28T14:43:49Z</time></trkpt><trkpt lat="45.618214365922114" lon="10.559540480935794"><ele>73.5</ele><time>2026-03-28T14:43:51Z</time></trkpt><trkpt lat="45.618190099854466" lon="10.559411288901629"><ele>73.66666666666667</ele><time>2026-03-28T14:43:53Z</time></trkpt><trkpt lat="45.618171479045266" lon="10.559315777791056"><ele>73.83333333333334</ele><time>2026-03-28T14:43:55Z</time></trkpt><trkpt lat="45.6181466657994" lon="10.559193718197092"><ele>74.0</ele><time>2026-03-28T14:44:07Z</time></trkpt><trkpt lat="45.618128479646735" lon="10.559104007168663"><ele>74.4</ele><time>2026-03-28T14:44:08Z</time></trkpt><trkpt lat="45.618105809987064" lon="10.558987876680174"><ele>74.80000000000001</ele><time>2026-03-28T14:44:09Z</time></trkpt><trkpt lat="45.61807785688988" lon="10.558841813534483"><ele>75.19999999999999</ele><time>2026-03-28T14:44:10Z</time></trkpt><trkpt lat="45.61805071418652" lon="10.558703889998682"><ele>75.6</ele><time>2026-03-28T14:44:11Z</time></trkpt><trkpt lat="45.61802944449639" lon="10.558602929974931"><ele>76.0</ele><time>2026-03-28T14:44:12Z</time></trkpt><trkpt lat="45.61798515983587" lon="10.558493590149105"><ele>75.8</ele><time>2026-03-28T14:44:13Z</time></trkpt><trkpt lat="45.6179600575819" lon="10.558370278163423"><ele>75.6</ele><time>2026-03-28T14:44:14Z</time></trkpt><trkpt lat="45.617919285169016" lon="10.558256020148303"><ele>75.4</ele><time>2026-03-28T14:44:15Z</time></trkpt><trkpt lat="45.617865889714125" lon="10.55814562232787"><ele>75.2</ele><time>2026-03-28T14:44:16Z</time></trkpt><trkpt lat="45.61780610045068" lon="10.55800398765305"><ele>75.0</ele><time>2026-03-28T14:44:17Z</time></trkpt><trkpt lat="45.617715594828596" lon="10.557833854845246"><ele>76.33333333333333</ele><time>2026-03-28T14:44:18Z</time></trkpt><trkpt lat="45.61761607852323" lon="10.557649235317841"><ele>77.66666666666666</ele><time>2026-03-28T14:44:19Z</time></trkpt><trkpt lat="45.617512138075746" lon="10.557453818465442"><ele>79.0</ele><time>2026-03-28T14:44:20Z</time></trkpt><trkpt lat="45.61740561387644" lon="10.557253048531534"><ele>79.33333333333333</ele><time>2026-03-28T14:44:21Z</time></trkpt><trkpt lat="45.61728588294101" lon="10.557027386528377"><ele>79.66666666666667</ele><time>2026-03-28T14:44:22Z</time></trkpt><trkpt lat="45.617167143337085" lon="10.556805815321253"><ele>80.0</ele><time>2026-03-28T14:44:23Z</time></trkpt><trkpt lat="45.617050661431094" lon="10.556586571794288"><ele>79.0</ele><time>2026-03-28T14:44:24Z</time></trkpt><trkpt lat="45.61693894881255" lon="10.556374770246455"><ele>78.0</ele><time>2026-03-28T14:44:25Z</time></trkpt><trkpt lat="45.61683448220593" lon="10.556183787484528"><ele>77.0</ele><time>2026-03-28T14:44:26Z</time></trkpt><trkpt lat="45.616738521164216" lon="10.55600150376871"><ele>77.0</ele><time>2026-03-28T14:44:27Z</time></trkpt><trkpt lat="45.616639552376455" lon="10.555815925553508"><ele>77.0</ele><time>2026-03-28T14:44:28Z</time></trkpt><trkpt lat="45.61654081074463" lon="10.555630374886562"><ele>77.0</ele><time>2026-03-28T14:44:29Z</time></trkpt><trkpt lat="45.61644280845199" lon="10.555435806661606"><ele>80.0</ele><time>2026-03-28T14:44:30Z</time></trkpt><trkpt lat="45.616328412851686" lon="10.55526577852709"><ele>83.0</ele><time>2026-03-28T14:44:31Z</time></trkpt><trkpt lat="45.61624377033984" lon="10.555084567762238"><ele>86.0</ele><time>2026-03-28T14:44:32Z</time></trkpt><trkpt lat="45.616153737120975" lon="10.554893566177222"><ele>84.33333333333334</ele><time>2026-03-28T14:44:33Z</time></trkpt><trkpt lat="45.61605589101268" lon="10.55468127992416"><ele>82.66666666666667</ele><time>2026-03-28T14:44:34Z</time></trkpt><trkpt lat="45.61596508018981" lon="10.554428407173685"><ele>81.0</ele><time>2026-03-28T14:44:35Z</time></trkpt><trkpt lat="45.61585593112699" lon="10.554201072385451"><ele>81.0</ele><time>2026-03-28T14:44:36Z</time></trkpt><trkpt lat="45.615752336408455" lon="10.553981482450137"><ele>81.0</ele><time>2026-03-28T14:44:37Z</time></trkpt><trkpt lat="45.6156573032604" lon="10.553781824808018"><ele>81.0</ele><time>2026-03-28T14:44:38Z</time></trkpt><trkpt lat="45.61557147480271" lon="10.553597548532927"><ele>81.25</ele><time>2026-03-28T14:44:39Z</time></trkpt><trkpt lat="45.615490577628485" lon="10.553416283869627"><ele>81.5</ele><time>2026-03-28T14:44:40Z</time></trkpt><trkpt lat="45.61541135505184" lon="10.553231070895414"><ele>81.75</ele><time>2026-03-28T14:44:41Z</time></trkpt><trkpt lat="45.615339331169935" lon="10.553055960244006"><ele>82.0</ele><time>2026-03-28T14:44:42Z</time></trkpt><trkpt lat="45.61527044351494" lon="10.552884373574951"><ele>80.5</ele><time>2026-03-28T14:44:43Z</time></trkpt><trkpt lat="45.61519777795745" lon="10.55270425929381"><ele>79.0</ele><time>2026-03-28T14:44:44Z</time></trkpt><trkpt lat="45.61513081286772" lon="10.552539458639606"><ele>77.5</ele><time>2026-03-28T14:44:45Z</time></trkpt><trkpt lat="45.615064151976114" lon="10.552375070116813"><ele>76.0</ele><time>2026-03-28T14:44:46Z</time></trkpt><trkpt lat="45.61498596699286" lon="10.552223933406164"><ele>76.0</ele><time>2026-03-28T14:44:47Z</time></trkpt><trkpt lat="45.614928845332116" lon="10.55206716839101"><ele>76.0</ele><time>2026-03-28T14:44:48Z</time></trkpt><trkpt lat="45.614870891600006" lon="10.551919658988949"><ele>76.0</ele><time>2026-03-28T14:44:49Z</time></trkpt><trkpt lat="45.614802368630556" lon="10.551760987075836"><ele>76.0</ele><time>2026-03-28T14:44:50Z</time></trkpt><trkpt lat="45.61473614506821" lon="10.55159151443161"><ele>76.25</ele><time>2026-03-28T14:44:51Z</time></trkpt><trkpt lat="45.61467260881432" lon="10.551435193633523"><ele>76.5</ele><time>2026-03-28T14:44:52Z</time></trkpt><trkpt lat="45.61461748378747" lon="10.55129858102903"><ele>76.75</ele><time>2026-03-28T14:44:53Z</time></trkpt><trkpt lat="45.61455895616865" lon="10.551150927455481"><ele>77.0</ele><time>2026-03-28T14:44:54Z</time></trkpt><trkpt lat="45.61450348127696" lon="10.551000199555599"><ele>76.0</ele><time>2026-03-28T14:44:55Z</time></trkpt><trkpt lat="45.614457085372706" lon="10.550845568882735"><ele>75.0</ele><time>2026-03-28T14:44:56Z</time></trkpt><trkpt lat="45.61440946508365" lon="10.550677303421262"><ele>74.0</ele><time>2026-03-28T14:44:57Z</time></trkpt><trkpt lat="45.614369015164364" lon="10.55049661896603"><ele>73.0</ele><time>2026-03-28T14:44:58Z</time></trkpt><trkpt lat="45.61433195475118" lon="10.550308455820986"><ele>73.0</ele><time>2026-03-28T14:44:59Z</time></trkpt><trkpt lat="45.61430014913808" lon="10.550134756573927"><ele>73.0</ele><time>2026-03-28T14:45:00Z</time></trkpt><trkpt lat="45.61426280311914" lon="10.549945564709295"><ele>73.0</ele><time>2026-03-28T14:45:01Z</time></trkpt><trkpt lat="45.61422630458474" lon="10.549747749085329"><ele>73.0</ele><time>2026-03-28T14:45:02Z</time></trkpt><trkpt lat="45.614188788758284" lon="10.549540535734101"><ele>73.0</ele><time>2026-03-28T14:45:03Z</time></trkpt><trkpt lat="45.614145885770135" lon="10.549313668779462"><ele>73.0</ele><time>2026-03-28T14:45:04Z</time></trkpt><trkpt lat="45.6141039587917" lon="10.549084912445938"><ele>73.0</ele><time>2026-03-28T14:45:05Z</time></trkpt><trkpt lat="45.61406801683209" lon="10.548874905434314"><ele>73.5</ele><time>2026-03-28T14:45:06Z</time></trkpt><trkpt lat="45.61402994112905" lon="10.548668516451164"><ele>74.0</ele><time>2026-03-28T14:45:07Z</time></trkpt><trkpt lat="45.61399332031644" lon="10.548470743008028"><ele>74.5</ele><time>2026-03-28T14:45:08Z</time></trkpt><trkpt lat="45.613959041357866" lon="10.54826774281009"><ele>75.0</ele><time>2026-03-28T14:45:09Z</time></trkpt><trkpt lat="45.61392004643972" lon="10.548058415297506"><ele>76.0</ele><time>2026-03-28T14:45:10Z</time></trkpt><trkpt lat="45.613887799402995" lon="10.547861539372459"><ele>77.0</ele><time>2026-03-28T14:45:11Z</time></trkpt><trkpt lat="45.61384809935355" lon="10.547651097097049"><ele>78.0</ele><time>2026-03-28T14:45:12Z</time></trkpt><trkpt lat="45.61380940345557" lon="10.547450979015851"><ele>79.0</ele><time>2026-03-28T14:45:13Z</time></trkpt><trkpt lat="45.613765367022495" lon="10.547242289411592"><ele>79.66666666666666</ele><time>2026-03-28T14:45:14Z</time></trkpt><trkpt lat="45.61373349858808" lon="10.546988894379218"><ele>80.33333333333333</ele><time>2026-03-28T14:45:15Z</time></trkpt><trkpt lat="45.613677480945555" lon="10.546710925424167"><ele>81.0</ele><time>2026-03-28T14:45:16Z</time></trkpt><trkpt lat="45.613617583509544" lon="10.546420759490779"><ele>78.5</ele><time>2026-03-28T14:45:17Z</time></trkpt><trkpt lat="45.61354746857594" lon="10.546113021122236"><ele>76.0</ele><time>2026-03-28T14:45:18Z</time></trkpt><trkpt lat="45.61348994958623" lon="10.545789676785848"><ele>76.0</ele><time>2026-03-28T14:45:19Z</time></trkpt><trkpt lat="45.613412966574764" lon="10.545460339676117"><ele>76.0</ele><time>2026-03-28T14:45:20Z</time></trkpt><trkpt lat="45.613332706639966" lon="10.545159314159928"><ele>79.0</ele><time>2026-03-28T14:45:21Z</time></trkpt><trkpt lat="45.61324563080212" lon="10.54490981575667"><ele>82.0</ele><time>2026-03-28T14:45:22Z</time></trkpt><trkpt lat="45.613154462655544" lon="10.544675044689589"><ele>85.0</ele><time>2026-03-28T14:45:23Z</time></trkpt><trkpt lat="45.613065413137825" lon="10.544460126819258"><ele>90.0</ele><time>2026-03-28T14:45:24Z</time></trkpt><trkpt lat="45.61297422401406" lon="10.544241755924208"><ele>95.0</ele><time>2026-03-28T14:45:25Z</time></trkpt><trkpt lat="45.61290035107144" lon="10.544031755323289"><ele>100.0</ele><time>2026-03-28T14:45:26Z</time></trkpt><trkpt lat="45.61283962385539" lon="10.543833015114462"><ele>91.33333333333334</ele><time>2026-03-28T14:45:27Z</time></trkpt><trkpt lat="45.61278754562873" lon="10.543618884031083"><ele>82.66666666666667</ele><time>2026-03-28T14:45:28Z</time></trkpt><trkpt lat="45.612747515730256" lon="10.543387817730485"><ele>74.0</ele><time>2026-03-28T14:45:29Z</time></trkpt><trkpt lat="45.61270910834988" lon="10.543150151124449"><ele>74.0</ele><time>2026-03-28T14:45:30Z</time></trkpt><trkpt lat="45.612673522573054" lon="10.542933968287116"><ele>74.0</ele><time>2026-03-28T14:45:31Z</time></trkpt><trkpt lat="45.61262740513365" lon="10.54271151046238"><ele>74.0</ele><time>2026-03-28T14:45:32Z</time></trkpt><trkpt lat="45.61256506911069" lon="10.542475191708807"><ele>75.66666666666667</ele><time>2026-03-28T14:45:33Z</time></trkpt><trkpt lat="45.61248790717443" lon="10.542238123120525"><ele>77.33333333333333</ele><time>2026-03-28T14:45:34Z</time></trkpt><trkpt lat="45.61240289902917" lon="10.541994870284535"><ele>79.0</ele><time>2026-03-28T14:45:35Z</time></trkpt><trkpt lat="45.6123083631021" lon="10.541749441575998"><ele>81.0</ele><time>2026-03-28T14:45:36Z</time></trkpt><trkpt lat="45.612227434401525" lon="10.541476480114328"><ele>83.0</ele><time>2026-03-28T14:45:37Z</time></trkpt><trkpt lat="45.61211359828615" lon="10.541208065698461"><ele>85.0</ele><time>2026-03-28T14:45:38Z</time></trkpt><trkpt lat="45.61201640621645" lon="10.540933175910212"><ele>85.33333333333333</ele><time>2026-03-28T14:45:39Z</time></trkpt><trkpt lat="45.61192199190425" lon="10.540660173705424"><ele>85.66666666666667</ele><time>2026-03-28T14:45:40Z</time></trkpt><trkpt lat="45.61181480761984" lon="10.540387597327301"><ele>86.0</ele><time>2026-03-28T14:45:41Z</time></trkpt><trkpt lat="45.61172387156233" lon="10.540128325768293"><ele>86.0</ele><time>2026-03-28T14:45:42Z</time></trkpt><trkpt lat="45.61163436956946" lon="10.53989483379048"><ele>86.0</ele><time>2026-03-28T14:45:43Z</time></trkpt><trkpt lat="45.61156505037847" lon="10.539714829159097"><ele>86.0</ele><time>2026-03-28T14:45:44Z</time></trkpt><trkpt lat="45.611507153520286" lon="10.539571716995477"><ele>86.0</ele><time>2026-03-28T14:45:45Z</time></trkpt><trkpt lat="45.611457886352234" lon="10.539447033199991"><ele>87.75</ele><time>2026-03-28T14:45:46Z</time></trkpt><trkpt lat="45.61142396064257" lon="10.539313733463567"><ele>89.5</ele><time>2026-03-28T14:45:47Z</time></trkpt><trkpt lat="45.611368901470584" lon="10.539167053704986"><ele>91.25</ele><time>2026-03-28T14:45:48Z</time></trkpt><trkpt lat="45.61129015311016" lon="10.538998115369111"><ele>93.0</ele><time>2026-03-28T14:45:49Z</time></trkpt><trkpt lat="45.61122310214643" lon="10.5388008725504"><ele>90.75</ele><time>2026-03-28T14:45:50Z</time></trkpt><trkpt lat="45.61115817141934" lon="10.538627021287304"><ele>88.5</ele><time>2026-03-28T14:45:51Z</time></trkpt><trkpt lat="45.61110074946424" lon="10.538471964640499"><ele>86.25</ele><time>2026-03-28T14:45:52Z</time></trkpt><trkpt lat="45.61103400966219" lon="10.538298000112595"><ele>84.0</ele><time>2026-03-28T14:45:53Z</time></trkpt><trkpt lat="45.610972533201014" lon="10.538132237410965"><ele>84.0</ele><time>2026-03-28T14:45:54Z</time></trkpt><trkpt lat="45.610918911266474" lon="10.537981975124213"><ele>84.0</ele><time>2026-03-28T14:45:55Z</time></trkpt><trkpt lat="45.61088745496453" lon="10.537811077615732"><ele>84.0</ele><time>2026-03-28T14:45:56Z</time></trkpt><trkpt lat="45.610833461957895" lon="10.537645120233202"><ele>84.0</ele><time>2026-03-28T14:45:57Z</time></trkpt><trkpt lat="45.61079962551875" lon="10.537474154275765"><ele>86.25</ele><time>2026-03-28T14:45:58Z</time></trkpt><trkpt lat="45.61077534118458" lon="10.537306963646952"><ele>88.5</ele><time>2026-03-28T14:45:59Z</time></trkpt><trkpt lat="45.610767062887646" lon="10.537144202956691"><ele>90.75</ele><time>2026-03-28T14:46:00Z</time></trkpt><trkpt lat="45.61078382593002" lon="10.536985772285615"><ele>93.0</ele><time>2026-03-28T14:46:01Z</time></trkpt><trkpt lat="45.610812081222484" lon="10.53682479895155"><ele>95.25</ele><time>2026-03-28T14:46:02Z</time></trkpt><trkpt lat="45.61082503743243" lon="10.536668637129262"><ele>97.5</ele><time>2026-03-28T14:46:03Z</time></trkpt><trkpt lat="45.610806128956796" lon="10.53651175454679"><ele>99.75</ele><time>2026-03-28T14:46:04Z</time></trkpt><trkpt lat="45.61075556014911" lon="10.53634836165122"><ele>102.0</ele><time>2026-03-28T14:46:05Z</time></trkpt><trkpt lat="45.610677610735685" lon="10.536192407313093"><ele>105.75</ele><time>2026-03-28T14:46:06Z</time></trkpt><trkpt lat="45.61058326934629" lon="10.536037704891674"><ele>109.5</ele><time>2026-03-28T14:46:07Z</time></trkpt><trkpt lat="45.61049643180513" lon="10.535880790335357"><ele>113.25</ele><time>2026-03-28T14:46:08Z</time></trkpt><trkpt lat="45.61041874834249" lon="10.535724382023616"><ele>117.0</ele><time>2026-03-28T14:46:09Z</time></trkpt><trkpt lat="45.6103504690502" lon="10.53557413795949"><ele>112.25</ele><time>2026-03-28T14:46:10Z</time></trkpt><trkpt lat="45.61030302755045" lon="10.53541060953802"><ele>107.5</ele><time>2026-03-28T14:46:11Z</time></trkpt><trkpt lat="45.61023779635957" lon="10.535256163751603"><ele>102.75</ele><time>2026-03-28T14:46:12Z</time></trkpt><trkpt lat="45.61018517812228" lon="10.535084348112207"><ele>98.0</ele><time>2026-03-28T14:46:13Z</time></trkpt><trkpt lat="45.61012840582869" lon="10.534916924627117"><ele>98.0</ele><time>2026-03-28T14:46:14Z</time></trkpt><trkpt lat="45.610064206308" lon="10.534767966585596"><ele>98.0</ele><time>2026-03-28T14:46:15Z</time></trkpt><trkpt lat="45.60998707283773" lon="10.53463860332034"><ele>98.0</ele><time>2026-03-28T14:46:16Z</time></trkpt><trkpt lat="45.60989933882784" lon="10.53452335965864"><ele>98.0</ele><time>2026-03-28T14:46:17Z</time></trkpt><trkpt lat="45.609817451214965" lon="10.53441033128049"><ele>102.5</ele><time>2026-03-28T14:46:18Z</time></trkpt><trkpt lat="45.609738252677765" lon="10.534288619473976"><ele>107.0</ele><time>2026-03-28T14:46:19Z</time></trkpt><trkpt lat="45.60966710830693" lon="10.534154204728074"><ele>111.5</ele><time>2026-03-28T14:46:20Z</time></trkpt><trkpt lat="45.609607492636705" lon="10.53399954265533"><ele>116.0</ele><time>2026-03-28T14:46:21Z</time></trkpt><trkpt lat="45.609558282500586" lon="10.533822326653398"><ele>118.75</ele><time>2026-03-28T14:46:22Z</time></trkpt><trkpt lat="45.60954541560025" lon="10.53362181996249"><ele>121.5</ele><time>2026-03-28T14:46:23Z</time></trkpt><trkpt lat="45.609524236463514" lon="10.53343788443811"><ele>124.25</ele><time>2026-03-28T14:46:24Z</time></trkpt><trkpt lat="45.6095150334871" lon="10.533257990131949"><ele>127.0</ele><time>2026-03-28T14:46:25Z</time></trkpt><trkpt lat="45.609517527514726" lon="10.53307931501468"><ele>127.0</ele><time>2026-03-28T14:46:26Z</time></trkpt><trkpt lat="45.609530090453305" lon="10.53290274090707"><ele>127.0</ele><time>2026-03-28T14:46:27Z</time></trkpt><trkpt lat="45.609563941095374" lon="10.532731806738258"><ele>127.0</ele><time>2026-03-28T14:46:28Z</time></trkpt><trkpt lat="45.609631776003745" lon="10.532566211728897"><ele>127.0</ele><time>2026-03-28T14:46:29Z</time></trkpt><trkpt lat="45.60969385391639" lon="10.532400131940987"><ele>125.75</ele><time>2026-03-28T14:46:30Z</time></trkpt><trkpt lat="45.60976429193936" lon="10.532255300997914"><ele>124.5</ele><time>2026-03-28T14:46:31Z</time></trkpt><trkpt lat="45.60982449769238" lon="10.53209899965106"><ele>123.25</ele><time>2026-03-28T14:46:32Z</time></trkpt><trkpt lat="45.609856209949015" lon="10.531947444572685"><ele>122.0</ele><time>2026-03-28T14:46:33Z</time></trkpt><trkpt lat="45.60985346301976" lon="10.53177727203427"><ele>121.25</ele><time>2026-03-28T14:46:34Z</time></trkpt><trkpt lat="45.609822842250644" lon="10.531608421823965"><ele>120.5</ele><time>2026-03-28T14:46:35Z</time></trkpt><trkpt lat="45.60976294569464" lon="10.531434000241303"><ele>119.75</ele><time>2026-03-28T14:46:36Z</time></trkpt><trkpt lat="45.609680379080686" lon="10.531262067084866"><ele>119.0</ele><time>2026-03-28T14:46:37Z</time></trkpt><trkpt lat="45.60959211745052" lon="10.531100164969073"><ele>122.0</ele><time>2026-03-28T14:46:38Z</time></trkpt><trkpt lat="45.60950911015245" lon="10.530942442934077"><ele>125.0</ele><time>2026-03-28T14:46:39Z</time></trkpt><trkpt lat="45.60943994982725" lon="10.530759450855108"><ele>128.0</ele><time>2026-03-28T14:46:40Z</time></trkpt><trkpt lat="45.609364109917024" lon="10.530588053695734"><ele>131.0</ele><time>2026-03-28T14:46:41Z</time></trkpt><trkpt lat="45.6092754959138" lon="10.530415396644475"><ele>127.0</ele><time>2026-03-28T14:46:42Z</time></trkpt><trkpt lat="45.60919661816665" lon="10.53021999600398"><ele>123.0</ele><time>2026-03-28T14:46:43Z</time></trkpt><trkpt lat="45.60913391255862" lon="10.530041393833955"><ele>119.0</ele><time>2026-03-28T14:46:44Z</time></trkpt><trkpt lat="45.60906529599086" lon="10.529869554686886"><ele>115.0</ele><time>2026-03-28T14:46:45Z</time></trkpt><trkpt lat="45.609006066278546" lon="10.529693657354086"><ele>117.75</ele><time>2026-03-28T14:46:46Z</time></trkpt><trkpt lat="45.60895643133985" lon="10.529517427636723"><ele>120.5</ele><time>2026-03-28T14:46:47Z</time></trkpt><trkpt lat="45.60890966589693" lon="10.52933055999227"><ele>123.25</ele><time>2026-03-28T14:46:48Z</time></trkpt><trkpt lat="45.608873349222684" lon="10.529142489886576"><ele>126.0</ele><time>2026-03-28T14:46:49Z</time></trkpt><trkpt lat="45.60885885283161" lon="10.52893575398088"><ele>127.66666666666666</ele><time>2026-03-28T14:46:50Z</time></trkpt><trkpt lat="45.6088351707827" lon="10.528697188480356"><ele>129.33333333333331</ele><time>2026-03-28T14:46:51Z</time></trkpt><trkpt lat="45.608810401008334" lon="10.52843760485456"><ele>131.0</ele><time>2026-03-28T14:46:52Z</time></trkpt><trkpt lat="45.60878474759517" lon="10.528170381177272"><ele>131.0</ele><time>2026-03-28T14:46:53Z</time></trkpt><trkpt lat="45.60874583674282" lon="10.52790154064642"><ele>131.0</ele><time>2026-03-28T14:46:54Z</time></trkpt><trkpt lat="45.60872084937338" lon="10.52766920237126"><ele>131.0</ele><time>2026-03-28T14:46:55Z</time></trkpt><trkpt lat="45.60870242174631" lon="10.527459725570147"><ele>131.5</ele><time>2026-03-28T14:46:56Z</time></trkpt><trkpt lat="45.60867903986573" lon="10.527255926698333"><ele>132.0</ele><time>2026-03-28T14:46:57Z</time></trkpt><trkpt lat="45.6086756404032" lon="10.527045044968713"><ele>132.5</ele><time>2026-03-28T14:46:58Z</time></trkpt><trkpt lat="45.60865056191555" lon="10.526832115357832"><ele>133.0</ele><time>2026-03-28T14:46:59Z</time></trkpt><trkpt lat="45.60863574198846" lon="10.526593206780305"><ele>123.0</ele><time>2026-03-28T14:47:00Z</time></trkpt><trkpt lat="45.60864183685535" lon="10.526322081262046"><ele>113.0</ele><time>2026-03-28T14:47:01Z</time></trkpt><trkpt lat="45.608645536805774" lon="10.526029354400594"><ele>103.0</ele><time>2026-03-28T14:47:02Z</time></trkpt><trkpt lat="45.60865816399449" lon="10.525726001194375"><ele>113.66666666666667</ele><time>2026-03-28T14:47:03Z</time></trkpt><trkpt lat="45.608662179187526" lon="10.525421839486805"><ele>124.33333333333334</ele><time>2026-03-28T14:47:04Z</time></trkpt><trkpt lat="45.6086889954445" lon="10.525128446896064"><ele>135.0</ele><time>2026-03-28T14:47:05Z</time></trkpt><trkpt lat="45.60871163457725" lon="10.524830868678782"><ele>134.33333333333334</ele><time>2026-03-28T14:47:06Z</time></trkpt><trkpt lat="45.60872824037032" lon="10.52455227757316"><ele>133.66666666666669</ele><time>2026-03-28T14:47:07Z</time></trkpt><trkpt lat="45.60874417799825" lon="10.524292005031375"><ele>133.0</ele><time>2026-03-28T14:47:08Z</time></trkpt><trkpt lat="45.608756364809146" lon="10.524062232880947"><ele>133.0</ele><time>2026-03-28T14:47:09Z</time></trkpt><trkpt lat="45.60876831213255" lon="10.523837240845722"><ele>133.0</ele><time>2026-03-28T14:47:10Z</time></trkpt><trkpt lat="45.608778225841334" lon="10.523615251747133"><ele>133.0</ele><time>2026-03-28T14:47:11Z</time></trkpt><trkpt lat="45.60876866377232" lon="10.523391585005252"><ele>132.0</ele><time>2026-03-28T14:47:12Z</time></trkpt><trkpt lat="45.60873327193555" lon="10.523160374472344"><ele>131.0</ele><time>2026-03-28T14:47:13Z</time></trkpt><trkpt lat="45.608683609660346" lon="10.522956738336863"><ele>130.0</ele><time>2026-03-28T14:47:14Z</time></trkpt><trkpt lat="45.608622832272175" lon="10.522752793403184"><ele>123.25</ele><time>2026-03-28T14:47:15Z</time></trkpt><trkpt lat="45.60856325216741" lon="10.522551070813124"><ele>116.5</ele><time>2026-03-28T14:47:16Z</time></trkpt><trkpt lat="45.60852968809591" lon="10.52236781397263"><ele>109.75</ele><time>2026-03-28T14:47:17Z</time></trkpt><trkpt lat="45.6085244543249" lon="10.522180071428709"><ele>103.0</ele><time>2026-03-28T14:47:18Z</time></trkpt><trkpt lat="45.608551269722085" lon="10.521997439259476"><ele>101.5</ele><time>2026-03-28T14:47:19Z</time></trkpt><trkpt lat="45.608604779160196" lon="10.521822194115307"><ele>100.0</ele><time>2026-03-28T14:47:20Z</time></trkpt><trkpt lat="45.60868362420557" lon="10.521650056632785"><ele>98.5</ele><time>2026-03-28T14:47:21Z</time></trkpt><trkpt lat="45.60878139868332" lon="10.521481398516363"><ele>97.0</ele><time>2026-03-28T14:47:22Z</time></trkpt><trkpt lat="45.60889136503057" lon="10.521323160070907"><ele>100.0</ele><time>2026-03-28T14:47:23Z</time></trkpt><trkpt lat="45.60900649030199" lon="10.521175464081391"><ele>103.0</ele><time>2026-03-28T14:47:24Z</time></trkpt><trkpt lat="45.6091153743137" lon="10.521022005486492"><ele>106.0</ele><time>2026-03-28T14:47:25Z</time></trkpt><trkpt lat="45.60922603827554" lon="10.520864514692233"><ele>106.0</ele><time>2026-03-28T14:47:26Z</time></trkpt><trkpt lat="45.60934247752644" lon="10.52069019244446"><ele>106.0</ele><time>2026-03-28T14:47:27Z</time></trkpt><trkpt lat="45.609459320599335" lon="10.520516318195178"><ele>106.0</ele><time>2026-03-28T14:47:28Z</time></trkpt><trkpt lat="45.609578469000745" lon="10.520338140746922"><ele>107.66666666666667</ele><time>2026-03-28T14:47:29Z</time></trkpt><trkpt lat="45.60968305245234" lon="10.520165529203481"><ele>109.33333333333334</ele><time>2026-03-28T14:47:30Z</time></trkpt><trkpt lat="45.609783374661376" lon="10.519974115655328"><ele>111.0</ele><time>2026-03-28T14:47:31Z</time></trkpt><trkpt lat="45.609863927959296" lon="10.519790630499017"><ele>111.0</ele><time>2026-03-28T14:47:32Z</time></trkpt><trkpt lat="45.609950519081934" lon="10.519604183990596"><ele>111.0</ele><time>2026-03-28T14:47:33Z</time></trkpt><trkpt lat="45.61003426462606" lon="10.519414939931634"><ele>111.0</ele><time>2026-03-28T14:47:34Z</time></trkpt><trkpt lat="45.610108059192314" lon="10.519222420561983"><ele>110.0</ele><time>2026-03-28T14:47:35Z</time></trkpt><trkpt lat="45.61017584584436" lon="10.519013812661475"><ele>109.0</ele><time>2026-03-28T14:47:36Z</time></trkpt><trkpt lat="45.610225521608314" lon="10.518798459439466"><ele>108.0</ele><time>2026-03-28T14:47:37Z</time></trkpt><trkpt lat="45.610298349031716" lon="10.518567320405822"><ele>111.33333333333334</ele><time>2026-03-28T14:47:38Z</time></trkpt><trkpt lat="45.61035836058401" lon="10.518299250537824"><ele>114.66666666666667</ele><time>2026-03-28T14:47:39Z</time></trkpt><trkpt lat="45.610421183069974" lon="10.518011101211323"><ele>118.0</ele><time>2026-03-28T14:47:40Z</time></trkpt><trkpt lat="45.61048742345822" lon="10.517709549136343"><ele>119.0</ele><time>2026-03-28T14:47:41Z</time></trkpt><trkpt lat="45.61054203437508" lon="10.517400172525244"><ele>120.0</ele><time>2026-03-28T14:47:42Z</time></trkpt><trkpt lat="45.610621665425235" lon="10.517084380977959"><ele>118.0</ele><time>2026-03-28T14:47:43Z</time></trkpt><trkpt lat="45.61069601519403" lon="10.516768334452518"><ele>116.0</ele><time>2026-03-28T14:47:44Z</time></trkpt><trkpt lat="45.610766809672384" lon="10.516452941180649"><ele>114.66666666666666</ele><time>2026-03-28T14:47:45Z</time></trkpt><trkpt lat="45.61082504129204" lon="10.516151321576016"><ele>113.33333333333334</ele><time>2026-03-28T14:47:46Z</time></trkpt><trkpt lat="45.61088360623212" lon="10.515875047620082"><ele>112.0</ele><time>2026-03-28T14:47:47Z</time></trkpt><trkpt lat="45.61094069857478" lon="10.515613152118114"><ele>111.0</ele><time>2026-03-28T14:47:48Z</time></trkpt><trkpt lat="45.61099185705123" lon="10.515365097249742"><ele>110.0</ele><time>2026-03-28T14:47:49Z</time></trkpt><trkpt lat="45.61104620537183" lon="10.51512291548702"><ele>109.0</ele><time>2026-03-28T14:47:50Z</time></trkpt><trkpt lat="45.61110238737499" lon="10.514896335495056"><ele>109.0</ele><time>2026-03-28T14:47:51Z</time></trkpt><trkpt lat="45.61115106755123" lon="10.514664249593926"><ele>109.0</ele><time>2026-03-28T14:47:52Z</time></trkpt><trkpt lat="45.61119380570912" lon="10.514463284924043"><ele>109.0</ele><time>2026-03-28T14:47:53Z</time></trkpt><trkpt lat="45.61123746503016" lon="10.514265293892088"><ele>110.75</ele><time>2026-03-28T14:47:54Z</time></trkpt><trkpt lat="45.61128315148387" lon="10.514062026405783"><ele>112.5</ele><time>2026-03-28T14:47:55Z</time></trkpt><trkpt lat="45.61132695985398" lon="10.513858387132107"><ele>114.25</ele><time>2026-03-28T14:47:56Z</time></trkpt><trkpt lat="45.61136733420338" lon="10.513672228153908"><ele>116.0</ele><time>2026-03-28T14:47:57Z</time></trkpt><trkpt lat="45.611406554184406" lon="10.513493689936679"><ele>116.0</ele><time>2026-03-28T14:47:58Z</time></trkpt><trkpt lat="45.61144551966613" lon="10.513314795934603"><ele>116.0</ele><time>2026-03-28T14:47:59Z</time></trkpt><trkpt lat="45.61148257296303" lon="10.513147660679282"><ele>116.0</ele><time>2026-03-28T14:48:00Z</time></trkpt><trkpt lat="45.61151733645023" lon="10.512990378500817"><ele>116.0</ele><time>2026-03-28T14:48:01Z</time></trkpt><trkpt lat="45.61155088565238" lon="10.51283386491835"><ele>115.8</ele><time>2026-03-28T14:48:02Z</time></trkpt><trkpt lat="45.61158494673522" lon="10.512684579935959"><ele>115.6</ele><time>2026-03-28T14:48:03Z</time></trkpt><trkpt lat="45.61161949642027" lon="10.512538287828106"><ele>115.4</ele><time>2026-03-28T14:48:04Z</time></trkpt><trkpt lat="45.61165407012046" lon="10.512386694114946"><ele>115.2</ele><time>2026-03-28T14:48:05Z</time></trkpt><trkpt lat="45.61168193809876" lon="10.512256690484179"><ele>115.0</ele><time>2026-03-28T14:48:06Z</time></trkpt><trkpt lat="45.611714553251375" lon="10.512122123093658"><ele>114.4</ele><time>2026-03-28T14:48:07Z</time></trkpt><trkpt lat="45.611744830275406" lon="10.511975564054168"><ele>113.8</ele><time>2026-03-28T14:48:08Z</time></trkpt><trkpt lat="45.61177608570369" lon="10.511822862688287"><ele>113.19999999999999</ele><time>2026-03-28T14:48:09Z</time></trkpt><trkpt lat="45.61180586821904" lon="10.511686004471287"><ele>112.6</ele><time>2026-03-28T14:48:10Z</time></trkpt><trkpt lat="45.611827346797845" lon="10.511580046250662"><ele>112.0</ele><time>2026-03-28T14:48:11Z</time></trkpt><trkpt lat="45.61183913052602" lon="10.511489108033992"><ele>112.0</ele><time>2026-03-28T14:48:12Z</time></trkpt><trkpt lat="45.61185953344196" lon="10.511324526256374"><ele>111.99999999999999</ele><time>2026-03-28T14:48:14Z</time></trkpt><trkpt lat="45.61187536463419" lon="10.51119577075953"><ele>111.99999999999999</ele><time>2026-03-28T14:48:16Z</time></trkpt><trkpt lat="45.61188225141082" lon="10.511090437518389"><ele>112.0</ele><time>2026-03-28T14:48:19Z</time></trkpt><trkpt lat="45.61190566611983" lon="10.510977769959792"><ele>112.0</ele><time>2026-03-28T14:48:21Z</time></trkpt><trkpt lat="45.61191695142247" lon="10.510796635252488"><ele>112.33333333333334</ele><time>2026-03-28T14:48:23Z</time></trkpt><trkpt lat="45.61191657368672" lon="10.510693050728257"><ele>112.66666666666667</ele><time>2026-03-28T14:48:24Z</time></trkpt><trkpt lat="45.61195196482289" lon="10.510574117957738"><ele>113.0</ele><time>2026-03-28T14:48:26Z</time></trkpt><trkpt lat="45.6119970577716" lon="10.510443870209912"><ele>113.33333333333334</ele><time>2026-03-28T14:48:28Z</time></trkpt><trkpt lat="45.61203162921121" lon="10.510312824663083"><ele>113.66666666666667</ele><time>2026-03-28T14:48:30Z</time></trkpt><trkpt lat="45.612036322231155" lon="10.510222414682985"><ele>114.0</ele><time>2026-03-28T14:48:31Z</time></trkpt><trkpt lat="45.61201371913976" lon="10.51012030790857"><ele>113.6</ele><time>2026-03-28T14:48:32Z</time></trkpt><trkpt lat="45.611970099435055" lon="10.510020737570251"><ele>113.2</ele><time>2026-03-28T14:48:33Z</time></trkpt><trkpt lat="45.611897743562984" lon="10.509923761892784"><ele>112.79999999999998</ele><time>2026-03-28T14:48:34Z</time></trkpt><trkpt lat="45.61182550208458" lon="10.50980608008321"><ele>112.39999999999999</ele><time>2026-03-28T14:48:35Z</time></trkpt><trkpt lat="45.61175610916568" lon="10.509642075728074"><ele>112.0</ele><time>2026-03-28T14:48:36Z</time></trkpt><trkpt lat="45.61170154491004" lon="10.509455663916444"><ele>113.66666666666667</ele><time>2026-03-28T14:48:37Z</time></trkpt><trkpt lat="45.61163221930549" lon="10.509233810525943"><ele>115.33333333333334</ele><time>2026-03-28T14:48:38Z</time></trkpt><trkpt lat="45.61155068119837" lon="10.509006566894856"><ele>117.0</ele><time>2026-03-28T14:48:39Z</time></trkpt><trkpt lat="45.6114626066215" lon="10.508760065430002"><ele>119.0</ele><time>2026-03-28T14:48:40Z</time></trkpt><trkpt lat="45.61136039367668" lon="10.508506503553189"><ele>121.0</ele><time>2026-03-28T14:48:41Z</time></trkpt><trkpt lat="45.61125280617845" lon="10.50825816987393"><ele>123.0</ele><time>2026-03-28T14:48:42Z</time></trkpt><trkpt lat="45.611139030829506" lon="10.507994260058453"><ele>119.66666666666666</ele><time>2026-03-28T14:48:43Z</time></trkpt><trkpt lat="45.61103590479052" lon="10.507742392099974"><ele>116.33333333333333</ele><time>2026-03-28T14:48:44Z</time></trkpt><trkpt lat="45.61094893613264" lon="10.50751923166381"><ele>113.0</ele><time>2026-03-28T14:48:45Z</time></trkpt><trkpt lat="45.610866518382316" lon="10.507320589355977"><ele>113.0</ele><time>2026-03-28T14:48:46Z</time></trkpt><trkpt lat="45.61078994717702" lon="10.507134961979125"><ele>113.0</ele><time>2026-03-28T14:48:47Z</time></trkpt><trkpt lat="45.610715176337614" lon="10.50696957691725"><ele>113.0</ele><time>2026-03-28T14:48:48Z</time></trkpt><trkpt lat="45.61064373163046" lon="10.506802728414266"><ele>113.0</ele><time>2026-03-28T14:48:49Z</time></trkpt><trkpt lat="45.61057926802381" lon="10.506624220217109"><ele>116.5</ele><time>2026-03-28T14:48:50Z</time></trkpt><trkpt lat="45.61052883786378" lon="10.50644870548371"><ele>120.0</ele><time>2026-03-28T14:48:51Z</time></trkpt><trkpt lat="45.61048430400844" lon="10.506282544999692"><ele>123.5</ele><time>2026-03-28T14:48:52Z</time></trkpt><trkpt lat="45.610455820991334" lon="10.506128277727003"><ele>127.0</ele><time>2026-03-28T14:48:53Z</time></trkpt><trkpt lat="45.61043647149116" lon="10.505962647818155"><ele>130.0</ele><time>2026-03-28T14:48:54Z</time></trkpt><trkpt lat="45.61042092048809" lon="10.50578964105907"><ele>133.0</ele><time>2026-03-28T14:48:55Z</time></trkpt><trkpt lat="45.6104167101519" lon="10.505610721379878"><ele>136.0</ele><time>2026-03-28T14:48:56Z</time></trkpt><trkpt lat="45.61041231812254" lon="10.505434863294408"><ele>139.0</ele><time>2026-03-28T14:48:57Z</time></trkpt><trkpt lat="45.61041813374989" lon="10.505232643973551"><ele>139.5</ele><time>2026-03-28T14:48:58Z</time></trkpt><trkpt lat="45.61045399056879" lon="10.505049861933577"><ele>140.0</ele><time>2026-03-28T14:48:59Z</time></trkpt><trkpt lat="45.61047522948252" lon="10.50488846387891"><ele>140.5</ele><time>2026-03-28T14:49:00Z</time></trkpt><trkpt lat="45.61048699165938" lon="10.504727315975591"><ele>141.0</ele><time>2026-03-28T14:49:01Z</time></trkpt><trkpt lat="45.61051317865134" lon="10.504565441728191"><ele>137.75</ele><time>2026-03-28T14:49:02Z</time></trkpt><trkpt lat="45.6105322599121" lon="10.504396021898645"><ele>134.5</ele><time>2026-03-28T14:49:03Z</time></trkpt><trkpt lat="45.61055995176901" lon="10.504224833050847"><ele>131.25</ele><time>2026-03-28T14:49:04Z</time></trkpt><trkpt lat="45.61058427163145" lon="10.504050208057215"><ele>128.0</ele><time>2026-03-28T14:49:05Z</time></trkpt><trkpt lat="45.610607565342065" lon="10.503889311170807"><ele>125.25</ele><time>2026-03-28T14:49:06Z</time></trkpt><trkpt lat="45.610631388166595" lon="10.503726792135614"><ele>122.5</ele><time>2026-03-28T14:49:07Z</time></trkpt><trkpt lat="45.61065204664779" lon="10.50356037312727"><ele>119.75</ele><time>2026-03-28T14:49:08Z</time></trkpt><trkpt lat="45.6106729193347" lon="10.503398010258948"><ele>117.0</ele><time>2026-03-28T14:49:09Z</time></trkpt><trkpt lat="45.61069612612562" lon="10.503204884539157"><ele>117.0</ele><time>2026-03-28T14:49:10Z</time></trkpt><trkpt lat="45.610737925547085" lon="10.50296721217538"><ele>117.0</ele><time>2026-03-28T14:49:11Z</time></trkpt><trkpt lat="45.61075795943818" lon="10.502714658208154"><ele>117.0</ele><time>2026-03-28T14:49:12Z</time></trkpt><trkpt lat="45.61080061469979" lon="10.502469808987275"><ele>119.66666666666666</ele><time>2026-03-28T14:49:13Z</time></trkpt><trkpt lat="45.61082415559959" lon="10.502230272652042"><ele>122.33333333333333</ele><time>2026-03-28T14:49:14Z</time></trkpt><trkpt lat="45.610815100835964" lon="10.501995486775678"><ele>125.0</ele><time>2026-03-28T14:49:15Z</time></trkpt><trkpt lat="45.61079149167786" lon="10.501785811755493"><ele>127.2</ele><time>2026-03-28T14:49:16Z</time></trkpt><trkpt lat="45.61075976656371" lon="10.501604939352516"><ele>129.4</ele><time>2026-03-28T14:49:17Z</time></trkpt><trkpt lat="45.61073871717797" lon="10.501456761161721"><ele>131.6</ele><time>2026-03-28T14:49:18Z</time></trkpt><trkpt lat="45.61072599223617" lon="10.501333917541439"><ele>133.8</ele><time>2026-03-28T14:49:19Z</time></trkpt><trkpt lat="45.610720958855495" lon="10.501231296513646"><ele>136.0</ele><time>2026-03-28T14:49:20Z</time></trkpt><trkpt lat="45.61072541700318" lon="10.501137009563763"><ele>136.66666666666669</ele><time>2026-03-28T14:49:21Z</time></trkpt><trkpt lat="45.610736644199626" lon="10.501041360243953"><ele>137.33333333333334</ele><time>2026-03-28T14:49:22Z</time></trkpt><trkpt lat="45.610755747871494" lon="10.50092157363055"><ele>138.0</ele><time>2026-03-28T14:49:23Z</time></trkpt><trkpt lat="45.610764912928325" lon="10.500807396944072"><ele>138.66666666666666</ele><time>2026-03-28T14:49:24Z</time></trkpt><trkpt lat="45.61075659972623" lon="10.500708145819043"><ele>139.33333333333331</ele><time>2026-03-28T14:49:25Z</time></trkpt><trkpt lat="45.61072647224722" lon="10.500611763244253"><ele>140.0</ele><time>2026-03-28T14:49:26Z</time></trkpt><trkpt lat="45.6106742681578" lon="10.5005233645423"><ele>140.0</ele><time>2026-03-28T14:49:27Z</time></trkpt><trkpt lat="45.610607781560155" lon="10.500468481372522"><ele>140.0</ele><time>2026-03-28T14:49:28Z</time></trkpt><trkpt lat="45.610543101607256" lon="10.500457841002685"><ele>140.0</ele><time>2026-03-28T14:49:29Z</time></trkpt><trkpt lat="45.610478700725835" lon="10.50048327823947"><ele>140.0</ele><time>2026-03-28T14:49:30Z</time></trkpt><trkpt lat="45.61042120964366" lon="10.50054573676003"><ele>140.0</ele><time>2026-03-28T14:49:31Z</time></trkpt><trkpt lat="45.61037668169599" lon="10.500636907433975"><ele>140.0</ele><time>2026-03-28T14:49:32Z</time></trkpt><trkpt lat="45.610329337796585" lon="10.500744540210661"><ele>140.0</ele><time>2026-03-28T14:49:33Z</time></trkpt><trkpt lat="45.61026486037388" lon="10.500830850541043"><ele>138.6</ele><time>2026-03-28T14:49:34Z</time></trkpt><trkpt lat="45.610180336579155" lon="10.500881208725424"><ele>137.2</ele><time>2026-03-28T14:49:35Z</time></trkpt><trkpt lat="45.61008495949293" lon="10.500901563895694"><ele>135.8</ele><time>2026-03-28T14:49:36Z</time></trkpt><trkpt lat="45.609982802452045" lon="10.50086010253699"><ele>134.4</ele><time>2026-03-28T14:49:37Z</time></trkpt><trkpt lat="45.60986416229306" lon="10.500844708393544"><ele>133.0</ele><time>2026-03-28T14:49:38Z</time></trkpt><trkpt lat="45.60973646660936" lon="10.500797814883823"><ele>133.0</ele><time>2026-03-28T14:49:39Z</time></trkpt><trkpt lat="45.609576254682075" lon="10.500746964112235"><ele>133.0</ele><time>2026-03-28T14:49:40Z</time></trkpt><trkpt lat="45.609408273960895" lon="10.500650217171538"><ele>133.0</ele><time>2026-03-28T14:49:41Z</time></trkpt><trkpt lat="45.60921881767711" lon="10.50056675423029"><ele>130.66666666666669</ele><time>2026-03-28T14:49:42Z</time></trkpt><trkpt lat="45.609021471001846" lon="10.500487172223746"><ele>128.33333333333334</ele><time>2026-03-28T14:49:43Z</time></trkpt><trkpt lat="45.60882452501655" lon="10.500447247051376"><ele>126.0</ele><time>2026-03-28T14:49:44Z</time></trkpt><trkpt lat="45.60862932822699" lon="10.50042064842783"><ele>126.0</ele><time>2026-03-28T14:49:45Z</time></trkpt><trkpt lat="45.6084312460986" lon="10.500424600416705"><ele>126.0</ele><time>2026-03-28T14:49:46Z</time></trkpt><trkpt lat="45.608244331867596" lon="10.500459368509295"><ele>126.0</ele><time>2026-03-28T14:49:47Z</time></trkpt><trkpt lat="45.60807177446345" lon="10.500510525360706"><ele>126.0</ele><time>2026-03-28T14:49:48Z</time></trkpt><trkpt lat="45.60788886667274" lon="10.500581645600723"><ele>126.0</ele><time>2026-03-28T14:49:49Z</time></trkpt><trkpt lat="45.60771846232023" lon="10.500659967306667"><ele>126.0</ele><time>2026-03-28T14:49:50Z</time></trkpt><trkpt lat="45.60755712710485" lon="10.500740974357491"><ele>129.33333333333334</ele><time>2026-03-28T14:49:51Z</time></trkpt><trkpt lat="45.60739215315684" lon="10.500820619866742"><ele>132.66666666666669</ele><time>2026-03-28T14:49:52.014Z</time></trkpt><trkpt lat="45.607229179592984" lon="10.500897153250952"><ele>136.0</ele><time>2026-03-28T14:49:53.014Z</time></trkpt><trkpt lat="45.607087611722534" lon="10.501002800694964"><ele>137.0</ele><time>2026-03-28T14:49:54.015Z</time></trkpt><trkpt lat="45.60695606094377" lon="10.501133713459957"><ele>138.0</ele><time>2026-03-28T14:49:55.014Z</time></trkpt><trkpt lat="45.606321645943076" lon="10.502946451316124"><ele>131.5</ele><time>2026-03-28T14:50:04Z</time></trkpt><trkpt lat="45.60629424629038" lon="10.503142701518158"><ele>125.0</ele><time>2026-03-28T14:50:05Z</time></trkpt><trkpt lat="45.60630635216799" lon="10.50328441660466"><ele>118.5</ele><time>2026-03-28T14:50:06Z</time></trkpt><trkpt lat="45.60636886739407" lon="10.503439372699424"><ele>112.0</ele><time>2026-03-28T14:50:07Z</time></trkpt><trkpt lat="45.60640427133781" lon="10.503578052861638"><ele>112.00000000000001</ele><time>2026-03-28T14:50:08Z</time></trkpt><trkpt lat="45.60644485743391" lon="10.50371866009835"><ele>112.0</ele><time>2026-03-28T14:50:09Z</time></trkpt><trkpt lat="45.60648661192058" lon="10.503817804292417"><ele>112.0</ele><time>2026-03-28T14:50:10Z</time></trkpt><trkpt lat="45.60652135183031" lon="10.503936228636551"><ele>112.0</ele><time>2026-03-28T14:50:11Z</time></trkpt><trkpt lat="45.60654599536706" lon="10.504028516189027"><ele>112.00000000000001</ele><time>2026-03-28T14:50:12Z</time></trkpt><trkpt lat="45.60655644619313" lon="10.504124043068483"><ele>112.0</ele><time>2026-03-28T14:50:13Z</time></trkpt><trkpt lat="45.60654446516352" lon="10.504232004099839"><ele>110.8</ele><time>2026-03-28T14:50:14Z</time></trkpt><trkpt lat="45.60651664891451" lon="10.50433942264297"><ele>109.6</ele><time>2026-03-28T14:50:15Z</time></trkpt><trkpt lat="45.60648109766127" lon="10.504464794516949"><ele>108.39999999999999</ele><time>2026-03-28T14:50:16Z</time></trkpt><trkpt lat="45.60643113874802" lon="10.504580039666232"><ele>107.19999999999999</ele><time>2026-03-28T14:50:17Z</time></trkpt><trkpt lat="45.606359502041144" lon="10.504682651543511"><ele>106.0</ele><time>2026-03-28T14:50:18Z</time></trkpt><trkpt lat="45.60627094300172" lon="10.504784720758893"><ele>105.5</ele><time>2026-03-28T14:50:19Z</time></trkpt><trkpt lat="45.60617075212264" lon="10.50487402374316"><ele>105.0</ele><time>2026-03-28T14:50:20Z</time></trkpt><trkpt lat="45.60607216850133" lon="10.504947626095293"><ele>104.5</ele><time>2026-03-28T14:50:21Z</time></trkpt><trkpt lat="45.60594634487891" lon="10.50500153756693"><ele>104.0</ele><time>2026-03-28T14:50:22Z</time></trkpt><trkpt lat="45.60580390226593" lon="10.505086660146933"><ele>104.0</ele><time>2026-03-28T14:50:23Z</time></trkpt><trkpt lat="45.60565294952827" lon="10.505208122122118"><ele>104.0</ele><time>2026-03-28T14:50:24Z</time></trkpt><trkpt lat="45.605489127498984" lon="10.505282405953851"><ele>104.0</ele><time>2026-03-28T14:50:25Z</time></trkpt><trkpt lat="45.60532393607549" lon="10.505378969829069"><ele>105.66666666666666</ele><time>2026-03-28T14:50:26Z</time></trkpt><trkpt lat="45.60514622594278" lon="10.505478425670058"><ele>107.33333333333334</ele><time>2026-03-28T14:50:27Z</time></trkpt><trkpt lat="45.60496730228536" lon="10.505584495612501"><ele>109.0</ele><time>2026-03-28T14:50:28Z</time></trkpt><trkpt lat="45.60478526761921" lon="10.505690307980817"><ele>109.0</ele><time>2026-03-28T14:50:29Z</time></trkpt><trkpt lat="45.6046149975972" lon="10.505796995357864"><ele>109.0</ele><time>2026-03-28T14:50:30Z</time></trkpt><trkpt lat="45.60443494878695" lon="10.505910952745241"><ele>109.0</ele><time>2026-03-28T14:50:31Z</time></trkpt><trkpt lat="45.60425045460329" lon="10.506026973039535"><ele>108.33333333333334</ele><time>2026-03-28T14:50:32Z</time></trkpt><trkpt lat="45.60407137821929" lon="10.506138197677954"><ele>107.66666666666666</ele><time>2026-03-28T14:50:33Z</time></trkpt><trkpt lat="45.603877159752294" lon="10.506263755124474"><ele>107.0</ele><time>2026-03-28T14:50:34Z</time></trkpt><trkpt lat="45.603683283569744" lon="10.506382039431303"><ele>108.0</ele><time>2026-03-28T14:50:35Z</time></trkpt><trkpt lat="45.60349105784716" lon="10.50649147262448"><ele>109.0</ele><time>2026-03-28T14:50:36Z</time></trkpt><trkpt lat="45.60329559210739" lon="10.506601607265534"><ele>110.0</ele><time>2026-03-28T14:50:37Z</time></trkpt><trkpt lat="45.60310222805054" lon="10.50671460504055"><ele>110.0</ele><time>2026-03-28T14:50:38Z</time></trkpt><trkpt lat="45.6029028572503" lon="10.506842939377492"><ele>110.0</ele><time>2026-03-28T14:50:39Z</time></trkpt><trkpt lat="45.60271111460057" lon="10.506955975818604"><ele>110.0</ele><time>2026-03-28T14:50:40Z</time></trkpt><trkpt lat="45.60251322584696" lon="10.507085419076668"><ele>111.33333333333333</ele><time>2026-03-28T14:50:41Z</time></trkpt><trkpt lat="45.60232394696854" lon="10.507223125337303"><ele>112.66666666666666</ele><time>2026-03-28T14:50:42Z</time></trkpt><trkpt lat="45.60213648762138" lon="10.507370757693266"><ele>114.0</ele><time>2026-03-28T14:50:43Z</time></trkpt><trkpt lat="45.60195057306451" lon="10.507522742047003"><ele>116.0</ele><time>2026-03-28T14:50:44Z</time></trkpt><trkpt lat="45.601767128492504" lon="10.50766497346767"><ele>118.0</ele><time>2026-03-28T14:50:45Z</time></trkpt><trkpt lat="45.60159397114693" lon="10.507789191157118"><ele>120.0</ele><time>2026-03-28T14:50:46Z</time></trkpt><trkpt lat="45.60143325336001" lon="10.50789891034236"><ele>117.66666666666666</ele><time>2026-03-28T14:50:47Z</time></trkpt><trkpt lat="45.60126583341973" lon="10.50799674351858"><ele>115.33333333333333</ele><time>2026-03-28T14:50:48Z</time></trkpt><trkpt lat="45.60109215301777" lon="10.50805398605824"><ele>113.0</ele><time>2026-03-28T14:50:49Z</time></trkpt><trkpt lat="45.60092129510062" lon="10.508042762899557"><ele>113.0</ele><time>2026-03-28T14:50:50Z</time></trkpt><trkpt lat="45.60074700039865" lon="10.508030772170356"><ele>113.0</ele><time>2026-03-28T14:50:51Z</time></trkpt><trkpt lat="45.60058171146265" lon="10.507985344624657"><ele>113.0</ele><time>2026-03-28T14:50:52Z</time></trkpt><trkpt lat="45.60040869261097" lon="10.507902739853343"><ele>116.33333333333333</ele><time>2026-03-28T14:50:53Z</time></trkpt><trkpt lat="45.60022264266657" lon="10.50781635065977"><ele>119.66666666666666</ele><time>2026-03-28T14:50:54Z</time></trkpt><trkpt lat="45.600058061078855" lon="10.507706361284084"><ele>123.0</ele><time>2026-03-28T14:50:55Z</time></trkpt><trkpt lat="45.59988436347428" lon="10.507600898250336"><ele>123.0</ele><time>2026-03-28T14:50:56Z</time></trkpt><trkpt lat="45.59972868133421" lon="10.507527507470162"><ele>123.0</ele><time>2026-03-28T14:50:57Z</time></trkpt><trkpt lat="45.59955343480893" lon="10.507492726989204"><ele>123.0</ele><time>2026-03-28T14:50:58Z</time></trkpt><trkpt lat="45.59937433245573" lon="10.507496571806639"><ele>124.66666666666666</ele><time>2026-03-28T14:50:59Z</time></trkpt><trkpt lat="45.59919350967989" lon="10.507545919835307"><ele>126.33333333333333</ele><time>2026-03-28T14:51:00Z</time></trkpt><trkpt lat="45.59902398851357" lon="10.507611168484283"><ele>128.0</ele><time>2026-03-28T14:51:01Z</time></trkpt><trkpt lat="45.59887330675127" lon="10.507671809430596"><ele>128.0</ele><time>2026-03-28T14:51:02Z</time></trkpt><trkpt lat="45.598736875470294" lon="10.507726134332149"><ele>128.0</ele><time>2026-03-28T14:51:03Z</time></trkpt><trkpt lat="45.59859957966571" lon="10.507773024841368"><ele>128.0</ele><time>2026-03-28T14:51:04Z</time></trkpt><trkpt lat="45.59846653862735" lon="10.507820815968477"><ele>128.0</ele><time>2026-03-28T14:51:05Z</time></trkpt><trkpt lat="45.59832233286416" lon="10.507849978187735"><ele>129.0</ele><time>2026-03-28T14:51:06Z</time></trkpt><trkpt lat="45.59816183806471" lon="10.507904646300254"><ele>130.0</ele><time>2026-03-28T14:51:07Z</time></trkpt><trkpt lat="45.597977845947625" lon="10.50796711379688"><ele>131.0</ele><time>2026-03-28T14:51:08Z</time></trkpt><trkpt lat="45.59778913344505" lon="10.508034412184749"><ele>128.66666666666666</ele><time>2026-03-28T14:51:09Z</time></trkpt><trkpt lat="45.59760640554347" lon="10.508116243391576"><ele>126.33333333333334</ele><time>2026-03-28T14:51:10Z</time></trkpt><trkpt lat="45.59744763365805" lon="10.508165286565355"><ele>124.0</ele><time>2026-03-28T14:51:11Z</time></trkpt><trkpt lat="45.59728484249067" lon="10.508211429924343"><ele>124.0</ele><time>2026-03-28T14:51:12Z</time></trkpt><trkpt lat="45.597146405069196" lon="10.508249976830628"><ele>124.0</ele><time>2026-03-28T14:51:13Z</time></trkpt><trkpt lat="45.597005560050384" lon="10.508291657339875"><ele>124.0</ele><time>2026-03-28T14:51:14Z</time></trkpt><trkpt lat="45.59686662553242" lon="10.508334431997664"><ele>124.0</ele><time>2026-03-28T14:51:15Z</time></trkpt><trkpt lat="45.59673619971286" lon="10.508380987934608"><ele>124.25</ele><time>2026-03-28T14:51:16Z</time></trkpt><trkpt lat="45.59660185353477" lon="10.508427611023967"><ele>124.5</ele><time>2026-03-28T14:51:17Z</time></trkpt><trkpt lat="45.59647758408627" lon="10.508474046717554"><ele>124.75</ele><time>2026-03-28T14:51:18Z</time></trkpt><trkpt lat="45.59634945291149" lon="10.508517757036188"><ele>125.0</ele><time>2026-03-28T14:51:19Z</time></trkpt><trkpt lat="45.59623250597222" lon="10.508575020358085"><ele>126.5</ele><time>2026-03-28T14:51:20Z</time></trkpt><trkpt lat="45.59611349574495" lon="10.508651627401365"><ele>128.0</ele><time>2026-03-28T14:51:21Z</time></trkpt><trkpt lat="45.59600294704269" lon="10.50875365591916"><ele>129.5</ele><time>2026-03-28T14:51:22Z</time></trkpt><trkpt lat="45.595906376268694" lon="10.508875113063102"><ele>131.0</ele><time>2026-03-28T14:51:23Z</time></trkpt><trkpt lat="45.59581556037111" lon="10.509005419846492"><ele>131.0</ele><time>2026-03-28T14:51:24Z</time></trkpt><trkpt lat="45.59574250044451" lon="10.509140108514961"><ele>131.0</ele><time>2026-03-28T14:51:25Z</time></trkpt><trkpt lat="45.59568024162276" lon="10.509278545965264"><ele>131.0</ele><time>2026-03-28T14:51:26Z</time></trkpt><trkpt lat="45.59562180854152" lon="10.509420743078083"><ele>131.0</ele><time>2026-03-28T14:51:27Z</time></trkpt><trkpt lat="45.59556289586306" lon="10.509568486822689"><ele>129.75</ele><time>2026-03-28T14:51:28Z</time></trkpt><trkpt lat="45.59550067119616" lon="10.509733530780306"><ele>128.5</ele><time>2026-03-28T14:51:29Z</time></trkpt><trkpt lat="45.59543741567601" lon="10.509888991578405"><ele>127.25</ele><time>2026-03-28T14:51:30Z</time></trkpt><trkpt lat="45.59538274733826" lon="10.510030566061406"><ele>126.0</ele><time>2026-03-28T14:51:31Z</time></trkpt><trkpt lat="45.595335533880004" lon="10.510162540987375"><ele>128.33333333333334</ele><time>2026-03-28T14:51:32Z</time></trkpt><trkpt lat="45.595250044432326" lon="10.51031997041369"><ele>130.66666666666669</ele><time>2026-03-28T14:51:33Z</time></trkpt><trkpt lat="45.59515119680786" lon="10.510530351081945"><ele>133.0</ele><time>2026-03-28T14:51:34Z</time></trkpt><trkpt lat="45.59503184002677" lon="10.51073244293342"><ele>133.0</ele><time>2026-03-28T14:51:35Z</time></trkpt><trkpt lat="45.59489590995892" lon="10.510902515200353"><ele>133.0</ele><time>2026-03-28T14:51:36Z</time></trkpt><trkpt lat="45.59475363217285" lon="10.511054373191168"><ele>133.0</ele><time>2026-03-28T14:51:37Z</time></trkpt><trkpt lat="45.594586657036665" lon="10.511145903162204"><ele>133.33333333333334</ele><time>2026-03-28T14:51:38Z</time></trkpt><trkpt lat="45.59442925732877" lon="10.511260203285085"><ele>133.66666666666666</ele><time>2026-03-28T14:51:39Z</time></trkpt><trkpt lat="45.59426206408336" lon="10.511349455383389"><ele>134.0</ele><time>2026-03-28T14:51:40Z</time></trkpt><trkpt lat="45.59408695628582" lon="10.51144532342686"><ele>134.0</ele><time>2026-03-28T14:51:41Z</time></trkpt><trkpt lat="45.593901481846984" lon="10.511544577892439"><ele>134.0</ele><time>2026-03-28T14:51:42Z</time></trkpt><trkpt lat="45.5937414928193" lon="10.51162860664823"><ele>134.0</ele><time>2026-03-28T14:51:43Z</time></trkpt><trkpt lat="45.59358701078932" lon="10.511723851692842"><ele>134.33333333333331</ele><time>2026-03-28T14:51:44Z</time></trkpt><trkpt lat="45.593452232496354" lon="10.511836183991909"><ele>134.66666666666666</ele><time>2026-03-28T14:51:45Z</time></trkpt><trkpt lat="45.59332367641831" lon="10.511984761429296"><ele>135.0</ele><time>2026-03-28T14:51:46Z</time></trkpt><trkpt lat="45.593220221891634" lon="10.512163101438922"><ele>135.0</ele><time>2026-03-28T14:51:47Z</time></trkpt><trkpt lat="45.59314476906841" lon="10.512363023674094"><ele>135.0</ele><time>2026-03-28T14:51:48Z</time></trkpt><trkpt lat="45.59309518237144" lon="10.512580521431941"><ele>135.0</ele><time>2026-03-28T14:51:49Z</time></trkpt><trkpt lat="45.59307769209012" lon="10.512821568194685"><ele>135.66666666666666</ele><time>2026-03-28T14:51:50Z</time></trkpt><trkpt lat="45.593085719868746" lon="10.513080712103083"><ele>136.33333333333331</ele><time>2026-03-28T14:51:51Z</time></trkpt><trkpt lat="45.59312481064373" lon="10.513337794282407"><ele>137.0</ele><time>2026-03-28T14:51:52Z</time></trkpt><trkpt lat="45.593185583186006" lon="10.513598694706813"><ele>139.33333333333331</ele><time>2026-03-28T14:51:53Z</time></trkpt><trkpt lat="45.59325389507172" lon="10.513873220403019"><ele>141.66666666666666</ele><time>2026-03-28T14:51:54Z</time></trkpt><trkpt lat="45.59331441684639" lon="10.514148191476174"><ele>144.0</ele><time>2026-03-28T14:51:55Z</time></trkpt><trkpt lat="45.59336905936465" lon="10.514440952859717"><ele>146.0</ele><time>2026-03-28T14:51:56Z</time></trkpt><trkpt lat="45.593429815754995" lon="10.514735132194813"><ele>148.0</ele><time>2026-03-28T14:51:57Z</time></trkpt><trkpt lat="45.59349326061131" lon="10.515027383968388"><ele>150.0</ele><time>2026-03-28T14:51:58Z</time></trkpt><trkpt lat="45.59354878828136" lon="10.51531108172749"><ele>151.33333333333334</ele><time>2026-03-28T14:51:59Z</time></trkpt><trkpt lat="45.59358683537472" lon="10.515581264705345"><ele>152.66666666666669</ele><time>2026-03-28T14:52:00Z</time></trkpt><trkpt lat="45.59360382725186" lon="10.515849890955389"><ele>154.0</ele><time>2026-03-28T14:52:01Z</time></trkpt><trkpt lat="45.593596173788384" lon="10.516130302372469"><ele>152.66666666666669</ele><time>2026-03-28T14:52:02Z</time></trkpt><trkpt lat="45.593549502934025" lon="10.516398352575328"><ele>151.33333333333334</ele><time>2026-03-28T14:52:03Z</time></trkpt><trkpt lat="45.59351188981742" lon="10.51667624192128"><ele>150.0</ele><time>2026-03-28T14:52:04Z</time></trkpt><trkpt lat="45.593448973831514" lon="10.516956518044042"><ele>148.33333333333334</ele><time>2026-03-28T14:52:05Z</time></trkpt><trkpt lat="45.59338734951686" lon="10.517242522909948"><ele>146.66666666666669</ele><time>2026-03-28T14:52:06Z</time></trkpt><trkpt lat="45.59333090205758" lon="10.517527883726425"><ele>145.0</ele><time>2026-03-28T14:52:07Z</time></trkpt><trkpt lat="45.593275582394604" lon="10.517821359833958"><ele>144.66666666666669</ele><time>2026-03-28T14:52:08Z</time></trkpt><trkpt lat="45.59322542819883" lon="10.518118146605344"><ele>144.33333333333334</ele><time>2026-03-28T14:52:09Z</time></trkpt><trkpt lat="45.59317347021823" lon="10.5184045347233"><ele>144.0</ele><time>2026-03-28T14:52:10Z</time></trkpt><trkpt lat="45.59311721342768" lon="10.518703362456638"><ele>144.66666666666666</ele><time>2026-03-28T14:52:11Z</time></trkpt><trkpt lat="45.59306335401332" lon="10.518992653207249"><ele>145.33333333333331</ele><time>2026-03-28T14:52:12Z</time></trkpt><trkpt lat="45.59301207493145" lon="10.519284767276602"><ele>146.0</ele><time>2026-03-28T14:52:13Z</time></trkpt><trkpt lat="45.59295869853546" lon="10.519557397326357"><ele>147.0</ele><time>2026-03-28T14:52:14Z</time></trkpt><trkpt lat="45.592902886519944" lon="10.519817480238999"><ele>148.0</ele><time>2026-03-28T14:52:15Z</time></trkpt><trkpt lat="45.592833788129276" lon="10.520078515455696"><ele>149.0</ele><time>2026-03-28T14:52:16Z</time></trkpt><trkpt lat="45.59274991515498" lon="10.520319597435957"><ele>152.33333333333331</ele><time>2026-03-28T14:52:17Z</time></trkpt><trkpt lat="45.592658400214376" lon="10.520541057007456"><ele>155.66666666666666</ele><time>2026-03-28T14:52:18Z</time></trkpt><trkpt lat="45.59255033827746" lon="10.520763600925818"><ele>159.0</ele><time>2026-03-28T14:52:19Z</time></trkpt><trkpt lat="45.59243996382752" lon="10.520958210988773"><ele>159.0</ele><time>2026-03-28T14:52:20Z</time></trkpt><trkpt lat="45.59231475302299" lon="10.521172077460493"><ele>159.0</ele><time>2026-03-28T14:52:21Z</time></trkpt><trkpt lat="45.59220939705243" lon="10.521370062302505"><ele>159.0</ele><time>2026-03-28T14:52:22Z</time></trkpt><trkpt lat="45.59210385286115" lon="10.521595243184576"><ele>158.66666666666666</ele><time>2026-03-28T14:52:23Z</time></trkpt><trkpt lat="45.59199535699054" lon="10.521811114550239"><ele>158.33333333333331</ele><time>2026-03-28T14:52:24Z</time></trkpt><trkpt lat="45.5918966669136" lon="10.521995603591865"><ele>158.0</ele><time>2026-03-28T14:52:25Z</time></trkpt><trkpt lat="45.59179619455617" lon="10.522179806796357"><ele>158.0</ele><time>2026-03-28T14:52:26Z</time></trkpt><trkpt lat="45.59169535238828" lon="10.522344484436955"><ele>158.0</ele><time>2026-03-28T14:52:27Z</time></trkpt><trkpt lat="45.59159162455515" lon="10.52248120019804"><ele>158.0</ele><time>2026-03-28T14:52:28Z</time></trkpt><trkpt lat="45.591500457630225" lon="10.52257833980211"><ele>158.0</ele><time>2026-03-28T14:52:29Z</time></trkpt><trkpt lat="45.59142821192032" lon="10.522633132973155"><ele>158.0</ele><time>2026-03-28T14:52:30Z</time></trkpt><trkpt lat="45.59135780912659" lon="10.522662917440396"><ele>158.0</ele><time>2026-03-28T14:52:31Z</time></trkpt><trkpt lat="45.59127038628879" lon="10.522673193505012"><ele>158.0</ele><time>2026-03-28T14:52:32Z</time></trkpt><trkpt lat="45.59116877314312" lon="10.52269190636998"><ele>158.0</ele><time>2026-03-28T14:52:33Z</time></trkpt><trkpt lat="45.591065040162306" lon="10.522757037126244"><ele>158.0</ele><time>2026-03-28T14:52:34Z</time></trkpt><trkpt lat="45.59097391104686" lon="10.522864325208355"><ele>157.75</ele><time>2026-03-28T14:52:35Z</time></trkpt><trkpt lat="45.59082519349693" lon="10.523008679656176"><ele>157.5</ele><time>2026-03-28T14:52:37Z</time></trkpt><trkpt lat="45.590738995384626" lon="10.523002078279243"><ele>157.25</ele><time>2026-03-28T14:52:38Z</time></trkpt><trkpt lat="45.5906366414422" lon="10.52296185256602"><ele>157.0</ele><time>2026-03-28T14:52:39Z</time></trkpt><trkpt lat="45.59052839178273" lon="10.522864117074628"><ele>157.0</ele><time>2026-03-28T14:52:40Z</time></trkpt><trkpt lat="45.59040449648686" lon="10.522761348198232"><ele>157.0</ele><time>2026-03-28T14:52:41Z</time></trkpt><trkpt lat="45.59026542837756" lon="10.522652269307587"><ele>157.0</ele><time>2026-03-28T14:52:42Z</time></trkpt><trkpt lat="45.590116190411855" lon="10.522544872489316"><ele>157.33333333333334</ele><time>2026-03-28T14:52:43Z</time></trkpt><trkpt lat="45.58995886026621" lon="10.522430595604828"><ele>157.66666666666666</ele><time>2026-03-28T14:52:44Z</time></trkpt><trkpt lat="45.58979249552542" lon="10.522307664580413"><ele>158.0</ele><time>2026-03-28T14:52:45Z</time></trkpt><trkpt lat="45.5896177745608" lon="10.522173855878455"><ele>156.33333333333331</ele><time>2026-03-28T14:52:46Z</time></trkpt><trkpt lat="45.589454415055414" lon="10.52204949130926"><ele>154.66666666666666</ele><time>2026-03-28T14:52:47Z</time></trkpt><trkpt lat="45.58929016010935" lon="10.521924038039161"><ele>153.0</ele><time>2026-03-28T14:52:48Z</time></trkpt><trkpt lat="45.58914546560457" lon="10.521814264434443"><ele>153.0</ele><time>2026-03-28T14:52:49Z</time></trkpt><trkpt lat="45.589003163560875" lon="10.521701316500469"><ele>153.0</ele><time>2026-03-28T14:52:50Z</time></trkpt><trkpt lat="45.58887850613315" lon="10.521606866229838"><ele>153.0</ele><time>2026-03-28T14:52:51Z</time></trkpt><trkpt lat="45.588749487240285" lon="10.521507453551818"><ele>153.0</ele><time>2026-03-28T14:52:52Z</time></trkpt><trkpt lat="45.58862188305509" lon="10.521404732656"><ele>153.0</ele><time>2026-03-28T14:52:53Z</time></trkpt><trkpt lat="45.588504356490596" lon="10.521310134946843"><ele>153.0</ele><time>2026-03-28T14:52:54Z</time></trkpt><trkpt lat="45.58838334177066" lon="10.521220502651643"><ele>153.0</ele><time>2026-03-28T14:52:55Z</time></trkpt><trkpt lat="45.58826910374466" lon="10.521137359232023"><ele>153.0</ele><time>2026-03-28T14:52:56Z</time></trkpt><trkpt lat="45.588157429115356" lon="10.521048512746866"><ele>153.0</ele><time>2026-03-28T14:52:57Z</time></trkpt><trkpt lat="45.588047330615076" lon="10.520958297960725"><ele>153.0</ele><time>2026-03-28T14:52:58Z</time></trkpt><trkpt lat="45.587940390638806" lon="10.520853546298657"><ele>153.0</ele><time>2026-03-28T14:52:59Z</time></trkpt><trkpt lat="45.58784667173162" lon="10.520715046913486"><ele>152.75</ele><time>2026-03-28T14:53:00Z</time></trkpt><trkpt lat="45.587762352833984" lon="10.520591370600377"><ele>152.5</ele><time>2026-03-28T14:53:01Z</time></trkpt><trkpt lat="45.587677692368814" lon="10.520478916035996"><ele>152.25</ele><time>2026-03-28T14:53:02Z</time></trkpt><trkpt lat="45.587614835519624" lon="10.520341415977247"><ele>152.0</ele><time>2026-03-28T14:53:03Z</time></trkpt><trkpt lat="45.587555424160044" lon="10.520180501798684"><ele>151.75</ele><time>2026-03-28T14:53:04Z</time></trkpt><trkpt lat="45.587503308507756" lon="10.520015109004419"><ele>151.5</ele><time>2026-03-28T14:53:05Z</time></trkpt><trkpt lat="45.58745323138998" lon="10.519840938009171"><ele>151.25</ele><time>2026-03-28T14:53:06Z</time></trkpt><trkpt lat="45.587402884195704" lon="10.519666153918166"><ele>151.0</ele><time>2026-03-28T14:53:07Z</time></trkpt><trkpt lat="45.587353502513196" lon="10.519505708364454"><ele>151.0</ele><time>2026-03-28T14:53:08Z</time></trkpt><trkpt lat="45.587302178801764" lon="10.519347035719132"><ele>151.0</ele><time>2026-03-28T14:53:09Z</time></trkpt><trkpt lat="45.58725629334395" lon="10.519194617700068"><ele>151.0</ele><time>2026-03-28T14:53:10Z</time></trkpt><trkpt lat="45.58720967199495" lon="10.519039146760193"><ele>151.0</ele><time>2026-03-28T14:53:11Z</time></trkpt><trkpt lat="45.58716321975268" lon="10.518881812027024"><ele>151.0</ele><time>2026-03-28T14:53:12Z</time></trkpt><trkpt lat="45.587120441282885" lon="10.5187453468092"><ele>151.0</ele><time>2026-03-28T14:53:13Z</time></trkpt><trkpt lat="45.5870797512552" lon="10.518610504093747"><ele>151.0</ele><time>2026-03-28T14:53:14Z</time></trkpt><trkpt lat="45.58704104863697" lon="10.518486316570234"><ele>151.0</ele><time>2026-03-28T14:53:15Z</time></trkpt><trkpt lat="45.5870030767506" lon="10.518365542161094"><ele>151.0</ele><time>2026-03-28T14:53:16Z</time></trkpt><trkpt lat="45.586969228253416" lon="10.518239362944211"><ele>151.33333333333334</ele><time>2026-03-28T14:53:17Z</time></trkpt><trkpt lat="45.586941421024356" lon="10.518118101717622"><ele>151.66666666666669</ele><time>2026-03-28T14:53:18Z</time></trkpt><trkpt lat="45.586922328638515" lon="10.518016176403613"><ele>152.0</ele><time>2026-03-28T14:53:19Z</time></trkpt><trkpt lat="45.586907625886475" lon="10.51792461497367"><ele>152.33333333333334</ele><time>2026-03-28T14:53:20Z</time></trkpt><trkpt lat="45.58690611229306" lon="10.517780339184569"><ele>152.66666666666666</ele><time>2026-03-28T14:53:22Z</time></trkpt><trkpt lat="45.586943596537424" lon="10.517620449199178"><ele>153.0</ele><time>2026-03-28T14:53:24Z</time></trkpt><trkpt lat="45.586987150169776" lon="10.517458273230796"><ele>153.66666666666666</ele><time>2026-03-28T14:53:26Z</time></trkpt><trkpt lat="45.5869833445907" lon="10.517364604327712"><ele>154.33333333333334</ele><time>2026-03-28T14:53:27Z</time></trkpt><trkpt lat="45.58695441063546" lon="10.51727125930527"><ele>155.0</ele><time>2026-03-28T14:53:28Z</time></trkpt><trkpt lat="45.5868973485088" lon="10.517202485768502"><ele>155.66666666666669</ele><time>2026-03-28T14:53:29Z</time></trkpt><trkpt lat="45.586808079427435" lon="10.517166663183357"><ele>156.33333333333334</ele><time>2026-03-28T14:53:30Z</time></trkpt><trkpt lat="45.58671839048901" lon="10.517148934127414"><ele>157.0</ele><time>2026-03-28T14:53:31Z</time></trkpt><trkpt lat="45.586642443485886" lon="10.517159850791783"><ele>157.25</ele><time>2026-03-28T14:53:32Z</time></trkpt><trkpt lat="45.58660876607537" lon="10.51696598380579"><ele>157.5</ele><time>2026-03-28T14:53:33Z</time></trkpt><trkpt lat="45.586545936894694" lon="10.516826233780181"><ele>157.75</ele><time>2026-03-28T14:53:34Z</time></trkpt><trkpt lat="45.586494863502374" lon="10.516648354406692"><ele>158.0</ele><time>2026-03-28T14:53:35Z</time></trkpt><trkpt lat="45.58642979897302" lon="10.516470033104314"><ele>158.0</ele><time>2026-03-28T14:53:36Z</time></trkpt><trkpt lat="45.58635491693497" lon="10.516288968419822"><ele>158.0</ele><time>2026-03-28T14:53:37Z</time></trkpt><trkpt lat="45.58625574299714" lon="10.516105421159146"><ele>158.0</ele><time>2026-03-28T14:53:38Z</time></trkpt><trkpt lat="45.586131106107494" lon="10.515949273543475"><ele>159.0</ele><time>2026-03-28T14:53:39Z</time></trkpt><trkpt lat="45.58600077730032" lon="10.515834838388907"><ele>160.0</ele><time>2026-03-28T14:53:40Z</time></trkpt><trkpt lat="45.5858758043906" lon="10.515753477013755"><ele>161.0</ele><time>2026-03-28T14:53:41Z</time></trkpt><trkpt lat="45.58574968255141" lon="10.515677157613087"><ele>162.0</ele><time>2026-03-28T14:53:42Z</time></trkpt><trkpt lat="45.585642186490254" lon="10.5156016809954"><ele>162.0</ele><time>2026-03-28T14:53:43Z</time></trkpt><trkpt lat="45.585544470939254" lon="10.515507710975697"><ele>162.0</ele><time>2026-03-28T14:53:44Z</time></trkpt><trkpt lat="45.58546195630275" lon="10.51540909371101"><ele>162.0</ele><time>2026-03-28T14:53:45Z</time></trkpt><trkpt lat="45.585368516275096" lon="10.515359455921798"><ele>162.0</ele><time>2026-03-28T14:53:46Z</time></trkpt><trkpt lat="45.58528992945324" lon="10.51531744445738"><ele>162.0</ele><time>2026-03-28T14:53:47Z</time></trkpt><trkpt lat="45.58513994091471" lon="10.51535613201539"><ele>163.5</ele><time>2026-03-28T14:53:49Z</time></trkpt><trkpt lat="45.58503895114851" lon="10.515444458903186"><ele>165.0</ele><time>2026-03-28T14:53:50Z</time></trkpt><trkpt lat="45.58492584665019" lon="10.515504857151823"><ele>166.5</ele><time>2026-03-28T14:53:51Z</time></trkpt><trkpt lat="45.584820693883856" lon="10.515524899387492"><ele>168.0</ele><time>2026-03-28T14:53:52Z</time></trkpt><trkpt lat="45.58471340482186" lon="10.515532999246592"><ele>168.0</ele><time>2026-03-28T14:53:53Z</time></trkpt><trkpt lat="45.58460336870096" lon="10.515541040627634"><ele>168.0</ele><time>2026-03-28T14:53:54Z</time></trkpt><trkpt lat="45.58448761749883" lon="10.515556209329999"><ele>168.0</ele><time>2026-03-28T14:53:55Z</time></trkpt><trkpt lat="45.584363044239055" lon="10.515570122114298"><ele>168.0</ele><time>2026-03-28T14:53:56Z</time></trkpt><trkpt lat="45.58422480955195" lon="10.515579019985575"><ele>170.5</ele><time>2026-03-28T14:53:57Z</time></trkpt><trkpt lat="45.584082024588376" lon="10.515585878672624"><ele>173.0</ele><time>2026-03-28T14:53:58Z</time></trkpt><trkpt lat="45.583936586813685" lon="10.515586065038134"><ele>175.5</ele><time>2026-03-28T14:53:59Z</time></trkpt><trkpt lat="45.583780288070024" lon="10.515576508360374"><ele>178.0</ele><time>2026-03-28T14:54:00Z</time></trkpt><trkpt lat="45.58362812863543" lon="10.515566549170183"><ele>178.33333333333334</ele><time>2026-03-28T14:54:01Z</time></trkpt><trkpt lat="45.5834754044992" lon="10.515561354747335"><ele>178.66666666666666</ele><time>2026-03-28T14:54:02Z</time></trkpt><trkpt lat="45.58332196221626" lon="10.515558912223497"><ele>179.0</ele><time>2026-03-28T14:54:03Z</time></trkpt><trkpt lat="45.58316555187799" lon="10.515551521437626"><ele>179.0</ele><time>2026-03-28T14:54:04Z</time></trkpt><trkpt lat="45.583003046384256" lon="10.515548931367631"><ele>179.0</ele><time>2026-03-28T14:54:05Z</time></trkpt><trkpt lat="45.58282853576558" lon="10.515561521914014"><ele>179.0</ele><time>2026-03-28T14:54:06Z</time></trkpt><trkpt lat="45.5826411947034" lon="10.515544993122047"><ele>179.0</ele><time>2026-03-28T14:54:07Z</time></trkpt><trkpt lat="45.58242543549613" lon="10.515549447633108"><ele>179.0</ele><time>2026-03-28T14:54:08Z</time></trkpt><trkpt lat="45.58221483349692" lon="10.515555294740444"><ele>179.0</ele><time>2026-03-28T14:54:09Z</time></trkpt><trkpt lat="45.58199777314525" lon="10.515571938221395"><ele>179.0</ele><time>2026-03-28T14:54:10Z</time></trkpt><trkpt lat="45.58177048487575" lon="10.515622316005677"><ele>179.0</ele><time>2026-03-28T14:54:11Z</time></trkpt><trkpt lat="45.581547716231405" lon="10.515657714135672"><ele>179.0</ele><time>2026-03-28T14:54:12Z</time></trkpt><trkpt lat="45.58133889945979" lon="10.51569186809538"><ele>179.0</ele><time>2026-03-28T14:54:13Z</time></trkpt><trkpt lat="45.58114608891092" lon="10.515707631151855"><ele>179.0</ele><time>2026-03-28T14:54:14Z</time></trkpt><trkpt lat="45.58095253530021" lon="10.515695775883648"><ele>178.66666666666666</ele><time>2026-03-28T14:54:15Z</time></trkpt><trkpt lat="45.5807562244456" lon="10.515623714643496"><ele>178.33333333333334</ele><time>2026-03-28T14:54:16Z</time></trkpt><trkpt lat="45.58055701496483" lon="10.515549851557543"><ele>178.0</ele><time>2026-03-28T14:54:17Z</time></trkpt><trkpt lat="45.580349720303964" lon="10.51549247901158"><ele>179.0</ele><time>2026-03-28T14:54:18Z</time></trkpt><trkpt lat="45.58014292013511" lon="10.515429401719183"><ele>180.0</ele><time>2026-03-28T14:54:19Z</time></trkpt><trkpt lat="45.57992450945206" lon="10.515383939967863"><ele>181.0</ele><time>2026-03-28T14:54:20Z</time></trkpt><trkpt lat="45.579709071064286" lon="10.515346857240221"><ele>183.33333333333334</ele><time>2026-03-28T14:54:21Z</time></trkpt><trkpt lat="45.579494508551555" lon="10.515313601039422"><ele>185.66666666666666</ele><time>2026-03-28T14:54:22Z</time></trkpt><trkpt lat="45.5792807001893" lon="10.51528914937865"><ele>188.0</ele><time>2026-03-28T14:54:23Z</time></trkpt><trkpt lat="45.57907937155158" lon="10.515277741760118"><ele>188.0</ele><time>2026-03-28T14:54:24Z</time></trkpt><trkpt lat="45.57887948128367" lon="10.515264841342196"><ele>188.0</ele><time>2026-03-28T14:54:25Z</time></trkpt><trkpt lat="45.57868651225586" lon="10.515249461338264"><ele>188.0</ele><time>2026-03-28T14:54:26Z</time></trkpt><trkpt lat="45.57849020817361" lon="10.51523674282791"><ele>187.33333333333331</ele><time>2026-03-28T14:54:27Z</time></trkpt><trkpt lat="45.57830522437086" lon="10.515225960830788"><ele>186.66666666666666</ele><time>2026-03-28T14:54:28Z</time></trkpt><trkpt lat="45.57810995786412" lon="10.515209620911705"><ele>186.0</ele><time>2026-03-28T14:54:29Z</time></trkpt><trkpt lat="45.57791669567472" lon="10.515193704600282"><ele>186.33333333333334</ele><time>2026-03-28T14:54:30Z</time></trkpt><trkpt lat="45.57772216586978" lon="10.515153914680639"><ele>186.66666666666669</ele><time>2026-03-28T14:54:31Z</time></trkpt><trkpt lat="45.577524359603146" lon="10.515134411302805"><ele>187.0</ele><time>2026-03-28T14:54:32Z</time></trkpt><trkpt lat="45.57732874476426" lon="10.515107049459129"><ele>187.0</ele><time>2026-03-28T14:54:33Z</time></trkpt><trkpt lat="45.57712902754157" lon="10.515089432499988"><ele>187.0</ele><time>2026-03-28T14:54:34Z</time></trkpt><trkpt lat="45.57692592379611" lon="10.51503352920737"><ele>187.0</ele><time>2026-03-28T14:54:35Z</time></trkpt><trkpt lat="45.57672706173826" lon="10.514983400386535"><ele>187.0</ele><time>2026-03-28T14:54:36Z</time></trkpt><trkpt lat="45.57652050488215" lon="10.514938503351914"><ele>187.0</ele><time>2026-03-28T14:54:37Z</time></trkpt><trkpt lat="45.57631276206983" lon="10.514889330851746"><ele>187.0</ele><time>2026-03-28T14:54:38Z</time></trkpt><trkpt lat="45.57610186659652" lon="10.51483569983316"><ele>186.33333333333334</ele><time>2026-03-28T14:54:39Z</time></trkpt><trkpt lat="45.57588856502502" lon="10.51478699108092"><ele>185.66666666666666</ele><time>2026-03-28T14:54:40Z</time></trkpt><trkpt lat="45.57567182261249" lon="10.514739874700052"><ele>185.0</ele><time>2026-03-28T14:54:41Z</time></trkpt><trkpt lat="45.575453045019735" lon="10.514689440415546"><ele>185.66666666666666</ele><time>2026-03-28T14:54:42Z</time></trkpt><trkpt lat="45.57523313829362" lon="10.514636432345325"><ele>186.33333333333334</ele><time>2026-03-28T14:54:43Z</time></trkpt><trkpt lat="45.575016904856525" lon="10.514582251544075"><ele>187.0</ele><time>2026-03-28T14:54:44Z</time></trkpt><trkpt lat="45.574801547839165" lon="10.514523092439413"><ele>188.0</ele><time>2026-03-28T14:54:45Z</time></trkpt><trkpt lat="45.5746078071618" lon="10.514472762318604"><ele>189.0</ele><time>2026-03-28T14:54:46Z</time></trkpt><trkpt lat="45.57443247386954" lon="10.514426749427804"><ele>190.0</ele><time>2026-03-28T14:54:47Z</time></trkpt><trkpt lat="45.57427491753267" lon="10.514384488530109"><ele>190.75</ele><time>2026-03-28T14:54:48Z</time></trkpt><trkpt lat="45.574118711056094" lon="10.514345701272134"><ele>191.5</ele><time>2026-03-28T14:54:49Z</time></trkpt><trkpt lat="45.57397487304323" lon="10.514327112363297"><ele>192.25</ele><time>2026-03-28T14:54:50Z</time></trkpt><trkpt lat="45.57384744245284" lon="10.514347416043364"><ele>193.0</ele><time>2026-03-28T14:54:51Z</time></trkpt><trkpt lat="45.57373512830246" lon="10.514415651246116"><ele>196.25</ele><time>2026-03-28T14:54:52Z</time></trkpt><trkpt lat="45.57363291536571" lon="10.514534147446023"><ele>199.5</ele><time>2026-03-28T14:54:53Z</time></trkpt><trkpt lat="45.573557488164546" lon="10.514699698801735"><ele>202.75</ele><time>2026-03-28T14:54:54Z</time></trkpt><trkpt lat="45.5735053845451" lon="10.51490365164034"><ele>206.0</ele><time>2026-03-28T14:54:55Z</time></trkpt><trkpt lat="45.57347553554678" lon="10.515133781573542"><ele>206.0</ele><time>2026-03-28T14:54:56Z</time></trkpt><trkpt lat="45.573445326050624" lon="10.515382430315533"><ele>206.0</ele><time>2026-03-28T14:54:57Z</time></trkpt><trkpt lat="45.57339323300872" lon="10.515639220017672"><ele>206.0</ele><time>2026-03-28T14:54:58Z</time></trkpt><trkpt lat="45.573323126351994" lon="10.515843209038481"><ele>204.75</ele><time>2026-03-28T14:54:59Z</time></trkpt><trkpt lat="45.57322570790682" lon="10.515966398140499"><ele>203.5</ele><time>2026-03-28T14:55:00Z</time></trkpt><trkpt lat="45.57311998628784" lon="10.516073677274798"><ele>202.25</ele><time>2026-03-28T14:55:01Z</time></trkpt><trkpt lat="45.57300902859798" lon="10.51620899567516"><ele>201.0</ele><time>2026-03-28T14:55:02Z</time></trkpt><trkpt lat="45.57287300490457" lon="10.516319039583726"><ele>200.0</ele><time>2026-03-28T14:55:03Z</time></trkpt><trkpt lat="45.57272491497708" lon="10.51643039409413"><ele>199.0</ele><time>2026-03-28T14:55:04Z</time></trkpt><trkpt lat="45.57255559827462" lon="10.516510373102133"><ele>198.0</ele><time>2026-03-28T14:55:05Z</time></trkpt><trkpt lat="45.57237882958119" lon="10.516542714627617"><ele>198.0</ele><time>2026-03-28T14:55:06Z</time></trkpt><trkpt lat="45.57220123456272" lon="10.516566651129162"><ele>198.0</ele><time>2026-03-28T14:55:07Z</time></trkpt><trkpt lat="45.57204617452074" lon="10.516567098607172"><ele>198.0</ele><time>2026-03-28T14:55:08Z</time></trkpt><trkpt lat="45.571901222672274" lon="10.516493389397239"><ele>196.66666666666669</ele><time>2026-03-28T14:55:09Z</time></trkpt><trkpt lat="45.57177308823162" lon="10.516388980509818"><ele>195.33333333333334</ele><time>2026-03-28T14:55:10Z</time></trkpt><trkpt lat="45.57164835151598" lon="10.516237264557304"><ele>194.0</ele><time>2026-03-28T14:55:11Z</time></trkpt><trkpt lat="45.57150734424781" lon="10.516077590070605"><ele>195.33333333333334</ele><time>2026-03-28T14:55:12Z</time></trkpt><trkpt lat="45.57136916905762" lon="10.51589172928324"><ele>196.66666666666669</ele><time>2026-03-28T14:55:13Z</time></trkpt><trkpt lat="45.571212569819835" lon="10.515707250348994"><ele>198.0</ele><time>2026-03-28T14:55:14Z</time></trkpt><trkpt lat="45.57106274325812" lon="10.515531177661336"><ele>201.33333333333331</ele><time>2026-03-28T14:55:15Z</time></trkpt><trkpt lat="45.57092117354747" lon="10.515351069416147"><ele>204.66666666666666</ele><time>2026-03-28T14:55:16Z</time></trkpt><trkpt lat="45.570792386130655" lon="10.515188983406109"><ele>208.0</ele><time>2026-03-28T14:55:17Z</time></trkpt><trkpt lat="45.5706788098575" lon="10.515028334353925"><ele>208.0</ele><time>2026-03-28T14:55:18Z</time></trkpt><trkpt lat="45.57062190316236" lon="10.514837285658107"><ele>208.0</ele><time>2026-03-28T14:55:19Z</time></trkpt><trkpt lat="45.57058720181788" lon="10.514636774755889"><ele>208.0</ele><time>2026-03-28T14:55:20Z</time></trkpt><trkpt lat="45.57055342325067" lon="10.514420027452015"><ele>208.0</ele><time>2026-03-28T14:55:21Z</time></trkpt><trkpt lat="45.57055342824198" lon="10.514187422791036"><ele>209.66666666666666</ele><time>2026-03-28T14:55:22Z</time></trkpt><trkpt lat="45.5705444691537" lon="10.513974649901673"><ele>211.33333333333331</ele><time>2026-03-28T14:55:23Z</time></trkpt><trkpt lat="45.57050430430053" lon="10.513768272293706"><ele>213.0</ele><time>2026-03-28T14:55:24Z</time></trkpt><trkpt lat="45.57042242942423" lon="10.513575791325419"><ele>209.0</ele><time>2026-03-28T14:55:25Z</time></trkpt><trkpt lat="45.57030189151447" lon="10.513415261520018"><ele>205.0</ele><time>2026-03-28T14:55:26Z</time></trkpt><trkpt lat="45.57015455009435" lon="10.513282789216305"><ele>201.0</ele><time>2026-03-28T14:55:27Z</time></trkpt><trkpt lat="45.56999485278754" lon="10.513151252744864"><ele>201.0</ele><time>2026-03-28T14:55:28Z</time></trkpt><trkpt lat="45.569871242492276" lon="10.513024068534522"><ele>201.0</ele><time>2026-03-28T14:55:29Z</time></trkpt><trkpt lat="45.56978537383893" lon="10.512890149136902"><ele>201.0</ele><time>2026-03-28T14:55:30Z</time></trkpt><trkpt lat="45.569731902165415" lon="10.512725936677345"><ele>201.0</ele><time>2026-03-28T14:55:31Z</time></trkpt><trkpt lat="45.56971312378843" lon="10.512539226387728"><ele>203.0</ele><time>2026-03-28T14:55:32Z</time></trkpt><trkpt lat="45.56972760424503" lon="10.51233988450155"><ele>205.0</ele><time>2026-03-28T14:55:33Z</time></trkpt><trkpt lat="45.56978154494764" lon="10.512143005972241"><ele>207.0</ele><time>2026-03-28T14:55:34Z</time></trkpt><trkpt lat="45.56986572524525" lon="10.511955285887563"><ele>209.0</ele><time>2026-03-28T14:55:35Z</time></trkpt><trkpt lat="45.569969329608135" lon="10.511762613480352"><ele>209.33333333333334</ele><time>2026-03-28T14:55:36Z</time></trkpt><trkpt lat="45.570078455736514" lon="10.511553057936556"><ele>209.66666666666669</ele><time>2026-03-28T14:55:37Z</time></trkpt><trkpt lat="45.57017797308211" lon="10.511308218297195"><ele>210.0</ele><time>2026-03-28T14:55:38Z</time></trkpt><trkpt lat="45.57025436339021" lon="10.511046112774146"><ele>210.0</ele><time>2026-03-28T14:55:39Z</time></trkpt><trkpt lat="45.57030000877872" lon="10.510787592037685"><ele>210.0</ele><time>2026-03-28T14:55:40Z</time></trkpt><trkpt lat="45.570343916696054" lon="10.510510584141292"><ele>210.0</ele><time>2026-03-28T14:55:41Z</time></trkpt><trkpt lat="45.57039306224719" lon="10.510238104176073"><ele>210.0</ele><time>2026-03-28T14:55:42Z</time></trkpt><trkpt lat="45.570440866275156" lon="10.509987063224017"><ele>210.0</ele><time>2026-03-28T14:55:43Z</time></trkpt><trkpt lat="45.57048096603635" lon="10.509765530275338"><ele>210.0</ele><time>2026-03-28T14:55:44Z</time></trkpt><trkpt lat="45.570518807440735" lon="10.509552560845664"><ele>210.0</ele><time>2026-03-28T14:55:45Z</time></trkpt><trkpt lat="45.57054619806402" lon="10.509397122640406"><ele>210.0</ele><time>2026-03-28T14:55:46Z</time></trkpt><trkpt lat="45.57056685751865" lon="10.509272144851268"><ele>210.0</ele><time>2026-03-28T14:55:47Z</time></trkpt><trkpt lat="45.57058262616807" lon="10.509170264531699"><ele>210.0</ele><time>2026-03-28T14:55:48Z</time></trkpt><trkpt lat="45.57057742900198" lon="10.50907488109184"><ele>210.0</ele><time>2026-03-28T14:55:49Z</time></trkpt><trkpt lat="45.5705466771513" lon="10.508977826334458"><ele>210.0</ele><time>2026-03-28T14:55:50Z</time></trkpt><trkpt lat="45.57048478717272" lon="10.508894448017504"><ele>210.0</ele><time>2026-03-28T14:55:51Z</time></trkpt><trkpt lat="45.57040146174406" lon="10.508849988290597"><ele>210.0</ele><time>2026-03-28T14:55:52Z</time></trkpt><trkpt lat="45.57030705989625" lon="10.508820526378523"><ele>210.0</ele><time>2026-03-28T14:55:53Z</time></trkpt><trkpt lat="45.57018563396877" lon="10.508881336771248"><ele>210.0</ele><time>2026-03-28T14:55:54Z</time></trkpt><trkpt lat="45.570068880865236" lon="10.508962890545757"><ele>210.0</ele><time>2026-03-28T14:55:55Z</time></trkpt><trkpt lat="45.569931212492115" lon="10.509076098035344"><ele>210.66666666666669</ele><time>2026-03-28T14:55:56Z</time></trkpt><trkpt lat="45.56977254411617" lon="10.509136354359242"><ele>211.33333333333334</ele><time>2026-03-28T14:55:57Z</time></trkpt><trkpt lat="45.569601351297536" lon="10.509189221809741"><ele>212.0</ele><time>2026-03-28T14:55:58Z</time></trkpt><trkpt lat="45.56942935424369" lon="10.509241734435173"><ele>213.75</ele><time>2026-03-28T14:55:59Z</time></trkpt><trkpt lat="45.56928125814116" lon="10.50930663789465"><ele>215.5</ele><time>2026-03-28T14:56:00Z</time></trkpt><trkpt lat="45.5691492848557" lon="10.509355511009582"><ele>217.25</ele><time>2026-03-28T14:56:01Z</time></trkpt><trkpt lat="45.56904634993222" lon="10.509437247974441"><ele>219.0</ele><time>2026-03-28T14:56:02Z</time></trkpt><trkpt lat="45.56896627046652" lon="10.50954571255752"><ele>217.2</ele><time>2026-03-28T14:56:03Z</time></trkpt><trkpt lat="45.568910400062855" lon="10.509662007084245"><ele>215.39999999999998</ele><time>2026-03-28T14:56:04Z</time></trkpt><trkpt lat="45.56886188782654" lon="10.50980584403981"><ele>213.6</ele><time>2026-03-28T14:56:05Z</time></trkpt><trkpt lat="45.5688151171819" lon="10.50997006986417"><ele>211.8</ele><time>2026-03-28T14:56:06Z</time></trkpt><trkpt lat="45.56876607222442" lon="10.510118195684518"><ele>210.0</ele><time>2026-03-28T14:56:07Z</time></trkpt><trkpt lat="45.56871233134476" lon="10.510231074249418"><ele>211.2</ele><time>2026-03-28T14:56:08Z</time></trkpt><trkpt lat="45.568632007385425" lon="10.51030575359703"><ele>212.4</ele><time>2026-03-28T14:56:09Z</time></trkpt><trkpt lat="45.568535657216806" lon="10.510333902316988"><ele>213.60000000000002</ele><time>2026-03-28T14:56:10Z</time></trkpt><trkpt lat="45.5684403454979" lon="10.510320162854331"><ele>214.8</ele><time>2026-03-28T14:56:11Z</time></trkpt><trkpt lat="45.5683370292401" lon="10.510243440724638"><ele>216.0</ele><time>2026-03-28T14:56:12Z</time></trkpt><trkpt lat="45.56821485843203" lon="10.51019154101914"><ele>216.0</ele><time>2026-03-28T14:56:13Z</time></trkpt><trkpt lat="45.568082615870324" lon="10.51011373044684"><ele>216.0</ele><time>2026-03-28T14:56:14Z</time></trkpt><trkpt lat="45.56792591705201" lon="10.510061023584985"><ele>216.0</ele><time>2026-03-28T14:56:15Z</time></trkpt><trkpt lat="45.56776784349677" lon="10.51003432207762"><ele>216.0</ele><time>2026-03-28T14:56:16Z</time></trkpt><trkpt lat="45.567615941232305" lon="10.510014636183323"><ele>216.0</ele><time>2026-03-28T14:56:17Z</time></trkpt><trkpt lat="45.56746976811845" lon="10.509991150610778"><ele>216.0</ele><time>2026-03-28T14:56:18Z</time></trkpt><trkpt lat="45.56732258141891" lon="10.50996531345923"><ele>216.0</ele><time>2026-03-28T14:56:19Z</time></trkpt><trkpt lat="45.56717476943584" lon="10.50995374785934"><ele>216.33333333333331</ele><time>2026-03-28T14:56:20Z</time></trkpt><trkpt lat="45.56702566679657" lon="10.509964200391918"><ele>216.66666666666666</ele><time>2026-03-28T14:56:21Z</time></trkpt><trkpt lat="45.566861343119676" lon="10.509993983370366"><ele>217.0</ele><time>2026-03-28T14:56:22Z</time></trkpt><trkpt lat="45.56670226334208" lon="10.510039338527717"><ele>217.0</ele><time>2026-03-28T14:56:23Z</time></trkpt><trkpt lat="45.56653967997412" lon="10.510085849025531"><ele>217.0</ele><time>2026-03-28T14:56:24Z</time></trkpt><trkpt lat="45.56638685442412" lon="10.510104253312052"><ele>217.0</ele><time>2026-03-28T14:56:25Z</time></trkpt><trkpt lat="45.566240272207516" lon="10.510044780464758"><ele>215.66666666666666</ele><time>2026-03-28T14:56:26Z</time></trkpt><trkpt lat="45.566077641357445" lon="10.510017005862426"><ele>214.33333333333331</ele><time>2026-03-28T14:56:27Z</time></trkpt><trkpt lat="45.56589780931693" lon="10.50995035250716"><ele>213.0</ele><time>2026-03-28T14:56:28Z</time></trkpt><trkpt lat="45.565721997462774" lon="10.509887747149532"><ele>213.0</ele><time>2026-03-28T14:56:29Z</time></trkpt><trkpt lat="45.565545703355106" lon="10.50982240932388"><ele>213.0</ele><time>2026-03-28T14:56:30Z</time></trkpt><trkpt lat="45.56538216375443" lon="10.509731472046132"><ele>213.0</ele><time>2026-03-28T14:56:31Z</time></trkpt><trkpt lat="45.56523600859204" lon="10.50962350536475"><ele>215.0</ele><time>2026-03-28T14:56:32Z</time></trkpt><trkpt lat="45.56510021426572" lon="10.509515513822926"><ele>217.0</ele><time>2026-03-28T14:56:33Z</time></trkpt><trkpt lat="45.564990375899896" lon="10.509425230329013"><ele>219.0</ele><time>2026-03-28T14:56:34Z</time></trkpt><trkpt lat="45.5648980383682" lon="10.509354341785482"><ele>221.0</ele><time>2026-03-28T14:56:35Z</time></trkpt><trkpt lat="45.564825221770825" lon="10.509297080248306"><ele>221.00000000000003</ele><time>2026-03-28T14:56:36Z</time></trkpt><trkpt lat="45.56477328264241" lon="10.509225226457414"><ele>221.0</ele><time>2026-03-28T14:56:37Z</time></trkpt><trkpt lat="45.564755682547" lon="10.509124439036754"><ele>221.0</ele><time>2026-03-28T14:56:38Z</time></trkpt><trkpt lat="45.56478472227112" lon="10.509025932247054"><ele>221.0</ele><time>2026-03-28T14:56:39Z</time></trkpt><trkpt lat="45.564847283111725" lon="10.508959962672899"><ele>221.00000000000003</ele><time>2026-03-28T14:56:40Z</time></trkpt><trkpt lat="45.56493214199586" lon="10.508956129961804"><ele>221.0</ele><time>2026-03-28T14:56:41Z</time></trkpt><trkpt lat="45.565015401248004" lon="10.509008717407884"><ele>221.0</ele><time>2026-03-28T14:56:42Z</time></trkpt><trkpt lat="45.56510152024494" lon="10.509096703841067"><ele>221.0</ele><time>2026-03-28T14:56:43Z</time></trkpt><trkpt lat="45.565198252830854" lon="10.50918786661676"><ele>221.0</ele><time>2026-03-28T14:56:44Z</time></trkpt><trkpt lat="45.565323724518244" lon="10.509297144014994"><ele>221.0</ele><time>2026-03-28T14:56:45Z</time></trkpt><trkpt lat="45.56545746569862" lon="10.509409367520304"><ele>219.4</ele><time>2026-03-28T14:56:46Z</time></trkpt><trkpt lat="45.56557463763935" lon="10.509505936209733"><ele>217.8</ele><time>2026-03-28T14:56:47Z</time></trkpt><trkpt lat="45.56565920658942" lon="10.509575939120047"><ele>216.20000000000002</ele><time>2026-03-28T14:56:48Z</time></trkpt><trkpt lat="45.565731654571216" lon="10.50960763305065"><ele>214.60000000000002</ele><time>2026-03-28T14:56:49Z</time></trkpt><trkpt lat="45.56580334105959" lon="10.509585477944453"><ele>213.0</ele><time>2026-03-28T14:56:50Z</time></trkpt><trkpt lat="45.56586388957626" lon="10.50950519174955"><ele>216.60000000000002</ele><time>2026-03-28T14:56:51Z</time></trkpt><trkpt lat="45.56589315182779" lon="10.509391111884327"><ele>220.20000000000002</ele><time>2026-03-28T14:56:52Z</time></trkpt><trkpt lat="45.56587577901844" lon="10.50926507262837"><ele>223.8</ele><time>2026-03-28T14:56:53Z</time></trkpt><trkpt lat="45.565808185186896" lon="10.509167286624438"><ele>227.4</ele><time>2026-03-28T14:56:54Z</time></trkpt><trkpt lat="45.56571331318681" lon="10.509089198125046"><ele>231.0</ele><time>2026-03-28T14:56:55Z</time></trkpt><trkpt lat="45.56559494483385" lon="10.509006564822513"><ele>231.0</ele><time>2026-03-28T14:56:56Z</time></trkpt><trkpt lat="45.5654798084558" lon="10.50889525254642"><ele>231.0</ele><time>2026-03-28T14:56:57Z</time></trkpt><trkpt lat="45.565386528993976" lon="10.50876204792131"><ele>231.0</ele><time>2026-03-28T14:56:58Z</time></trkpt><trkpt lat="45.56530061770549" lon="10.508594886892105"><ele>231.0</ele><time>2026-03-28T14:56:59Z</time></trkpt><trkpt lat="45.56523722644099" lon="10.508401520523195"><ele>232.0</ele><time>2026-03-28T14:57:00Z</time></trkpt><trkpt lat="45.56518918632187" lon="10.508197996414156"><ele>233.0</ele><time>2026-03-28T14:57:01Z</time></trkpt><trkpt lat="45.56513955789932" lon="10.507978755515095"><ele>234.0</ele><time>2026-03-28T14:57:02Z</time></trkpt><trkpt lat="45.565089492500555" lon="10.50775077148616"><ele>234.0</ele><time>2026-03-28T14:57:03Z</time></trkpt><trkpt lat="45.56503091753752" lon="10.50750177202169"><ele>234.0</ele><time>2026-03-28T14:57:04Z</time></trkpt><trkpt lat="45.56496726923533" lon="10.507244695110105"><ele>234.0</ele><time>2026-03-28T14:57:05Z</time></trkpt><trkpt lat="45.56490484744969" lon="10.507003311743532"><ele>234.0</ele><time>2026-03-28T14:57:06Z</time></trkpt><trkpt lat="45.564841190807236" lon="10.506746546815306"><ele>234.0</ele><time>2026-03-28T14:57:07Z</time></trkpt><trkpt lat="45.56477830692806" lon="10.506476252258977"><ele>234.0</ele><time>2026-03-28T14:57:08Z</time></trkpt><trkpt lat="45.56471561541222" lon="10.50621598226414"><ele>234.0</ele><time>2026-03-28T14:57:09Z</time></trkpt><trkpt lat="45.564647225082446" lon="10.505964406881077"><ele>234.0</ele><time>2026-03-28T14:57:10Z</time></trkpt><trkpt lat="45.56457154339954" lon="10.505729921177087"><ele>234.0</ele><time>2026-03-28T14:57:11Z</time></trkpt><trkpt lat="45.56447486692038" lon="10.505543194328968"><ele>234.0</ele><time>2026-03-28T14:57:12Z</time></trkpt><trkpt lat="45.56435200802796" lon="10.505380195746547"><ele>234.0</ele><time>2026-03-28T14:57:13Z</time></trkpt><trkpt lat="45.5641999252486" lon="10.505227916643902"><ele>234.0</ele><time>2026-03-28T14:57:14Z</time></trkpt><trkpt lat="45.56403986057826" lon="10.505079067378245"><ele>234.0</ele><time>2026-03-28T14:57:15Z</time></trkpt><trkpt lat="45.5638879315159" lon="10.504922143739392"><ele>234.0</ele><time>2026-03-28T14:57:16Z</time></trkpt><trkpt lat="45.56375243044672" lon="10.50471397907391"><ele>234.0</ele><time>2026-03-28T14:57:17Z</time></trkpt><trkpt lat="45.56360513644863" lon="10.504528556256004"><ele>235.66666666666669</ele><time>2026-03-28T14:57:18Z</time></trkpt><trkpt lat="45.56347700297213" lon="10.504335990117974"><ele>237.33333333333334</ele><time>2026-03-28T14:57:19Z</time></trkpt><trkpt lat="45.5633366187931" lon="10.504137357317322"><ele>239.0</ele><time>2026-03-28T14:57:20Z</time></trkpt><trkpt lat="45.56319743903724" lon="10.503950613098986"><ele>239.0</ele><time>2026-03-28T14:57:21Z</time></trkpt><trkpt lat="45.563040441917906" lon="10.503764195846644"><ele>239.0</ele><time>2026-03-28T14:57:22Z</time></trkpt><trkpt lat="45.56288022500124" lon="10.503594707030503"><ele>239.0</ele><time>2026-03-28T14:57:23Z</time></trkpt><trkpt lat="45.56271061160011" lon="10.50342534611083"><ele>239.33333333333334</ele><time>2026-03-28T14:57:24Z</time></trkpt><trkpt lat="45.56254519000673" lon="10.503251302733535"><ele>239.66666666666669</ele><time>2026-03-28T14:57:25Z</time></trkpt><trkpt lat="45.562391950954115" lon="10.503088513809889"><ele>240.0</ele><time>2026-03-28T14:57:26Z</time></trkpt><trkpt lat="45.562235156327155" lon="10.502941844667689"><ele>239.66666666666669</ele><time>2026-03-28T14:57:27Z</time></trkpt><trkpt lat="45.56207299388575" lon="10.50281336596709"><ele>239.33333333333334</ele><time>2026-03-28T14:57:28Z</time></trkpt><trkpt lat="45.56191348670613" lon="10.502718136818803"><ele>239.0</ele><time>2026-03-28T14:57:29Z</time></trkpt><trkpt lat="45.56176578947323" lon="10.502642446369384"><ele>239.0</ele><time>2026-03-28T14:57:30Z</time></trkpt><trkpt lat="45.561624223614444" lon="10.502573022355568"><ele>239.0</ele><time>2026-03-28T14:57:31Z</time></trkpt><trkpt lat="45.56149158039442" lon="10.50253005406499"><ele>239.0</ele><time>2026-03-28T14:57:32Z</time></trkpt><trkpt lat="45.561342274595965" lon="10.502538335489769"><ele>239.0</ele><time>2026-03-28T14:57:33Z</time></trkpt><trkpt lat="45.56119282622829" lon="10.502606735312453"><ele>237.33333333333334</ele><time>2026-03-28T14:57:34Z</time></trkpt><trkpt lat="45.5610473838063" lon="10.502718919695699"><ele>235.66666666666669</ele><time>2026-03-28T14:57:35Z</time></trkpt><trkpt lat="45.56092601291035" lon="10.502868563035431"><ele>234.0</ele><time>2026-03-28T14:57:36Z</time></trkpt><trkpt lat="45.56081683139833" lon="10.503048581487105"><ele>234.0</ele><time>2026-03-28T14:57:37Z</time></trkpt><trkpt lat="45.560707401101446" lon="10.503203872872126"><ele>234.0</ele><time>2026-03-28T14:57:38Z</time></trkpt><trkpt lat="45.56057981509513" lon="10.50328445589702"><ele>234.0</ele><time>2026-03-28T14:57:39Z</time></trkpt><trkpt lat="45.560455571978046" lon="10.503373057646051"><ele>234.0</ele><time>2026-03-28T14:57:40Z</time></trkpt><trkpt lat="45.56030956105437" lon="10.503387289173903"><ele>234.0</ele><time>2026-03-28T14:57:41Z</time></trkpt><trkpt lat="45.56014900593548" lon="10.503358553633971"><ele>234.0</ele><time>2026-03-28T14:57:42Z</time></trkpt><trkpt lat="45.55997520376984" lon="10.503313405393522"><ele>234.0</ele><time>2026-03-28T14:57:43Z</time></trkpt><trkpt lat="45.55980655692362" lon="10.503267546999249"><ele>234.0</ele><time>2026-03-28T14:57:44Z</time></trkpt><trkpt lat="45.55965961846444" lon="10.50321390912487"><ele>234.0</ele><time>2026-03-28T14:57:45Z</time></trkpt><trkpt lat="45.55953555642368" lon="10.503097607720713"><ele>234.0</ele><time>2026-03-28T14:57:46Z</time></trkpt><trkpt lat="45.559415717471616" lon="10.502951759875163"><ele>233.66666666666669</ele><time>2026-03-28T14:57:47Z</time></trkpt><trkpt lat="45.559301795429406" lon="10.502769694355699"><ele>233.33333333333334</ele><time>2026-03-28T14:57:48Z</time></trkpt><trkpt lat="45.559167974771356" lon="10.502578192301211"><ele>233.0</ele><time>2026-03-28T14:57:49Z</time></trkpt><trkpt lat="45.55904956675945" lon="10.502362917705815"><ele>233.0</ele><time>2026-03-28T14:57:50Z</time></trkpt><trkpt lat="45.55892643430814" lon="10.502152300653973"><ele>233.0</ele><time>2026-03-28T14:57:51Z</time></trkpt><trkpt lat="45.558795833297104" lon="10.501936302375666"><ele>233.0</ele><time>2026-03-28T14:57:52Z</time></trkpt><trkpt lat="45.55868435647341" lon="10.501754431840448"><ele>232.8</ele><time>2026-03-28T14:57:53Z</time></trkpt><trkpt lat="45.55860082193317" lon="10.501629650235415"><ele>232.60000000000002</ele><time>2026-03-28T14:57:54Z</time></trkpt><trkpt lat="45.55853856562398" lon="10.501549408844179"><ele>232.39999999999998</ele><time>2026-03-28T14:57:55Z</time></trkpt><trkpt lat="45.558510171062665" lon="10.501455866148723"><ele>232.2</ele><time>2026-03-28T14:57:57Z</time></trkpt><trkpt lat="45.55859083739871" lon="10.501338109004855"><ele>232.0</ele><time>2026-03-28T14:57:59Z</time></trkpt><trkpt lat="45.558639897411226" lon="10.501269168131033"><ele>234.2</ele><time>2026-03-28T14:58:00Z</time></trkpt><trkpt lat="45.55870721091092" lon="10.501183268684636"><ele>236.39999999999998</ele><time>2026-03-28T14:58:01Z</time></trkpt><trkpt lat="45.55876163611925" lon="10.501065442823746"><ele>238.60000000000002</ele><time>2026-03-28T14:58:02Z</time></trkpt><trkpt lat="45.55883444375501" lon="10.500962828042955"><ele>240.8</ele><time>2026-03-28T14:58:03Z</time></trkpt><trkpt lat="45.55889979302523" lon="10.500877931123751"><ele>243.0</ele><time>2026-03-28T14:58:04Z</time></trkpt><trkpt lat="45.55894796474399" lon="10.50078783999151"><ele>243.0</ele><time>2026-03-28T14:58:05Z</time></trkpt><trkpt lat="45.55902035111632" lon="10.500674378706753"><ele>243.0</ele><time>2026-03-28T14:58:06Z</time></trkpt><trkpt lat="45.55910354218114" lon="10.500569495992131"><ele>243.0</ele><time>2026-03-28T14:58:07Z</time></trkpt><trkpt lat="45.559176596902994" lon="10.500451135074202"><ele>243.0</ele><time>2026-03-28T14:58:08Z</time></trkpt><trkpt lat="45.55922157378044" lon="10.500341322184019"><ele>243.0</ele><time>2026-03-28T14:58:09Z</time></trkpt><trkpt lat="45.55927620796864" lon="10.500244033644453"><ele>242.5</ele><time>2026-03-28T14:58:10Z</time></trkpt><trkpt lat="45.55932253856794" lon="10.500155551624882"><ele>242.0</ele><time>2026-03-28T14:58:11Z</time></trkpt><trkpt lat="45.55936018053846" lon="10.500043908345983"><ele>241.5</ele><time>2026-03-28T14:58:12Z</time></trkpt><trkpt lat="45.559387677405574" lon="10.499920449548407"><ele>241.0</ele><time>2026-03-28T14:58:13Z</time></trkpt><trkpt lat="45.559401474648816" lon="10.499779270526663"><ele>240.5</ele><time>2026-03-28T14:58:14Z</time></trkpt><trkpt lat="45.559414665467436" lon="10.499652504835819"><ele>240.0</ele><time>2026-03-28T14:58:15Z</time></trkpt><trkpt lat="45.559434930854756" lon="10.49944307430675"><ele>240.0</ele><time>2026-03-28T14:58:17Z</time></trkpt><trkpt lat="45.55941505692505" lon="10.499292330426726"><ele>240.0</ele><time>2026-03-28T14:58:19Z</time></trkpt><trkpt lat="45.55936352171913" lon="10.4992116460264"><ele>240.0</ele><time>2026-03-28T14:58:20Z</time></trkpt><trkpt lat="45.55928613557619" lon="10.499136677048947"><ele>240.0</ele><time>2026-03-28T14:58:21Z</time></trkpt><trkpt lat="45.55924375309773" lon="10.499007751693538"><ele>240.0</ele><time>2026-03-28T14:58:22Z</time></trkpt><trkpt lat="45.559178784211696" lon="10.49886875771134"><ele>240.0</ele><time>2026-03-28T14:58:23Z</time></trkpt><trkpt lat="45.55911247636379" lon="10.498790930600558"><ele>240.0</ele><time>2026-03-28T14:58:24Z</time></trkpt><trkpt lat="45.55908523376757" lon="10.498683164690128"><ele>240.0</ele><time>2026-03-28T14:58:25Z</time></trkpt><trkpt lat="45.5590427788698" lon="10.498580507796087"><ele>240.0</ele><time>2026-03-28T14:58:26Z</time></trkpt><trkpt lat="45.55900475818843" lon="10.498488572950684"><ele>240.0</ele><time>2026-03-28T14:58:27Z</time></trkpt><trkpt lat="45.558910399608436" lon="10.498434560919472"><ele>240.0</ele><time>2026-03-28T14:58:28Z</time></trkpt><trkpt lat="45.55880348205411" lon="10.49827145969789"><ele>240.33333333333334</ele><time>2026-03-28T14:58:30Z</time></trkpt><trkpt lat="45.55874200729985" lon="10.498159017594075"><ele>240.66666666666669</ele><time>2026-03-28T14:58:31Z</time></trkpt><trkpt lat="45.558709419909675" lon="10.498070538925056"><ele>241.0</ele><time>2026-03-28T14:58:32Z</time></trkpt><trkpt lat="45.55868342519117" lon="10.497966785714215"><ele>241.33333333333334</ele><time>2026-03-28T14:58:33Z</time></trkpt><trkpt lat="45.55866404149611" lon="10.497848393261958"><ele>241.66666666666669</ele><time>2026-03-28T14:58:34Z</time></trkpt><trkpt lat="45.558665652131474" lon="10.49771659620255"><ele>242.0</ele><time>2026-03-28T14:58:35Z</time></trkpt><trkpt lat="45.55866994056577" lon="10.497582996449834"><ele>242.8</ele><time>2026-03-28T14:58:36Z</time></trkpt><trkpt lat="45.558678742175" lon="10.49745305398468"><ele>243.6</ele><time>2026-03-28T14:58:37Z</time></trkpt><trkpt lat="45.55867853571754" lon="10.49734991523515"><ele>244.40000000000003</ele><time>2026-03-28T14:58:38Z</time></trkpt><trkpt lat="45.558655343733136" lon="10.497219216212708"><ele>245.20000000000002</ele><time>2026-03-28T14:58:39Z</time></trkpt><trkpt lat="45.55863121898562" lon="10.49707684268722"><ele>246.0</ele><time>2026-03-28T14:58:40Z</time></trkpt><trkpt lat="45.55860517664702" lon="10.4969216306186"><ele>247.16666666666666</ele><time>2026-03-28T14:58:41Z</time></trkpt><trkpt lat="45.55858112256487" lon="10.496778115659168"><ele>248.33333333333331</ele><time>2026-03-28T14:58:42Z</time></trkpt><trkpt lat="45.55856317754817" lon="10.4966566706713"><ele>249.5</ele><time>2026-03-28T14:58:43Z</time></trkpt><trkpt lat="45.55854519411702" lon="10.496560294547454"><ele>250.66666666666666</ele><time>2026-03-28T14:58:44Z</time></trkpt><trkpt lat="45.55850141227718" lon="10.496482266641255"><ele>251.83333333333331</ele><time>2026-03-28T14:58:45Z</time></trkpt><trkpt lat="45.558433690083454" lon="10.496376054933377"><ele>253.0</ele><time>2026-03-28T14:58:46Z</time></trkpt><trkpt lat="45.55835317166439" lon="10.496272450127181"><ele>255.4</ele><time>2026-03-28T14:58:47Z</time></trkpt><trkpt lat="45.55826774529655" lon="10.496171334324282"><ele>257.8</ele><time>2026-03-28T14:58:48Z</time></trkpt><trkpt lat="45.55817501766061" lon="10.496083008495814"><ele>260.2</ele><time>2026-03-28T14:58:49Z</time></trkpt><trkpt lat="45.55809220636486" lon="10.49603083755535"><ele>262.6</ele><time>2026-03-28T14:58:50Z</time></trkpt><trkpt lat="45.55802483384359" lon="10.495960222451545"><ele>265.0</ele><time>2026-03-28T14:58:51Z</time></trkpt><trkpt lat="45.557969218245795" lon="10.495881345286865"><ele>265.0</ele><time>2026-03-28T14:58:52Z</time></trkpt><trkpt lat="45.55792755938649" lon="10.495804397639334"><ele>265.0</ele><time>2026-03-28T14:58:53Z</time></trkpt><trkpt lat="45.55786800973296" lon="10.495657912153655"><ele>265.0</ele><time>2026-03-28T14:58:55Z</time></trkpt><trkpt lat="45.55785346743046" lon="10.49556868713662"><ele>265.0</ele><time>2026-03-28T14:58:56Z</time></trkpt><trkpt lat="45.55782953260445" lon="10.495450980493676"><ele>265.0</ele><time>2026-03-28T14:58:57Z</time></trkpt><trkpt lat="45.55776251361123" lon="10.495327609840874"><ele>265.0</ele><time>2026-03-28T14:58:58Z</time></trkpt><trkpt lat="45.557686533502064" lon="10.495178842266265"><ele>265.6</ele><time>2026-03-28T14:58:59Z</time></trkpt><trkpt lat="45.557613903246384" lon="10.495036321651163"><ele>266.2</ele><time>2026-03-28T14:59:00Z</time></trkpt><trkpt lat="45.55754134897935" lon="10.494912433018522"><ele>266.8</ele><time>2026-03-28T14:59:01Z</time></trkpt><trkpt lat="45.5574916588761" lon="10.494784586554745"><ele>267.4</ele><time>2026-03-28T14:59:02Z</time></trkpt><trkpt lat="45.55744637984205" lon="10.49467172370955"><ele>268.0</ele><time>2026-03-28T14:59:03Z</time></trkpt><trkpt lat="45.557400798498804" lon="10.4945565192208"><ele>268.0</ele><time>2026-03-28T14:59:04Z</time></trkpt><trkpt lat="45.55734836254228" lon="10.494442967849913"><ele>268.0</ele><time>2026-03-28T14:59:05Z</time></trkpt><trkpt lat="45.55731472068052" lon="10.494335604286762"><ele>268.0</ele><time>2026-03-28T14:59:06Z</time></trkpt><trkpt lat="45.557280418887316" lon="10.494243595139718"><ele>268.0</ele><time>2026-03-28T14:59:07Z</time></trkpt><trkpt lat="45.55725592966951" lon="10.494135894155413"><ele>268.0</ele><time>2026-03-28T14:59:08Z</time></trkpt><trkpt lat="45.557234483133776" lon="10.494046614772754"><ele>268.0</ele><time>2026-03-28T14:59:09Z</time></trkpt><trkpt lat="45.55720676438608" lon="10.493934160870706"><ele>268.0</ele><time>2026-03-28T14:59:10Z</time></trkpt><trkpt lat="45.55716608999515" lon="10.493811014845228"><ele>268.0</ele><time>2026-03-28T14:59:11Z</time></trkpt><trkpt lat="45.5571102446899" lon="10.493692789690412"><ele>268.0</ele><time>2026-03-28T14:59:12Z</time></trkpt><trkpt lat="45.557055594886336" lon="10.493599117885838"><ele>268.0</ele><time>2026-03-28T14:59:13Z</time></trkpt><trkpt lat="45.557017140418225" lon="10.493522489607345"><ele>268.0</ele><time>2026-03-28T14:59:14Z</time></trkpt><trkpt lat="45.556990369630356" lon="10.493363896188187"><ele>267.3333333333333</ele><time>2026-03-28T14:59:16Z</time></trkpt><trkpt lat="45.557000644355014" lon="10.493274508218386"><ele>266.66666666666663</ele><time>2026-03-28T14:59:17Z</time></trkpt><trkpt lat="45.557019136321614" lon="10.493169762787817"><ele>266.0</ele><time>2026-03-28T14:59:18Z</time></trkpt><trkpt lat="45.5570035453805" lon="10.493079823413819"><ele>265.3333333333333</ele><time>2026-03-28T14:59:19Z</time></trkpt><trkpt lat="45.55696001502181" lon="10.492984613006888"><ele>264.6666666666667</ele><time>2026-03-28T14:59:20Z</time></trkpt><trkpt lat="45.55690060922377" lon="10.492898896308727"><ele>264.0</ele><time>2026-03-28T14:59:21Z</time></trkpt><trkpt lat="45.55681973649965" lon="10.492780696596583"><ele>264.0</ele><time>2026-03-28T14:59:23Z</time></trkpt><trkpt lat="45.55679335386339" lon="10.492695838396042"><ele>264.0</ele><time>2026-03-28T14:59:25Z</time></trkpt><trkpt lat="45.55688086304215" lon="10.492685499691314"><ele>264.0</ele><time>2026-03-28T14:59:28Z</time></trkpt><trkpt lat="45.556939718691545" lon="10.49272929490346"><ele>264.0</ele><time>2026-03-28T14:59:29Z</time></trkpt><trkpt lat="45.55702078645505" lon="10.492794892361852"><ele>264.0</ele><time>2026-03-28T14:59:30Z</time></trkpt><trkpt lat="45.55712054785046" lon="10.492838595608882"><ele>264.0</ele><time>2026-03-28T14:59:31Z</time></trkpt><trkpt lat="45.55720706234086" lon="10.492863517973067"><ele>265.4</ele><time>2026-03-28T14:59:32Z</time></trkpt><trkpt lat="45.5572996861471" lon="10.49289014470693"><ele>266.79999999999995</ele><time>2026-03-28T14:59:33Z</time></trkpt><trkpt lat="45.55736864898252" lon="10.492911443887248"><ele>268.20000000000005</ele><time>2026-03-28T14:59:34Z</time></trkpt><trkpt lat="45.557449511066174" lon="10.493015141826403"><ele>269.6</ele><time>2026-03-28T14:59:36Z</time></trkpt><trkpt lat="45.5574342779955" lon="10.493139176127585"><ele>271.0</ele><time>2026-03-28T14:59:37Z</time></trkpt><trkpt lat="45.557475372392254" lon="10.49325700623949"><ele>271.0</ele><time>2026-03-28T14:59:38Z</time></trkpt><trkpt lat="45.55748945021324" lon="10.49342428735796"><ele>271.0</ele><time>2026-03-28T14:59:39Z</time></trkpt><trkpt lat="45.55752595282345" lon="10.49359579600277"><ele>271.0</ele><time>2026-03-28T14:59:40Z</time></trkpt><trkpt lat="45.55756900917711" lon="10.493767907796599"><ele>271.0</ele><time>2026-03-28T14:59:41Z</time></trkpt><trkpt lat="45.557595929494866" lon="10.493944490346058"><ele>270.40000000000003</ele><time>2026-03-28T14:59:42Z</time></trkpt><trkpt lat="45.557623488788906" lon="10.494081662598822"><ele>269.8</ele><time>2026-03-28T14:59:43Z</time></trkpt><trkpt lat="45.557660897227" lon="10.494190640046687"><ele>269.20000000000005</ele><time>2026-03-28T14:59:44Z</time></trkpt><trkpt lat="45.557716288477906" lon="10.494297437079211"><ele>268.6</ele><time>2026-03-28T14:59:45Z</time></trkpt><trkpt lat="45.55778607410372" lon="10.494404787739327"><ele>268.0</ele><time>2026-03-28T14:59:46Z</time></trkpt><trkpt lat="45.55786113615483" lon="10.494542894786084"><ele>269.6</ele><time>2026-03-28T14:59:47Z</time></trkpt><trkpt lat="45.55794067936084" lon="10.494656495064747"><ele>271.20000000000005</ele><time>2026-03-28T14:59:48Z</time></trkpt><trkpt lat="45.55800135948167" lon="10.494723632462948"><ele>272.8</ele><time>2026-03-28T14:59:49Z</time></trkpt><trkpt lat="45.558119946846254" lon="10.494751109145774"><ele>274.40000000000003</ele><time>2026-03-28T14:59:51Z</time></trkpt><trkpt lat="45.55820810460906" lon="10.49470012890083"><ele>276.0</ele><time>2026-03-28T14:59:52Z</time></trkpt><trkpt lat="45.55830893304229" lon="10.494697765763721"><ele>276.0</ele><time>2026-03-28T14:59:53Z</time></trkpt><trkpt lat="45.55842985614362" lon="10.49468079261593"><ele>276.0</ele><time>2026-03-28T14:59:54Z</time></trkpt><trkpt lat="45.55856217773992" lon="10.494662219542501"><ele>276.0</ele><time>2026-03-28T14:59:55Z</time></trkpt><trkpt lat="45.558706822885355" lon="10.494644413200074"><ele>276.0</ele><time>2026-03-28T14:59:56Z</time></trkpt><trkpt lat="45.55885684624194" lon="10.494627871516792"><ele>277.8</ele><time>2026-03-28T14:59:57Z</time></trkpt><trkpt lat="45.55899386448131" lon="10.494619675305655"><ele>279.6</ele><time>2026-03-28T14:59:58Z</time></trkpt><trkpt lat="45.55910700211885" lon="10.494616772939809"><ele>281.4</ele><time>2026-03-28T14:59:59Z</time></trkpt><trkpt lat="45.55921374139384" lon="10.494610025143981"><ele>283.2</ele><time>2026-03-28T15:00:00Z</time></trkpt><trkpt lat="45.55930450005621" lon="10.494592885784472"><ele>285.0</ele><time>2026-03-28T15:00:01Z</time></trkpt><trkpt lat="45.55940316165628" lon="10.494569478360596"><ele>284.4</ele><time>2026-03-28T15:00:02Z</time></trkpt><trkpt lat="45.5595066735864" lon="10.494480927847004"><ele>283.8</ele><time>2026-03-28T15:00:03Z</time></trkpt><trkpt lat="45.55963296509625" lon="10.494437942041733"><ele>283.2</ele><time>2026-03-28T15:00:04Z</time></trkpt><trkpt lat="45.55974200082234" lon="10.494413900748045"><ele>282.6</ele><time>2026-03-28T15:00:05Z</time></trkpt><trkpt lat="45.55981998543974" lon="10.494438831634756"><ele>282.0</ele><time>2026-03-28T15:00:06Z</time></trkpt><trkpt lat="45.55991918353779" lon="10.494454610112253"><ele>282.0</ele><time>2026-03-28T15:00:08Z</time></trkpt><trkpt lat="45.55999773601431" lon="10.494445510296979"><ele>282.0</ele><time>2026-03-28T15:00:11Z</time></trkpt><trkpt lat="45.5600358094425" lon="10.494134431300392"><ele>282.0</ele><time>2026-03-28T15:00:12Z</time></trkpt><trkpt lat="45.56004098938618" lon="10.494008804558568"><ele>282.0</ele><time>2026-03-28T15:00:13Z</time></trkpt><trkpt lat="45.56002342629637" lon="10.493868888837161"><ele>281.8333333333333</ele><time>2026-03-28T15:00:14Z</time></trkpt><trkpt lat="45.56001694706289" lon="10.493744017801896"><ele>281.6666666666667</ele><time>2026-03-28T15:00:15Z</time></trkpt><trkpt lat="45.560037704916894" lon="10.493619875597114"><ele>281.5</ele><time>2026-03-28T15:00:16Z</time></trkpt><trkpt lat="45.56006141657119" lon="10.493505061877844"><ele>281.33333333333337</ele><time>2026-03-28T15:00:17Z</time></trkpt><trkpt lat="45.560097445151904" lon="10.493385812611521"><ele>281.1666666666667</ele><time>2026-03-28T15:00:18Z</time></trkpt><trkpt lat="45.56014344332233" lon="10.49327996346064"><ele>281.0</ele><time>2026-03-28T15:00:19Z</time></trkpt><trkpt lat="45.5602097795773" lon="10.493188857429143"><ele>281.0</ele><time>2026-03-28T15:00:20Z</time></trkpt><trkpt lat="45.56027230144642" lon="10.493099877086667"><ele>281.0</ele><time>2026-03-28T15:00:21Z</time></trkpt><trkpt lat="45.56033229652029" lon="10.492988607515924"><ele>281.0</ele><time>2026-03-28T15:00:22Z</time></trkpt><trkpt lat="45.56039296150545" lon="10.49286859999534"><ele>281.0</ele><time>2026-03-28T15:00:23Z</time></trkpt><trkpt lat="45.560437376028275" lon="10.492767523535143"><ele>281.0</ele><time>2026-03-28T15:00:24Z</time></trkpt><trkpt lat="45.560487966641546" lon="10.49264654890089"><ele>279.5</ele><time>2026-03-28T15:00:25Z</time></trkpt><trkpt lat="45.56057411900205" lon="10.492497464554274"><ele>278.0</ele><time>2026-03-28T15:00:26Z</time></trkpt><trkpt lat="45.560665816361684" lon="10.49237380849787"><ele>276.5</ele><time>2026-03-28T15:00:27Z</time></trkpt><trkpt lat="45.56076219763685" lon="10.492248249529064"><ele>275.0</ele><time>2026-03-28T15:00:28Z</time></trkpt><trkpt lat="45.560856484802905" lon="10.492140438155552"><ele>275.33333333333337</ele><time>2026-03-28T15:00:29Z</time></trkpt><trkpt lat="45.56092883652659" lon="10.49205540319961"><ele>275.6666666666667</ele><time>2026-03-28T15:00:30Z</time></trkpt><trkpt lat="45.56098912548776" lon="10.49197599769682"><ele>276.0</ele><time>2026-03-28T15:00:31Z</time></trkpt><trkpt lat="45.56101509122858" lon="10.491892864895462"><ele>276.3333333333333</ele><time>2026-03-28T15:00:32Z</time></trkpt><trkpt lat="45.56105936191825" lon="10.491788194897033"><ele>276.66666666666663</ele><time>2026-03-28T15:00:33Z</time></trkpt><trkpt lat="45.56112951756639" lon="10.49170473205497"><ele>277.0</ele><time>2026-03-28T15:00:34Z</time></trkpt><trkpt lat="45.56122417463362" lon="10.491636606056323"><ele>279.0</ele><time>2026-03-28T15:00:35Z</time></trkpt><trkpt lat="45.56133449468485" lon="10.491573984384337"><ele>281.0</ele><time>2026-03-28T15:00:36Z</time></trkpt><trkpt lat="45.56145546276512" lon="10.49153091961925"><ele>283.0</ele><time>2026-03-28T15:00:37Z</time></trkpt><trkpt lat="45.56159712377701" lon="10.49149218218903"><ele>285.0</ele><time>2026-03-28T15:00:38Z</time></trkpt><trkpt lat="45.56175925242593" lon="10.491463908379645"><ele>285.0</ele><time>2026-03-28T15:00:39Z</time></trkpt><trkpt lat="45.56190694362896" lon="10.491429163267362"><ele>285.0</ele><time>2026-03-28T15:00:40Z</time></trkpt><trkpt lat="45.56205088101564" lon="10.491393325105449"><ele>285.0</ele><time>2026-03-28T15:00:41Z</time></trkpt><trkpt lat="45.562194171504736" lon="10.491348275793658"><ele>285.0</ele><time>2026-03-28T15:00:42Z</time></trkpt><trkpt lat="45.56231863302957" lon="10.491304519882638"><ele>286.0</ele><time>2026-03-28T15:00:43Z</time></trkpt><trkpt lat="45.56242885105685" lon="10.491262182489285"><ele>287.0</ele><time>2026-03-28T15:00:44Z</time></trkpt><trkpt lat="45.56252342642894" lon="10.49121674769573"><ele>288.0</ele><time>2026-03-28T15:00:45Z</time></trkpt><trkpt lat="45.56259810507441" lon="10.491175597660936"><ele>289.0</ele><time>2026-03-28T15:00:46Z</time></trkpt><trkpt lat="45.562671437398365" lon="10.491157848411628"><ele>290.0</ele><time>2026-03-28T15:00:47Z</time></trkpt><trkpt lat="45.56277376846897" lon="10.491144710415389"><ele>290.0</ele><time>2026-03-28T15:00:49Z</time></trkpt><trkpt lat="45.5628408837422" lon="10.491138187838631"><ele>290.0</ele><time>2026-03-28T15:00:50Z</time></trkpt><trkpt lat="45.56292956355135" lon="10.491089212666395"><ele>290.0</ele><time>2026-03-28T15:00:52Z</time></trkpt><trkpt lat="45.562996670076785" lon="10.491045769119609"><ele>290.0</ele><time>2026-03-28T15:00:53Z</time></trkpt><trkpt lat="45.56306810266929" lon="10.491004513357533"><ele>290.0</ele><time>2026-03-28T15:00:54Z</time></trkpt><trkpt lat="45.5631531986881" lon="10.490957579478774"><ele>290.0</ele><time>2026-03-28T15:00:55Z</time></trkpt><trkpt lat="45.56323175165851" lon="10.490918099555847"><ele>290.33333333333337</ele><time>2026-03-28T15:00:56Z</time></trkpt><trkpt lat="45.563306511092044" lon="10.490867059676058"><ele>290.6666666666667</ele><time>2026-03-28T15:00:57Z</time></trkpt><trkpt lat="45.5633631779566" lon="10.490822816499627"><ele>291.0</ele><time>2026-03-28T15:00:58Z</time></trkpt><trkpt lat="45.5634196189529" lon="10.49078088022139"><ele>291.3333333333333</ele><time>2026-03-28T15:00:59Z</time></trkpt><trkpt lat="45.56353642850149" lon="10.49080088886503"><ele>291.66666666666663</ele><time>2026-03-28T15:01:01Z</time></trkpt><trkpt lat="45.5636155354026" lon="10.490814477988934"><ele>292.0</ele><time>2026-03-28T15:01:02Z</time></trkpt><trkpt lat="45.56371725403558" lon="10.490818154997319"><ele>292.5</ele><time>2026-03-28T15:01:03Z</time></trkpt><trkpt lat="45.56382160703722" lon="10.490826135190957"><ele>293.0</ele><time>2026-03-28T15:01:04Z</time></trkpt><trkpt lat="45.56391779591411" lon="10.490835020938828"><ele>293.5</ele><time>2026-03-28T15:01:05Z</time></trkpt><trkpt lat="45.56399999021965" lon="10.490860331625809"><ele>294.0</ele><time>2026-03-28T15:01:06Z</time></trkpt><trkpt lat="45.56406653799139" lon="10.490881228798496"><ele>294.5</ele><time>2026-03-28T15:01:07Z</time></trkpt><trkpt lat="45.56415249784958" lon="10.490888055603373"><ele>295.0</ele><time>2026-03-28T15:01:09Z</time></trkpt><trkpt lat="45.56420582037255" lon="10.490772052456293"><ele>295.0</ele><time>2026-03-28T15:01:11Z</time></trkpt><trkpt lat="45.56423194233775" lon="10.490658667105146"><ele>295.0</ele><time>2026-03-28T15:01:12Z</time></trkpt><trkpt lat="45.56429155242576" lon="10.490552940034542"><ele>295.0</ele><time>2026-03-28T15:01:13Z</time></trkpt><trkpt lat="45.564349277581535" lon="10.490425329983497"><ele>295.0</ele><time>2026-03-28T15:01:14Z</time></trkpt><trkpt lat="45.56441882325386" lon="10.49026702523449"><ele>295.0</ele><time>2026-03-28T15:01:15Z</time></trkpt><trkpt lat="45.56446253638848" lon="10.490128022618581"><ele>294.2</ele><time>2026-03-28T15:01:16Z</time></trkpt><trkpt lat="45.564518338999854" lon="10.490006299158907"><ele>293.4</ele><time>2026-03-28T15:01:17Z</time></trkpt><trkpt lat="45.56458549346924" lon="10.489891114336027"><ele>292.6</ele><time>2026-03-28T15:01:18Z</time></trkpt><trkpt lat="45.5646638812824" lon="10.489786492803306"><ele>291.8</ele><time>2026-03-28T15:01:19Z</time></trkpt><trkpt lat="45.564754964315725" lon="10.489679060280078"><ele>291.0</ele><time>2026-03-28T15:01:20Z</time></trkpt><trkpt lat="45.5648415622145" lon="10.489587877341924"><ele>290.6</ele><time>2026-03-28T15:01:21Z</time></trkpt><trkpt lat="45.56490597322994" lon="10.489497939430589"><ele>290.20000000000005</ele><time>2026-03-28T15:01:22Z</time></trkpt><trkpt lat="45.5649789849338" lon="10.48943657666812"><ele>289.79999999999995</ele><time>2026-03-28T15:01:23Z</time></trkpt><trkpt lat="45.56503278365253" lon="10.489346010919046"><ele>289.4</ele><time>2026-03-28T15:01:24Z</time></trkpt><trkpt lat="45.56512183260154" lon="10.489276025440645"><ele>289.0</ele><time>2026-03-28T15:01:25Z</time></trkpt><trkpt lat="45.56521059711175" lon="10.489188142950422"><ele>289.0</ele><time>2026-03-28T15:01:26Z</time></trkpt><trkpt lat="45.56529981523141" lon="10.489130152724332"><ele>289.0</ele><time>2026-03-28T15:01:27Z</time></trkpt><trkpt lat="45.565376965641796" lon="10.489074452677519"><ele>289.0</ele><time>2026-03-28T15:01:28Z</time></trkpt><trkpt lat="45.565433085402496" lon="10.489015341468697"><ele>289.0</ele><time>2026-03-28T15:01:29Z</time></trkpt><trkpt lat="45.565513484899704" lon="10.489029764260225"><ele>289.0</ele><time>2026-03-28T15:01:31Z</time></trkpt><trkpt lat="45.56555721901366" lon="10.48913773503992"><ele>289.0</ele><time>2026-03-28T15:01:33Z</time></trkpt><trkpt lat="45.565613390824645" lon="10.489233226529315"><ele>289.25</ele><time>2026-03-28T15:01:34Z</time></trkpt><trkpt lat="45.56567989610829" lon="10.489343641279007"><ele>289.5</ele><time>2026-03-28T15:01:35Z</time></trkpt><trkpt lat="45.56576487973549" lon="10.489465330145816"><ele>289.75</ele><time>2026-03-28T15:01:36Z</time></trkpt><trkpt lat="45.565824194898504" lon="10.489611155541507"><ele>290.0</ele><time>2026-03-28T15:01:37Z</time></trkpt><trkpt lat="45.565894843703184" lon="10.48975071023975"><ele>290.5</ele><time>2026-03-28T15:01:38Z</time></trkpt><trkpt lat="45.56595273770341" lon="10.489867454094826"><ele>291.0</ele><time>2026-03-28T15:01:39Z</time></trkpt><trkpt lat="45.56598673731505" lon="10.489964964138634"><ele>291.5</ele><time>2026-03-28T15:01:40Z</time></trkpt><trkpt lat="45.56601219656877" lon="10.490081102917499"><ele>292.0</ele><time>2026-03-28T15:01:41Z</time></trkpt><trkpt lat="45.56604225641696" lon="10.490189670051896"><ele>292.5</ele><time>2026-03-28T15:01:42Z</time></trkpt><trkpt lat="45.566080741253096" lon="10.490314627240974"><ele>293.0</ele><time>2026-03-28T15:01:43Z</time></trkpt><trkpt lat="45.566116362809595" lon="10.490423983754319"><ele>293.2</ele><time>2026-03-28T15:01:44Z</time></trkpt><trkpt lat="45.56615930582464" lon="10.490517725162784"><ele>293.4</ele><time>2026-03-28T15:01:45Z</time></trkpt><trkpt lat="45.56620553955305" lon="10.49064045139536"><ele>293.59999999999997</ele><time>2026-03-28T15:01:46Z</time></trkpt><trkpt lat="45.56627754002599" lon="10.490730589892216"><ele>293.8</ele><time>2026-03-28T15:01:47Z</time></trkpt><trkpt lat="45.56633759272338" lon="10.490848664465284"><ele>294.0</ele><time>2026-03-28T15:01:48Z</time></trkpt><trkpt lat="45.56639704133757" lon="10.490931980345822"><ele>294.0</ele><time>2026-03-28T15:01:49Z</time></trkpt><trkpt lat="45.566462413082334" lon="10.49100643608056"><ele>294.0</ele><time>2026-03-28T15:01:50Z</time></trkpt><trkpt lat="45.566561239823116" lon="10.49106259545811"><ele>294.0</ele><time>2026-03-28T15:01:51Z</time></trkpt><trkpt lat="45.56666492517496" lon="10.49112796958432"><ele>294.0</ele><time>2026-03-28T15:01:52Z</time></trkpt><trkpt lat="45.566772268721984" lon="10.491182784735704"><ele>294.0</ele><time>2026-03-28T15:01:53Z</time></trkpt><trkpt lat="45.566848347236224" lon="10.491238152357667"><ele>294.5</ele><time>2026-03-28T15:01:54Z</time></trkpt><trkpt lat="45.56693799693874" lon="10.491263625491438"><ele>295.0</ele><time>2026-03-28T15:01:55Z</time></trkpt><trkpt lat="45.567038479384316" lon="10.491271291208559"><ele>295.5</ele><time>2026-03-28T15:01:56Z</time></trkpt><trkpt lat="45.567128243799715" lon="10.49123242700348"><ele>296.0</ele><time>2026-03-28T15:01:57Z</time></trkpt><trkpt lat="45.5672081032692" lon="10.491244908397666"><ele>296.5</ele><time>2026-03-28T15:01:58Z</time></trkpt><trkpt lat="45.56728040803464" lon="10.491237730488693"><ele>297.0</ele><time>2026-03-28T15:01:59Z</time></trkpt><trkpt lat="45.56737916529466" lon="10.491257193472086"><ele>297.0</ele><time>2026-03-28T15:02:01Z</time></trkpt><trkpt lat="45.567450347284584" lon="10.491311661835832"><ele>297.0</ele><time>2026-03-28T15:02:03Z</time></trkpt><trkpt lat="45.56746791688358" lon="10.491433802086538"><ele>297.0</ele><time>2026-03-28T15:02:05Z</time></trkpt><trkpt lat="45.56752000841793" lon="10.491592593691863"><ele>297.0</ele><time>2026-03-28T15:02:07Z</time></trkpt><trkpt lat="45.56756186907915" lon="10.491706912193969"><ele>297.0</ele><time>2026-03-28T15:02:08Z</time></trkpt><trkpt lat="45.56759018645599" lon="10.49182460585509"><ele>297.0</ele><time>2026-03-28T15:02:09Z</time></trkpt><trkpt lat="45.56765000762994" lon="10.49194102224502"><ele>297.0</ele><time>2026-03-28T15:02:10Z</time></trkpt><trkpt lat="45.567712406926084" lon="10.492020507626904"><ele>297.0</ele><time>2026-03-28T15:02:11Z</time></trkpt><trkpt lat="45.56778012064712" lon="10.492085729401637"><ele>297.0</ele><time>2026-03-28T15:02:12Z</time></trkpt><trkpt lat="45.56783824087672" lon="10.49213981731682"><ele>297.0</ele><time>2026-03-28T15:02:13Z</time></trkpt><trkpt lat="45.56791120431212" lon="10.492199837050176"><ele>297.0</ele><time>2026-03-28T15:02:15Z</time></trkpt><trkpt lat="45.567873782117246" lon="10.492300450300812"><ele>296.8</ele><time>2026-03-28T15:02:16Z</time></trkpt><trkpt lat="45.56787010287505" lon="10.49240324991334"><ele>296.6</ele><time>2026-03-28T15:02:17Z</time></trkpt><trkpt lat="45.56787545002381" lon="10.492548340159686"><ele>296.40000000000003</ele><time>2026-03-28T15:02:18Z</time></trkpt><trkpt lat="45.56786879167922" lon="10.492684878675272"><ele>296.2</ele><time>2026-03-28T15:02:19Z</time></trkpt><trkpt lat="45.56785549870386" lon="10.492850219819124"><ele>296.0</ele><time>2026-03-28T15:02:20Z</time></trkpt><trkpt lat="45.56784412587868" lon="10.493011335115458"><ele>296.0</ele><time>2026-03-28T15:02:21Z</time></trkpt><trkpt lat="45.56783601244665" lon="10.493152690525683"><ele>296.0</ele><time>2026-03-28T15:02:22Z</time></trkpt><trkpt lat="45.56782808847754" lon="10.493302598891047"><ele>296.0</ele><time>2026-03-28T15:02:23Z</time></trkpt><trkpt lat="45.56781347288011" lon="10.493415861880488"><ele>296.0</ele><time>2026-03-28T15:02:24Z</time></trkpt><trkpt lat="45.567806745317405" lon="10.493513403335582"><ele>296.0</ele><time>2026-03-28T15:02:25Z</time></trkpt><trkpt lat="45.56779131257846" lon="10.4936019545099"><ele>296.0</ele><time>2026-03-28T15:02:26Z</time></trkpt><trkpt lat="45.56778663100068" lon="10.493755013603352"><ele>295.8</ele><time>2026-03-28T15:02:28Z</time></trkpt><trkpt lat="45.567785608362165" lon="10.493853069576957"><ele>295.6</ele><time>2026-03-28T15:02:29Z</time></trkpt><trkpt lat="45.56778930667878" lon="10.493976565166683"><ele>295.4</ele><time>2026-03-28T15:02:30Z</time></trkpt><trkpt lat="45.567797578723685" lon="10.494129435103346"><ele>295.2</ele><time>2026-03-28T15:02:31Z</time></trkpt><trkpt lat="45.56780553532757" lon="10.494276475708109"><ele>295.0</ele><time>2026-03-28T15:02:32Z</time></trkpt><trkpt lat="45.56781235263466" lon="10.49440246179222"><ele>295.0</ele><time>2026-03-28T15:02:33Z</time></trkpt><trkpt lat="45.56781710227714" lon="10.494541247984435"><ele>295.0</ele><time>2026-03-28T15:02:34Z</time></trkpt><trkpt lat="45.56781928346682" lon="10.49469002357681"><ele>295.0</ele><time>2026-03-28T15:02:35Z</time></trkpt><trkpt lat="45.56779542759726" lon="10.494859727452985"><ele>295.0</ele><time>2026-03-28T15:02:36Z</time></trkpt><trkpt lat="45.56775835063304" lon="10.494966268069486"><ele>295.0</ele><time>2026-03-28T15:02:37Z</time></trkpt><trkpt lat="45.567709984068436" lon="10.495072564965232"><ele>293.4</ele><time>2026-03-28T15:02:39Z</time></trkpt><trkpt lat="45.56766285543301" lon="10.495138577235135"><ele>291.8</ele><time>2026-03-28T15:02:41Z</time></trkpt><trkpt lat="45.56762722390279" lon="10.49527101992046"><ele>290.2</ele><time>2026-03-28T15:02:43Z</time></trkpt><trkpt lat="45.567598907730904" lon="10.495455860691623"><ele>288.6</ele><time>2026-03-28T15:02:45Z</time></trkpt><trkpt lat="45.56757251786562" lon="10.49556458707955"><ele>287.0</ele><time>2026-03-28T15:02:46Z</time></trkpt><trkpt lat="45.56754298586508" lon="10.495658201227577"><ele>285.2</ele><time>2026-03-28T15:02:47Z</time></trkpt><trkpt lat="45.5675287969592" lon="10.495774613107182"><ele>283.4</ele><time>2026-03-28T15:02:48Z</time></trkpt><trkpt lat="45.5675392723506" lon="10.49591127210095"><ele>281.6</ele><time>2026-03-28T15:02:49Z</time></trkpt><trkpt lat="45.5675521755015" lon="10.49601759697404"><ele>279.8</ele><time>2026-03-28T15:02:50Z</time></trkpt><trkpt lat="45.56757022131402" lon="10.496143167583588"><ele>278.0</ele><time>2026-03-28T15:02:52Z</time></trkpt><trkpt lat="45.56771408285063" lon="10.496141913753291"><ele>278.0</ele><time>2026-03-28T15:02:55Z</time></trkpt><trkpt lat="45.56780247036409" lon="10.49611167569873"><ele>278.0</ele><time>2026-03-28T15:02:56Z</time></trkpt><trkpt lat="45.56789550255166" lon="10.496061008013056"><ele>278.0</ele><time>2026-03-28T15:02:57Z</time></trkpt><trkpt lat="45.56797629447076" lon="10.496014631147492"><ele>278.0</ele><time>2026-03-28T15:02:58Z</time></trkpt><trkpt lat="45.56804724972468" lon="10.495969143236977"><ele>278.0</ele><time>2026-03-28T15:02:59Z</time></trkpt><trkpt lat="45.56811756417051" lon="10.495902501952836"><ele>278.0</ele><time>2026-03-28T15:03:00Z</time></trkpt><trkpt lat="45.568157204174085" lon="10.495805494250078"><ele>278.8</ele><time>2026-03-28T15:03:01Z</time></trkpt><trkpt lat="45.56819230262539" lon="10.49570864933263"><ele>279.6</ele><time>2026-03-28T15:03:02Z</time></trkpt><trkpt lat="45.568236966820805" lon="10.49558615813846"><ele>280.4</ele><time>2026-03-28T15:03:03Z</time></trkpt><trkpt lat="45.56828033240486" lon="10.495435843681408"><ele>281.2</ele><time>2026-03-28T15:03:04Z</time></trkpt><trkpt lat="45.5683079521842" lon="10.495267438309254"><ele>282.0</ele><time>2026-03-28T15:03:05Z</time></trkpt><trkpt lat="45.56835533298561" lon="10.495123255075216"><ele>282.0</ele><time>2026-03-28T15:03:06Z</time></trkpt><trkpt lat="45.568390464845606" lon="10.49499689429218"><ele>282.0</ele><time>2026-03-28T15:03:07Z</time></trkpt><trkpt lat="45.56842235307831" lon="10.494909349540249"><ele>282.0</ele><time>2026-03-28T15:03:08Z</time></trkpt><trkpt lat="45.568470118148326" lon="10.49484686982311"><ele>282.0</ele><time>2026-03-28T15:03:09Z</time></trkpt><trkpt lat="45.56853616917103" lon="10.494807585766656"><ele>282.0</ele><time>2026-03-28T15:03:10Z</time></trkpt><trkpt lat="45.56862580315371" lon="10.494774166592938"><ele>282.0</ele><time>2026-03-28T15:03:11Z</time></trkpt><trkpt lat="45.56871156110826" lon="10.494743050089449"><ele>283.0</ele><time>2026-03-28T15:03:12Z</time></trkpt><trkpt lat="45.56879134029903" lon="10.494703496849835"><ele>284.0</ele><time>2026-03-28T15:03:13Z</time></trkpt><trkpt lat="45.56886203253411" lon="10.494662901282899"><ele>285.0</ele><time>2026-03-28T15:03:14Z</time></trkpt><trkpt lat="45.56893619820051" lon="10.494618239569503"><ele>286.0</ele><time>2026-03-28T15:03:15Z</time></trkpt><trkpt lat="45.569014718017975" lon="10.494586296192185"><ele>287.0</ele><time>2026-03-28T15:03:16Z</time></trkpt><trkpt lat="45.569084413271376" lon="10.494559714639873"><ele>288.0</ele><time>2026-03-28T15:03:17Z</time></trkpt><trkpt lat="45.569150737630224" lon="10.494514388015155"><ele>288.0</ele><time>2026-03-28T15:03:18Z</time></trkpt><trkpt lat="45.56924286648362" lon="10.494379429910111"><ele>288.0</ele><time>2026-03-28T15:03:20Z</time></trkpt><trkpt lat="45.56927367716818" lon="10.494277279210271"><ele>288.0</ele><time>2026-03-28T15:03:21Z</time></trkpt><trkpt lat="45.56932066951764" lon="10.494201930374771"><ele>288.0</ele><time>2026-03-28T15:03:22Z</time></trkpt><trkpt lat="45.56942925256497" lon="10.494154439030893"><ele>288.0</ele><time>2026-03-28T15:03:24Z</time></trkpt><trkpt lat="45.56952106671579" lon="10.494183234389352"><ele>288.4</ele><time>2026-03-28T15:03:25Z</time></trkpt><trkpt lat="45.569637767575415" lon="10.494145022551969"><ele>288.8</ele><time>2026-03-28T15:03:26Z</time></trkpt><trkpt lat="45.56975966518267" lon="10.494123791666148"><ele>289.2</ele><time>2026-03-28T15:03:27Z</time></trkpt><trkpt lat="45.56985650947623" lon="10.4940941420727"><ele>289.6</ele><time>2026-03-28T15:03:28Z</time></trkpt><trkpt lat="45.56992084014055" lon="10.494060244082757"><ele>290.0</ele><time>2026-03-28T15:03:29Z</time></trkpt><trkpt lat="45.569996314410304" lon="10.494028828056289"><ele>290.0</ele><time>2026-03-28T15:03:31Z</time></trkpt><trkpt lat="45.57005226864181" lon="10.494090993061098"><ele>290.0</ele><time>2026-03-28T15:03:33Z</time></trkpt><trkpt lat="45.57006990936196" lon="10.494194070271538"><ele>290.0</ele><time>2026-03-28T15:03:34Z</time></trkpt><trkpt lat="45.570118193874784" lon="10.494307005576466"><ele>290.0</ele><time>2026-03-28T15:03:35Z</time></trkpt><trkpt lat="45.57015375325925" lon="10.494458906730587"><ele>290.0</ele><time>2026-03-28T15:03:36Z</time></trkpt><trkpt lat="45.570183914557326" lon="10.49460029400245"><ele>290.4</ele><time>2026-03-28T15:03:37Z</time></trkpt><trkpt lat="45.57021508809601" lon="10.494703486437695"><ele>290.8</ele><time>2026-03-28T15:03:38Z</time></trkpt><trkpt lat="45.570286604929656" lon="10.494773386153422"><ele>291.2</ele><time>2026-03-28T15:03:39Z</time></trkpt><trkpt lat="45.570400819845155" lon="10.494784723383555"><ele>291.6</ele><time>2026-03-28T15:03:40Z</time></trkpt><trkpt lat="45.57051864485475" lon="10.494873333381918"><ele>292.0</ele><time>2026-03-28T15:03:41Z</time></trkpt><trkpt lat="45.570658055560244" lon="10.494924877035697"><ele>292.3333333333333</ele><time>2026-03-28T15:03:42Z</time></trkpt><trkpt lat="45.570805024710126" lon="10.49500498923047"><ele>292.6666666666667</ele><time>2026-03-28T15:03:43Z</time></trkpt><trkpt lat="45.57095756508565" lon="10.495070858292827"><ele>293.0</ele><time>2026-03-28T15:03:44Z</time></trkpt><trkpt lat="45.571112613099956" lon="10.49513363109205"><ele>294.5</ele><time>2026-03-28T15:03:45Z</time></trkpt><trkpt lat="45.571242445713615" lon="10.495192193131812"><ele>296.0</ele><time>2026-03-28T15:03:46Z</time></trkpt><trkpt lat="45.571352724530804" lon="10.495251363935076"><ele>297.5</ele><time>2026-03-28T15:03:47Z</time></trkpt><trkpt lat="45.571452452693414" lon="10.495321667564221"><ele>299.0</ele><time>2026-03-28T15:03:48Z</time></trkpt><trkpt lat="45.57153432158867" lon="10.495405940578953"><ele>298.6666666666667</ele><time>2026-03-28T15:03:49Z</time></trkpt><trkpt lat="45.571586892476695" lon="10.495495333893217"><ele>298.33333333333337</ele><time>2026-03-28T15:03:50Z</time></trkpt><trkpt lat="45.57162477800692" lon="10.495586157162544"><ele>298.0</ele><time>2026-03-28T15:03:51Z</time></trkpt><trkpt lat="45.5716517670692" lon="10.495677543249315"><ele>297.6666666666667</ele><time>2026-03-28T15:03:52Z</time></trkpt><trkpt lat="45.57166149565915" lon="10.495791706284738"><ele>297.3333333333333</ele><time>2026-03-28T15:03:53Z</time></trkpt><trkpt lat="45.571671932178106" lon="10.495952750626364"><ele>297.0</ele><time>2026-03-28T15:03:54Z</time></trkpt><trkpt lat="45.57169890944855" lon="10.496133231663018"><ele>298.3333333333333</ele><time>2026-03-28T15:03:55Z</time></trkpt><trkpt lat="45.57175083315329" lon="10.496353501573163"><ele>299.66666666666663</ele><time>2026-03-28T15:03:56Z</time></trkpt><trkpt lat="45.5718053241615" lon="10.496569609281204"><ele>301.0</ele><time>2026-03-28T15:03:57Z</time></trkpt><trkpt lat="45.57187413285918" lon="10.496768725901271"><ele>301.0</ele><time>2026-03-28T15:03:58Z</time></trkpt><trkpt lat="45.571925288952436" lon="10.496932724245491"><ele>301.0</ele><time>2026-03-28T15:03:59Z</time></trkpt><trkpt lat="45.571968917326174" lon="10.497044164541688"><ele>301.0</ele><time>2026-03-28T15:04:00Z</time></trkpt><trkpt lat="45.57199044675086" lon="10.497130210237144"><ele>301.0</ele><time>2026-03-28T15:04:01Z</time></trkpt><trkpt lat="45.57203436850449" lon="10.497268380939506"><ele>301.0</ele><time>2026-03-28T15:04:03Z</time></trkpt><trkpt lat="45.572044275218474" lon="10.497393225356216"><ele>301.16666666666663</ele><time>2026-03-28T15:04:05Z</time></trkpt><trkpt lat="45.57204243027228" lon="10.49754044871778"><ele>301.3333333333333</ele><time>2026-03-28T15:04:07Z</time></trkpt><trkpt lat="45.572035825624944" lon="10.49763565640572"><ele>301.5</ele><time>2026-03-28T15:04:08Z</time></trkpt><trkpt lat="45.57202385204177" lon="10.497769296469423"><ele>301.6666666666667</ele><time>2026-03-28T15:04:09Z</time></trkpt><trkpt lat="45.57200496457737" lon="10.497904555898689"><ele>301.83333333333337</ele><time>2026-03-28T15:04:10Z</time></trkpt><trkpt lat="45.571985930096716" lon="10.498012131341975"><ele>302.0</ele><time>2026-03-28T15:04:11Z</time></trkpt><trkpt lat="45.571977346072636" lon="10.498115047978185"><ele>300.0</ele><time>2026-03-28T15:04:12Z</time></trkpt><trkpt lat="45.57198381779579" lon="10.498225483213073"><ele>298.0</ele><time>2026-03-28T15:04:13Z</time></trkpt><trkpt lat="45.5720096525141" lon="10.498341163664879"><ele>296.0</ele><time>2026-03-28T15:04:14Z</time></trkpt><trkpt lat="45.572044652432226" lon="10.49846100220537"><ele>294.0</ele><time>2026-03-28T15:04:15Z</time></trkpt><trkpt lat="45.57206973127809" lon="10.498596952117678"><ele>292.0</ele><time>2026-03-28T15:04:16Z</time></trkpt><trkpt lat="45.572100368484186" lon="10.498717064857862"><ele>290.0</ele><time>2026-03-28T15:04:17Z</time></trkpt><trkpt lat="45.57211436876076" lon="10.498817421665423"><ele>288.1666666666667</ele><time>2026-03-28T15:04:18Z</time></trkpt><trkpt lat="45.57213662821759" lon="10.498926986392203"><ele>286.33333333333337</ele><time>2026-03-28T15:04:19Z</time></trkpt><trkpt lat="45.57215967754135" lon="10.499014433518294"><ele>284.5</ele><time>2026-03-28T15:04:20Z</time></trkpt><trkpt lat="45.5721827569968" lon="10.499171745261503"><ele>282.6666666666667</ele><time>2026-03-28T15:04:22Z</time></trkpt><trkpt lat="45.57216045166669" lon="10.499312826425601"><ele>280.8333333333333</ele><time>2026-03-28T15:04:24Z</time></trkpt><trkpt lat="45.57215080563167" lon="10.499427154430249"><ele>279.0</ele><time>2026-03-28T15:04:26Z</time></trkpt><trkpt lat="45.57225804642376" lon="10.499247623078027"><ele>279.0</ele><time>2026-03-28T15:04:33Z</time></trkpt><trkpt lat="45.572272178260654" lon="10.49907663459925"><ele>279.0</ele><time>2026-03-28T15:04:34Z</time></trkpt><trkpt lat="45.57228332383669" lon="10.498934323428086"><ele>279.0</ele><time>2026-03-28T15:04:35Z</time></trkpt><trkpt lat="45.57229852768679" lon="10.498765741925695"><ele>279.0</ele><time>2026-03-28T15:04:36Z</time></trkpt><trkpt lat="45.57231459642672" lon="10.498593342399726"><ele>280.0</ele><time>2026-03-28T15:04:37Z</time></trkpt><trkpt lat="45.57233640688825" lon="10.4984150812845"><ele>281.0</ele><time>2026-03-28T15:04:38Z</time></trkpt><trkpt lat="45.572378060847974" lon="10.498232053176794"><ele>282.0</ele><time>2026-03-28T15:04:39Z</time></trkpt><trkpt lat="45.57244955290706" lon="10.498036667341628"><ele>283.0</ele><time>2026-03-28T15:04:40Z</time></trkpt><trkpt lat="45.57251782790401" lon="10.497835561731588"><ele>284.5</ele><time>2026-03-28T15:04:41Z</time></trkpt><trkpt lat="45.572596867269695" lon="10.497646478137588"><ele>286.0</ele><time>2026-03-28T15:04:42Z</time></trkpt><trkpt lat="45.57265957178094" lon="10.497462776446847"><ele>287.5</ele><time>2026-03-28T15:04:43Z</time></trkpt><trkpt lat="45.57270877532474" lon="10.497296963692053"><ele>289.0</ele><time>2026-03-28T15:04:44Z</time></trkpt><trkpt lat="45.572745502252275" lon="10.49712103159366"><ele>289.25</ele><time>2026-03-28T15:04:45Z</time></trkpt><trkpt lat="45.572768072509305" lon="10.496929553213066"><ele>289.5</ele><time>2026-03-28T15:04:46Z</time></trkpt><trkpt lat="45.57277079794839" lon="10.496729074282694"><ele>289.75</ele><time>2026-03-28T15:04:47Z</time></trkpt><trkpt lat="45.57277632687647" lon="10.496538024403334"><ele>290.0</ele><time>2026-03-28T15:04:48Z</time></trkpt><trkpt lat="45.57276620549703" lon="10.496360738072562"><ele>290.75</ele><time>2026-03-28T15:04:49Z</time></trkpt><trkpt lat="45.57275390332234" lon="10.49619810981065"><ele>291.5</ele><time>2026-03-28T15:04:50Z</time></trkpt><trkpt lat="45.57272532474851" lon="10.496029676083925"><ele>292.25</ele><time>2026-03-28T15:04:51Z</time></trkpt><trkpt lat="45.57268910550892" lon="10.495863013223715"><ele>293.0</ele><time>2026-03-28T15:04:52Z</time></trkpt><trkpt lat="45.572660838237866" lon="10.495714643452441"><ele>293.0</ele><time>2026-03-28T15:04:53Z</time></trkpt><trkpt lat="45.57264637866862" lon="10.495566435600074"><ele>293.0</ele><time>2026-03-28T15:04:54Z</time></trkpt><trkpt lat="45.57265335956624" lon="10.495419101255683"><ele>293.0</ele><time>2026-03-28T15:04:55Z</time></trkpt><trkpt lat="45.5727055003695" lon="10.495278779932432"><ele>293.0</ele><time>2026-03-28T15:04:56Z</time></trkpt><trkpt lat="45.57276537926869" lon="10.495115040681435"><ele>293.0</ele><time>2026-03-28T15:04:57Z</time></trkpt><trkpt lat="45.57284591090162" lon="10.494962825574465"><ele>292.33333333333337</ele><time>2026-03-28T15:04:58Z</time></trkpt><trkpt lat="45.57294837136819" lon="10.494822380991218"><ele>291.6666666666667</ele><time>2026-03-28T15:04:59Z</time></trkpt><trkpt lat="45.57305325795918" lon="10.49466586468227"><ele>291.0</ele><time>2026-03-28T15:05:00Z</time></trkpt><trkpt lat="45.57317831158306" lon="10.494520916071247"><ele>295.25</ele><time>2026-03-28T15:05:01Z</time></trkpt><trkpt lat="45.57328934387433" lon="10.494384260122642"><ele>299.5</ele><time>2026-03-28T15:05:02Z</time></trkpt><trkpt lat="45.57338006976883" lon="10.494257854880138"><ele>303.75</ele><time>2026-03-28T15:05:03Z</time></trkpt><trkpt lat="45.5734585550229" lon="10.494105255741632"><ele>308.0</ele><time>2026-03-28T15:05:04Z</time></trkpt><trkpt lat="45.573522690614844" lon="10.493916765093736"><ele>309.0</ele><time>2026-03-28T15:05:05Z</time></trkpt><trkpt lat="45.57358222086792" lon="10.493739922493916"><ele>310.0</ele><time>2026-03-28T15:05:06Z</time></trkpt><trkpt lat="45.5736388698107" lon="10.493598979946867"><ele>311.0</ele><time>2026-03-28T15:05:07Z</time></trkpt><trkpt lat="45.57367980429781" lon="10.493476239729317"><ele>312.0</ele><time>2026-03-28T15:05:08Z</time></trkpt><trkpt lat="45.57371097303088" lon="10.493331061180966"><ele>311.25</ele><time>2026-03-28T15:05:09Z</time></trkpt><trkpt lat="45.57372440584445" lon="10.493158682581445"><ele>310.5</ele><time>2026-03-28T15:05:10Z</time></trkpt><trkpt lat="45.5737219570005" lon="10.49296976304926"><ele>309.75</ele><time>2026-03-28T15:05:11Z</time></trkpt><trkpt lat="45.57374911014207" lon="10.492796371273203"><ele>309.0</ele><time>2026-03-28T15:05:12Z</time></trkpt><trkpt lat="45.57377417545333" lon="10.492644769797096"><ele>309.0</ele><time>2026-03-28T15:05:13Z</time></trkpt><trkpt lat="45.57382093692056" lon="10.492516885657572"><ele>309.0</ele><time>2026-03-28T15:05:14Z</time></trkpt><trkpt lat="45.57389073547106" lon="10.492427726182758"><ele>309.0</ele><time>2026-03-28T15:05:15Z</time></trkpt><trkpt lat="45.57398263902244" lon="10.492366404714213"><ele>309.0</ele><time>2026-03-28T15:05:16Z</time></trkpt><trkpt lat="45.5740959118552" lon="10.49231108803969"><ele>309.0</ele><time>2026-03-28T15:05:17Z</time></trkpt><trkpt lat="45.57420698613049" lon="10.492288618385919"><ele>309.0</ele><time>2026-03-28T15:05:18Z</time></trkpt><trkpt lat="45.574303266561174" lon="10.492281181409117"><ele>309.0</ele><time>2026-03-28T15:05:19Z</time></trkpt><trkpt lat="45.5743714492696" lon="10.492256911077416"><ele>309.0</ele><time>2026-03-28T15:05:20Z</time></trkpt><trkpt lat="45.57442590111129" lon="10.492196961937639"><ele>309.0</ele><time>2026-03-28T15:05:21Z</time></trkpt><trkpt lat="45.57445091618253" lon="10.492089306073405"><ele>309.0</ele><time>2026-03-28T15:05:22Z</time></trkpt><trkpt lat="45.574436317710386" lon="10.491978666437094"><ele>309.0</ele><time>2026-03-28T15:05:23Z</time></trkpt><trkpt lat="45.57440594380427" lon="10.491849822346541"><ele>309.5</ele><time>2026-03-28T15:05:24Z</time></trkpt><trkpt lat="45.574375421202284" lon="10.491700419816995"><ele>310.0</ele><time>2026-03-28T15:05:25Z</time></trkpt><trkpt lat="45.57435812309201" lon="10.491502247964236"><ele>310.5</ele><time>2026-03-28T15:05:26Z</time></trkpt><trkpt lat="45.57435793538178" lon="10.491277277395389"><ele>311.0</ele><time>2026-03-28T15:05:27Z</time></trkpt><trkpt lat="45.57439246808418" lon="10.49107894550656"><ele>311.0</ele><time>2026-03-28T15:05:28Z</time></trkpt><trkpt lat="45.57443886604752" lon="10.49088878744428"><ele>311.0</ele><time>2026-03-28T15:05:29Z</time></trkpt><trkpt lat="45.57447560990156" lon="10.490660578697202"><ele>311.0</ele><time>2026-03-28T15:05:30Z</time></trkpt><trkpt lat="45.574470236383114" lon="10.49043538903937"><ele>311.75</ele><time>2026-03-28T15:05:31Z</time></trkpt><trkpt lat="45.574460229647435" lon="10.490209706666446"><ele>312.5</ele><time>2026-03-28T15:05:32Z</time></trkpt><trkpt lat="45.574469062894636" lon="10.490005025309289"><ele>313.25</ele><time>2026-03-28T15:05:33Z</time></trkpt><trkpt lat="45.57446774442003" lon="10.489823245813092"><ele>314.0</ele><time>2026-03-28T15:05:34Z</time></trkpt><trkpt lat="45.574480576841296" lon="10.489670138833596"><ele>314.8</ele><time>2026-03-28T15:05:35Z</time></trkpt><trkpt lat="45.57450908236394" lon="10.489563545298779"><ele>315.59999999999997</ele><time>2026-03-28T15:05:36Z</time></trkpt><trkpt lat="45.57456694155284" lon="10.489486437797092"><ele>316.4</ele><time>2026-03-28T15:05:37Z</time></trkpt><trkpt lat="45.57465759529448" lon="10.489438360777873"><ele>317.2</ele><time>2026-03-28T15:05:38Z</time></trkpt><trkpt lat="45.57474073562437" lon="10.489291918869005"><ele>318.0</ele><time>2026-03-28T15:05:39Z</time></trkpt><trkpt lat="45.57483194177989" lon="10.489141064284539"><ele>318.0</ele><time>2026-03-28T15:05:40Z</time></trkpt><trkpt lat="45.57491979751705" lon="10.488993380463382"><ele>318.0</ele><time>2026-03-28T15:05:41Z</time></trkpt><trkpt lat="45.57506070085065" lon="10.488889656571375"><ele>318.0</ele><time>2026-03-28T15:05:42Z</time></trkpt><trkpt lat="45.575197970433656" lon="10.4887934242204"><ele>318.0</ele><time>2026-03-28T15:05:43Z</time></trkpt><trkpt lat="45.575309694586785" lon="10.488698519947846"><ele>318.3333333333333</ele><time>2026-03-28T15:05:44Z</time></trkpt><trkpt lat="45.57541120385206" lon="10.4886320511487"><ele>318.6666666666667</ele><time>2026-03-28T15:05:45Z</time></trkpt><trkpt lat="45.57548359208484" lon="10.488550571944067"><ele>319.0</ele><time>2026-03-28T15:05:46Z</time></trkpt><trkpt lat="45.575528293124364" lon="10.48845760131107"><ele>319.33333333333337</ele><time>2026-03-28T15:05:47Z</time></trkpt><trkpt lat="45.57555045271607" lon="10.488359606733987"><ele>319.6666666666667</ele><time>2026-03-28T15:05:48Z</time></trkpt><trkpt lat="45.575546247374334" lon="10.488252895816204"><ele>320.0</ele><time>2026-03-28T15:05:49Z</time></trkpt><trkpt lat="45.57552627034145" lon="10.488136775137054"><ele>320.0</ele><time>2026-03-28T15:05:50Z</time></trkpt><trkpt lat="45.57553240189171" lon="10.488005601372262"><ele>320.0</ele><time>2026-03-28T15:05:51Z</time></trkpt><trkpt lat="45.575529715001906" lon="10.487846291870934"><ele>320.0</ele><time>2026-03-28T15:05:52Z</time></trkpt><trkpt lat="45.57555020681805" lon="10.487675648477268"><ele>320.0</ele><time>2026-03-28T15:05:53Z</time></trkpt><trkpt lat="45.57556595989344" lon="10.487472120924059"><ele>319.5</ele><time>2026-03-28T15:05:54Z</time></trkpt><trkpt lat="45.575579087854216" lon="10.48726183609741"><ele>319.0</ele><time>2026-03-28T15:05:55Z</time></trkpt><trkpt lat="45.57559550458095" lon="10.487074036177011"><ele>318.5</ele><time>2026-03-28T15:05:56Z</time></trkpt><trkpt lat="45.575596535182925" lon="10.4868925328594"><ele>318.0</ele><time>2026-03-28T15:05:57Z</time></trkpt><trkpt lat="45.575596227091616" lon="10.486712338956968"><ele>316.75</ele><time>2026-03-28T15:05:58Z</time></trkpt><trkpt lat="45.57558941018538" lon="10.486527919855591"><ele>315.5</ele><time>2026-03-28T15:05:59Z</time></trkpt><trkpt lat="45.57556735357762" lon="10.486340665002176"><ele>314.25</ele><time>2026-03-28T15:06:00Z</time></trkpt><trkpt lat="45.5755281410583" lon="10.486155677745174"><ele>313.0</ele><time>2026-03-28T15:06:01Z</time></trkpt><trkpt lat="45.575480628225336" lon="10.485988632793296"><ele>312.3333333333333</ele><time>2026-03-28T15:06:02Z</time></trkpt><trkpt lat="45.575441209033" lon="10.485844651259825"><ele>311.66666666666663</ele><time>2026-03-28T15:06:03Z</time></trkpt><trkpt lat="45.57539498211678" lon="10.48572061216868"><ele>311.0</ele><time>2026-03-28T15:06:04Z</time></trkpt><trkpt lat="45.57536694417993" lon="10.485614637651029"><ele>310.3333333333333</ele><time>2026-03-28T15:06:05Z</time></trkpt><trkpt lat="45.575378746613765" lon="10.485505927167567"><ele>309.6666666666667</ele><time>2026-03-28T15:06:06Z</time></trkpt><trkpt lat="45.575388237090024" lon="10.485386212551713"><ele>309.0</ele><time>2026-03-28T15:06:07Z</time></trkpt><trkpt lat="45.57543951034345" lon="10.485230270721456"><ele>307.0</ele><time>2026-03-28T15:06:08Z</time></trkpt><trkpt lat="45.57550185204344" lon="10.48503905147325"><ele>305.0</ele><time>2026-03-28T15:06:09Z</time></trkpt><trkpt lat="45.575558528525775" lon="10.48481342877498"><ele>303.0</ele><time>2026-03-28T15:06:10Z</time></trkpt><trkpt lat="45.575592291729514" lon="10.484594637284097"><ele>300.3333333333333</ele><time>2026-03-28T15:06:11Z</time></trkpt><trkpt lat="45.57561152497851" lon="10.484366877997825"><ele>297.66666666666663</ele><time>2026-03-28T15:06:12Z</time></trkpt><trkpt lat="45.57564085667724" lon="10.484152679799"><ele>295.0</ele><time>2026-03-28T15:06:13Z</time></trkpt><trkpt lat="45.57568210152253" lon="10.483955162172917"><ele>295.0</ele><time>2026-03-28T15:06:14Z</time></trkpt><trkpt lat="45.57572580346185" lon="10.483771835360441"><ele>295.0</ele><time>2026-03-28T15:06:15Z</time></trkpt><trkpt lat="45.57576087194096" lon="10.483593810777046"><ele>295.0</ele><time>2026-03-28T15:06:16Z</time></trkpt><trkpt lat="45.57578934491255" lon="10.483413508703867"><ele>295.0</ele><time>2026-03-28T15:06:17Z</time></trkpt><trkpt lat="45.57582001508551" lon="10.483236674219503"><ele>293.8</ele><time>2026-03-28T15:06:18Z</time></trkpt><trkpt lat="45.57582748244998" lon="10.483067191430152"><ele>292.6</ele><time>2026-03-28T15:06:19Z</time></trkpt><trkpt lat="45.57583207298647" lon="10.482912467931342"><ele>291.4</ele><time>2026-03-28T15:06:20Z</time></trkpt><trkpt lat="45.57583306878095" lon="10.48278315350912"><ele>290.2</ele><time>2026-03-28T15:06:21Z</time></trkpt><trkpt lat="45.57583496142948" lon="10.482672974347041"><ele>289.0</ele><time>2026-03-28T15:06:22Z</time></trkpt><trkpt lat="45.57583186816178" lon="10.482536932014863"><ele>289.2</ele><time>2026-03-28T15:06:24Z</time></trkpt><trkpt lat="45.57570524401876" lon="10.482467566948673"><ele>289.4</ele><time>2026-03-28T15:06:37Z</time></trkpt><trkpt lat="45.57561925918847" lon="10.482510470934137"><ele>289.6</ele><time>2026-03-28T15:06:38Z</time></trkpt><trkpt lat="45.575514785920305" lon="10.482538274758108"><ele>289.8</ele><time>2026-03-28T15:06:39Z</time></trkpt><trkpt lat="45.57541075243952" lon="10.482557623839362"><ele>290.0</ele><time>2026-03-28T15:06:40Z</time></trkpt><trkpt lat="45.575288674023426" lon="10.482581864522164"><ele>290.0</ele><time>2026-03-28T15:06:41Z</time></trkpt><trkpt lat="45.57517484469943" lon="10.482607258247445"><ele>290.0</ele><time>2026-03-28T15:06:42Z</time></trkpt><trkpt lat="45.57505687116481" lon="10.482629004313113"><ele>290.0</ele><time>2026-03-28T15:06:43Z</time></trkpt><trkpt lat="45.57493310476211" lon="10.482648848086352"><ele>290.0</ele><time>2026-03-28T15:06:44Z</time></trkpt><trkpt lat="45.57479789433099" lon="10.482661771004993"><ele>290.0</ele><time>2026-03-28T15:06:45Z</time></trkpt><trkpt lat="45.57465968210111" lon="10.482665668223829"><ele>290.0</ele><time>2026-03-28T15:06:46Z</time></trkpt><trkpt lat="45.57451814106058" lon="10.48266043549382"><ele>290.0</ele><time>2026-03-28T15:06:47Z</time></trkpt><trkpt lat="45.57438396085157" lon="10.482649366913478"><ele>290.0</ele><time>2026-03-28T15:06:48Z</time></trkpt><trkpt lat="45.57424720630534" lon="10.482643378795343"><ele>289.5</ele><time>2026-03-28T15:06:49Z</time></trkpt><trkpt lat="45.57410738759943" lon="10.482635323869303"><ele>289.0</ele><time>2026-03-28T15:06:50Z</time></trkpt><trkpt lat="45.57396919320815" lon="10.482632056645024"><ele>288.5</ele><time>2026-03-28T15:06:51Z</time></trkpt><trkpt lat="45.57383610539077" lon="10.482626018829793"><ele>288.0</ele><time>2026-03-28T15:06:52Z</time></trkpt><trkpt lat="45.57371380356351" lon="10.482617573108456"><ele>289.0</ele><time>2026-03-28T15:06:53Z</time></trkpt><trkpt lat="45.5735983195384" lon="10.482610706383843"><ele>290.0</ele><time>2026-03-28T15:06:54Z</time></trkpt><trkpt lat="45.57348652618377" lon="10.482603628823957"><ele>291.0</ele><time>2026-03-28T15:06:55Z</time></trkpt><trkpt lat="45.57337027272125" lon="10.482593874134702"><ele>292.0</ele><time>2026-03-28T15:06:56Z</time></trkpt><trkpt lat="45.57324885793626" lon="10.482588254876653"><ele>292.0</ele><time>2026-03-28T15:06:57Z</time></trkpt><trkpt lat="45.57312826762746" lon="10.482584936138966"><ele>292.0</ele><time>2026-03-28T15:06:58Z</time></trkpt><trkpt lat="45.57301003483371" lon="10.48257845744237"><ele>292.0</ele><time>2026-03-28T15:06:59Z</time></trkpt><trkpt lat="45.5728873474895" lon="10.482567995277176"><ele>292.0</ele><time>2026-03-28T15:07:00Z</time></trkpt><trkpt lat="45.57277117432497" lon="10.482561129838121"><ele>293.2</ele><time>2026-03-28T15:07:01Z</time></trkpt><trkpt lat="45.57266792929367" lon="10.482556069302415"><ele>294.4</ele><time>2026-03-28T15:07:02Z</time></trkpt><trkpt lat="45.57256053000579" lon="10.482555082076816"><ele>295.6</ele><time>2026-03-28T15:07:03Z</time></trkpt><trkpt lat="45.57244986582163" lon="10.482552157729899"><ele>296.8</ele><time>2026-03-28T15:07:04Z</time></trkpt><trkpt lat="45.57234549721648" lon="10.482538686838316"><ele>298.0</ele><time>2026-03-28T15:07:05Z</time></trkpt><trkpt lat="45.57223841934873" lon="10.482531909185818"><ele>298.0</ele><time>2026-03-28T15:07:06Z</time></trkpt><trkpt lat="45.57214093640159" lon="10.482508415161423"><ele>298.0</ele><time>2026-03-28T15:07:07Z</time></trkpt><trkpt lat="45.57205336924818" lon="10.482513289456994"><ele>298.0</ele><time>2026-03-28T15:07:08Z</time></trkpt><trkpt lat="45.57196442934782" lon="10.482518696690674"><ele>298.0</ele><time>2026-03-28T15:07:09Z</time></trkpt><trkpt lat="45.57186006860697" lon="10.482529765232504"><ele>298.0</ele><time>2026-03-28T15:07:10Z</time></trkpt><trkpt lat="45.5717509320156" lon="10.482524293748181"><ele>298.5</ele><time>2026-03-28T15:07:11Z</time></trkpt><trkpt lat="45.571626927456855" lon="10.482522429589755"><ele>299.0</ele><time>2026-03-28T15:07:12Z</time></trkpt><trkpt lat="45.571491712189165" lon="10.482520311005839"><ele>299.5</ele><time>2026-03-28T15:07:13Z</time></trkpt><trkpt lat="45.571352673973784" lon="10.482511986435801"><ele>300.0</ele><time>2026-03-28T15:07:14Z</time></trkpt><trkpt lat="45.57120961988668" lon="10.482497445153124"><ele>301.25</ele><time>2026-03-28T15:07:15Z</time></trkpt><trkpt lat="45.57106340153644" lon="10.482485358565187"><ele>302.5</ele><time>2026-03-28T15:07:16Z</time></trkpt><trkpt lat="45.57092108890755" lon="10.482468396165032"><ele>303.75</ele><time>2026-03-28T15:07:17Z</time></trkpt><trkpt lat="45.57079244412672" lon="10.482455765050979"><ele>305.0</ele><time>2026-03-28T15:07:18Z</time></trkpt><trkpt lat="45.57067680550822" lon="10.482439303859548"><ele>305.0</ele><time>2026-03-28T15:07:19Z</time></trkpt><trkpt lat="45.57056147740539" lon="10.482421475132229"><ele>305.0</ele><time>2026-03-28T15:07:20Z</time></trkpt><trkpt lat="45.57044273356145" lon="10.4824006464772"><ele>305.0</ele><time>2026-03-28T15:07:21Z</time></trkpt><trkpt lat="45.57033910707909" lon="10.482379825262756"><ele>305.0</ele><time>2026-03-28T15:07:22Z</time></trkpt><trkpt lat="45.5702478009076" lon="10.482361618589929"><ele>305.0</ele><time>2026-03-28T15:07:23Z</time></trkpt><trkpt lat="45.57015350371021" lon="10.482339091462407"><ele>306.2</ele><time>2026-03-28T15:07:24Z</time></trkpt><trkpt lat="45.57005487042464" lon="10.482320234604638"><ele>307.4</ele><time>2026-03-28T15:07:25Z</time></trkpt><trkpt lat="45.56995087629162" lon="10.482293289412409"><ele>308.6</ele><time>2026-03-28T15:07:26Z</time></trkpt><trkpt lat="45.569834564679546" lon="10.482260015857008"><ele>309.8</ele><time>2026-03-28T15:07:27Z</time></trkpt><trkpt lat="45.56971460339842" lon="10.482220621071999"><ele>311.0</ele><time>2026-03-28T15:07:28Z</time></trkpt><trkpt lat="45.5695835477508" lon="10.482179227207853"><ele>312.0</ele><time>2026-03-28T15:07:29Z</time></trkpt><trkpt lat="45.56944158550344" lon="10.482133833557063"><ele>313.0</ele><time>2026-03-28T15:07:30Z</time></trkpt><trkpt lat="45.569290908244966" lon="10.482089264585786"><ele>314.0</ele><time>2026-03-28T15:07:31Z</time></trkpt><trkpt lat="45.569145812754265" lon="10.482049096038557"><ele>315.0</ele><time>2026-03-28T15:07:32Z</time></trkpt><trkpt lat="45.56900550603055" lon="10.482010253796867"><ele>315.0</ele><time>2026-03-28T15:07:33Z</time></trkpt><trkpt lat="45.56886247007628" lon="10.481969571163603"><ele>315.0</ele><time>2026-03-28T15:07:34Z</time></trkpt><trkpt lat="45.56870868055042" lon="10.481926032531986"><ele>315.0</ele><time>2026-03-28T15:07:35Z</time></trkpt><trkpt lat="45.568551638132725" lon="10.481877593471856"><ele>316.0</ele><time>2026-03-28T15:07:36Z</time></trkpt><trkpt lat="45.568381890701836" lon="10.481828761533839"><ele>317.0</ele><time>2026-03-28T15:07:37Z</time></trkpt><trkpt lat="45.568212921180226" lon="10.481777559962904"><ele>318.0</ele><time>2026-03-28T15:07:38Z</time></trkpt><trkpt lat="45.56804502696035" lon="10.481729652288308"><ele>318.0</ele><time>2026-03-28T15:07:39Z</time></trkpt><trkpt lat="45.56788102857973" lon="10.481687159210413"><ele>318.0</ele><time>2026-03-28T15:07:40Z</time></trkpt><trkpt lat="45.56772332076006" lon="10.481645138965607"><ele>318.0</ele><time>2026-03-28T15:07:41Z</time></trkpt><trkpt lat="45.56757729763056" lon="10.481603521412135"><ele>320.0</ele><time>2026-03-28T15:07:42Z</time></trkpt><trkpt lat="45.56742760269191" lon="10.48155308920808"><ele>322.0</ele><time>2026-03-28T15:07:43Z</time></trkpt><trkpt lat="45.567270273364045" lon="10.481521298687733"><ele>324.0</ele><time>2026-03-28T15:07:44Z</time></trkpt><trkpt lat="45.56710294843909" lon="10.481493416644806"><ele>323.0</ele><time>2026-03-28T15:07:45Z</time></trkpt><trkpt lat="45.56693981294483" lon="10.48148020676414"><ele>322.0</ele><time>2026-03-28T15:07:46Z</time></trkpt><trkpt lat="45.56677692186374" lon="10.481479570266288"><ele>321.0</ele><time>2026-03-28T15:07:47Z</time></trkpt><trkpt lat="45.56663120093208" lon="10.481486352562907"><ele>321.0</ele><time>2026-03-28T15:07:48Z</time></trkpt><trkpt lat="45.56650567918029" lon="10.481499882672932"><ele>321.0</ele><time>2026-03-28T15:07:49Z</time></trkpt><trkpt lat="45.56637670028093" lon="10.48151482875851"><ele>321.0</ele><time>2026-03-28T15:07:50Z</time></trkpt><trkpt lat="45.566239024151066" lon="10.481545780346789"><ele>321.0</ele><time>2026-03-28T15:07:51Z</time></trkpt><trkpt lat="45.56609106431815" lon="10.48157236931919"><ele>321.3333333333333</ele><time>2026-03-28T15:07:52Z</time></trkpt><trkpt lat="45.56593699880335" lon="10.48159018123063"><ele>321.66666666666663</ele><time>2026-03-28T15:07:53Z</time></trkpt><trkpt lat="45.56577632314226" lon="10.481632349439908"><ele>322.0</ele><time>2026-03-28T15:07:54Z</time></trkpt><trkpt lat="45.565592790374964" lon="10.481701751921817"><ele>322.0</ele><time>2026-03-28T15:07:55Z</time></trkpt><trkpt lat="45.56542006722571" lon="10.481771771077593"><ele>322.0</ele><time>2026-03-28T15:07:56Z</time></trkpt><trkpt lat="45.565243709565905" lon="10.48184267686808"><ele>322.0</ele><time>2026-03-28T15:07:57Z</time></trkpt><trkpt lat="45.56507206876826" lon="10.48191299433256"><ele>321.3333333333333</ele><time>2026-03-28T15:07:58Z</time></trkpt><trkpt lat="45.5649081451892" lon="10.48197770399516"><ele>320.6666666666667</ele><time>2026-03-28T15:07:59Z</time></trkpt><trkpt lat="45.56474651305315" lon="10.482042477014168"><ele>320.0</ele><time>2026-03-28T15:08:00Z</time></trkpt><trkpt lat="45.56456446456211" lon="10.482089661358922"><ele>321.33333333333337</ele><time>2026-03-28T15:08:01Z</time></trkpt><trkpt lat="45.564376063518026" lon="10.482154049931003"><ele>322.6666666666667</ele><time>2026-03-28T15:08:02Z</time></trkpt><trkpt lat="45.564186466884756" lon="10.482205990822752"><ele>324.0</ele><time>2026-03-28T15:08:03Z</time></trkpt><trkpt lat="45.56397129748256" lon="10.482261746637871"><ele>324.0</ele><time>2026-03-28T15:08:04Z</time></trkpt><trkpt lat="45.56375246189206" lon="10.48231443487923"><ele>324.0</ele><time>2026-03-28T15:08:05Z</time></trkpt><trkpt lat="45.56352563562895" lon="10.482391643581586"><ele>324.0</ele><time>2026-03-28T15:08:06Z</time></trkpt><trkpt lat="45.56328710331388" lon="10.482444945048165"><ele>324.0</ele><time>2026-03-28T15:08:07Z</time></trkpt><trkpt lat="45.56304564751762" lon="10.482479825241871"><ele>324.5</ele><time>2026-03-28T15:08:08Z</time></trkpt><trkpt lat="45.56281225864289" lon="10.482533944401762"><ele>325.0</ele><time>2026-03-28T15:08:09Z</time></trkpt><trkpt lat="45.56257966509806" lon="10.482588003081284"><ele>325.0</ele><time>2026-03-28T15:08:10Z</time></trkpt><trkpt lat="45.56235656299876" lon="10.482640311260246"><ele>325.0</ele><time>2026-03-28T15:08:11Z</time></trkpt><trkpt lat="45.56216715244059" lon="10.482699674924378"><ele>325.0</ele><time>2026-03-28T15:08:12Z</time></trkpt><trkpt lat="45.56198942164826" lon="10.482739277454078"><ele>324.75</ele><time>2026-03-28T15:08:13Z</time></trkpt><trkpt lat="45.561825544536774" lon="10.482779914524041"><ele>324.5</ele><time>2026-03-28T15:08:14Z</time></trkpt><trkpt lat="45.561677825297025" lon="10.482814658143388"><ele>324.25</ele><time>2026-03-28T15:08:15Z</time></trkpt><trkpt lat="45.56155370152983" lon="10.482834918819423"><ele>324.0</ele><time>2026-03-28T15:08:16Z</time></trkpt><trkpt lat="45.56144319626591" lon="10.482825269683408"><ele>324.0</ele><time>2026-03-28T15:08:17Z</time></trkpt><trkpt lat="45.561345977081" lon="10.482764872962523"><ele>324.0</ele><time>2026-03-28T15:08:18Z</time></trkpt><trkpt lat="45.56125605159674" lon="10.482646851214726"><ele>324.0</ele><time>2026-03-28T15:08:19Z</time></trkpt><trkpt lat="45.56120764820346" lon="10.482464451041656"><ele>324.0</ele><time>2026-03-28T15:08:20Z</time></trkpt><trkpt lat="45.56113936706353" lon="10.482271898764553"><ele>323.6666666666667</ele><time>2026-03-28T15:08:21Z</time></trkpt><trkpt lat="45.56104757425129" lon="10.482061700693297"><ele>323.33333333333337</ele><time>2026-03-28T15:08:22Z</time></trkpt><trkpt lat="45.5609761810936" lon="10.481831313793473"><ele>323.0</ele><time>2026-03-28T15:08:23Z</time></trkpt><trkpt lat="45.560893137473705" lon="10.481628121189592"><ele>323.0</ele><time>2026-03-28T15:08:24Z</time></trkpt><trkpt lat="45.560791010552975" lon="10.481458143205531"><ele>323.0</ele><time>2026-03-28T15:08:25Z</time></trkpt><trkpt lat="45.56066694826969" lon="10.481314653915879"><ele>323.0</ele><time>2026-03-28T15:08:26Z</time></trkpt><trkpt lat="45.560503084807955" lon="10.481203440350363"><ele>327.6666666666667</ele><time>2026-03-28T15:08:27Z</time></trkpt><trkpt lat="45.56031894046733" lon="10.481107992987699"><ele>332.3333333333333</ele><time>2026-03-28T15:08:28Z</time></trkpt><trkpt lat="45.56013239402882" lon="10.48103311165031"><ele>337.0</ele><time>2026-03-28T15:08:29Z</time></trkpt><trkpt lat="45.5599836577128" lon="10.480961927699301"><ele>337.0</ele><time>2026-03-28T15:08:30Z</time></trkpt><trkpt lat="45.55987318995262" lon="10.480889506724699"><ele>337.0</ele><time>2026-03-28T15:08:31Z</time></trkpt><trkpt lat="45.55978330431345" lon="10.480791141560768"><ele>337.0</ele><time>2026-03-28T15:08:32Z</time></trkpt><trkpt lat="45.55972585998927" lon="10.480661131070601"><ele>337.0</ele><time>2026-03-28T15:08:33Z</time></trkpt><trkpt lat="45.55972588521681" lon="10.480488879370553"><ele>339.25</ele><time>2026-03-28T15:08:34Z</time></trkpt><trkpt lat="45.55971435841801" lon="10.480320341091723"><ele>341.5</ele><time>2026-03-28T15:08:35Z</time></trkpt><trkpt lat="45.55970173846902" lon="10.480133081499089"><ele>343.75</ele><time>2026-03-28T15:08:36Z</time></trkpt><trkpt lat="45.55967813120236" lon="10.47993608699225"><ele>346.0</ele><time>2026-03-28T15:08:37Z</time></trkpt><trkpt lat="45.559667333657565" lon="10.479768506870755"><ele>346.0</ele><time>2026-03-28T15:08:38Z</time></trkpt><trkpt lat="45.55966857010731" lon="10.479618964762961"><ele>346.0</ele><time>2026-03-28T15:08:39Z</time></trkpt><trkpt lat="45.55967849086949" lon="10.479450182769016"><ele>346.0</ele><time>2026-03-28T15:08:40Z</time></trkpt><trkpt lat="45.55974442757753" lon="10.479274001424361"><ele>346.0</ele><time>2026-03-28T15:08:41Z</time></trkpt><trkpt lat="45.55981111283559" lon="10.479051252420817"><ele>344.66666666666663</ele><time>2026-03-28T15:08:42Z</time></trkpt><trkpt lat="45.55986712687059" lon="10.478809907991998"><ele>343.3333333333333</ele><time>2026-03-28T15:08:43Z</time></trkpt><trkpt lat="45.55993201612384" lon="10.478605169873813"><ele>342.0</ele><time>2026-03-28T15:08:44Z</time></trkpt><trkpt lat="45.55997701612841" lon="10.47841972240389"><ele>340.6666666666667</ele><time>2026-03-28T15:08:45Z</time></trkpt><trkpt lat="45.56000684485528" lon="10.478235908399363"><ele>339.33333333333337</ele><time>2026-03-28T15:08:46Z</time></trkpt><trkpt lat="45.56002216669079" lon="10.478020536163726"><ele>338.0</ele><time>2026-03-28T15:08:47Z</time></trkpt><trkpt lat="45.560022715443765" lon="10.477769485525757"><ele>337.33333333333337</ele><time>2026-03-28T15:08:48Z</time></trkpt><trkpt lat="45.560011601614946" lon="10.477509923158372"><ele>336.6666666666667</ele><time>2026-03-28T15:08:49Z</time></trkpt><trkpt lat="45.56001377338374" lon="10.477287978846093"><ele>336.0</ele><time>2026-03-28T15:08:50Z</time></trkpt><trkpt lat="45.559988836076876" lon="10.477097845343767"><ele>334.6</ele><time>2026-03-28T15:08:51Z</time></trkpt><trkpt lat="45.55998728032503" lon="10.476932182742082"><ele>333.20000000000005</ele><time>2026-03-28T15:08:52Z</time></trkpt><trkpt lat="45.55999680944517" lon="10.476783678132826"><ele>331.79999999999995</ele><time>2026-03-28T15:08:53Z</time></trkpt><trkpt lat="45.560048197344166" lon="10.476658726159789"><ele>330.4</ele><time>2026-03-28T15:08:54Z</time></trkpt><trkpt lat="45.560084578997966" lon="10.476499612225785"><ele>329.0</ele><time>2026-03-28T15:08:55Z</time></trkpt><trkpt lat="45.56016439859584" lon="10.476317272058271"><ele>326.0</ele><time>2026-03-28T15:08:56Z</time></trkpt><trkpt lat="45.56026242577932" lon="10.476110732563086"><ele>323.0</ele><time>2026-03-28T15:08:57Z</time></trkpt><trkpt lat="45.560381559944936" lon="10.475886891719304"><ele>320.0</ele><time>2026-03-28T15:08:58Z</time></trkpt><trkpt lat="45.560497144842174" lon="10.47567806410799"><ele>320.0</ele><time>2026-03-28T15:08:59Z</time></trkpt><trkpt lat="45.56060080469686" lon="10.47549991355958"><ele>320.0</ele><time>2026-03-28T15:09:00Z</time></trkpt><trkpt lat="45.560673541193786" lon="10.47532607559876"><ele>320.0</ele><time>2026-03-28T15:09:01Z</time></trkpt><trkpt lat="45.56073249257299" lon="10.47516836865582"><ele>320.0</ele><time>2026-03-28T15:09:02Z</time></trkpt><trkpt lat="45.560781006373446" lon="10.475035321489951"><ele>317.8</ele><time>2026-03-28T15:09:03Z</time></trkpt><trkpt lat="45.560815862248624" lon="10.474925782635012"><ele>315.6</ele><time>2026-03-28T15:09:04Z</time></trkpt><trkpt lat="45.56083202793103" lon="10.474812440291924"><ele>313.4</ele><time>2026-03-28T15:09:05Z</time></trkpt><trkpt lat="45.560804112365176" lon="10.47469228488844"><ele>311.2</ele><time>2026-03-28T15:09:06Z</time></trkpt><trkpt lat="45.56073568488828" lon="10.474595080620878"><ele>309.0</ele><time>2026-03-28T15:09:07Z</time></trkpt><trkpt lat="45.56063782747638" lon="10.47452896941922"><ele>307.0</ele><time>2026-03-28T15:09:08Z</time></trkpt><trkpt lat="45.56051251245433" lon="10.474498057590502"><ele>305.0</ele><time>2026-03-28T15:09:09Z</time></trkpt><trkpt lat="45.56037806234193" lon="10.474490539703174"><ele>303.0</ele><time>2026-03-28T15:09:10Z</time></trkpt><trkpt lat="45.56027068941097" lon="10.474452891808134"><ele>301.0</ele><time>2026-03-28T15:09:11Z</time></trkpt><trkpt lat="45.560179118641216" lon="10.474431637431536"><ele>300.25</ele><time>2026-03-28T15:09:12Z</time></trkpt><trkpt lat="45.56011236694661" lon="10.47435094596987"><ele>299.5</ele><time>2026-03-28T15:09:13Z</time></trkpt><trkpt lat="45.56008636910122" lon="10.474198757637138"><ele>298.75</ele><time>2026-03-28T15:09:14Z</time></trkpt><trkpt lat="45.56005587315142" lon="10.474007735284077"><ele>298.0</ele><time>2026-03-28T15:09:15Z</time></trkpt><trkpt lat="45.55999354303984" lon="10.473787572027721"><ele>296.66666666666663</ele><time>2026-03-28T15:09:16Z</time></trkpt><trkpt lat="45.559913528320976" lon="10.47355118466772"><ele>295.3333333333333</ele><time>2026-03-28T15:09:17Z</time></trkpt><trkpt lat="45.559844116449774" lon="10.473295391031693"><ele>294.0</ele><time>2026-03-28T15:09:18Z</time></trkpt><trkpt lat="45.55976046947638" lon="10.473023245507513"><ele>293.3333333333333</ele><time>2026-03-28T15:09:19Z</time></trkpt><trkpt lat="45.55968793770634" lon="10.472766257857575"><ele>292.66666666666663</ele><time>2026-03-28T15:09:20Z</time></trkpt><trkpt lat="45.559615304973136" lon="10.47254449074615"><ele>292.0</ele><time>2026-03-28T15:09:21Z</time></trkpt><trkpt lat="45.559580873806404" lon="10.47233975213827"><ele>292.0</ele><time>2026-03-28T15:09:22Z</time></trkpt><trkpt lat="45.55953846714286" lon="10.472182355530665"><ele>292.0</ele><time>2026-03-28T15:09:23Z</time></trkpt><trkpt lat="45.55952477938215" lon="10.472019947300062"><ele>292.0</ele><time>2026-03-28T15:09:24Z</time></trkpt><trkpt lat="45.559517652797005" lon="10.471877851064693"><ele>292.0</ele><time>2026-03-28T15:09:25Z</time></trkpt><trkpt lat="45.55950195651104" lon="10.471754217171949"><ele>292.0</ele><time>2026-03-28T15:09:26Z</time></trkpt><trkpt lat="45.55946502825488" lon="10.471659387045447"><ele>291.6</ele><time>2026-03-28T15:09:27Z</time></trkpt><trkpt lat="45.5594033487716" lon="10.471612709951621"><ele>291.2</ele><time>2026-03-28T15:09:28Z</time></trkpt><trkpt lat="45.55932213156229" lon="10.471613552901381"><ele>290.8</ele><time>2026-03-28T15:09:29Z</time></trkpt><trkpt lat="45.55921187660432" lon="10.471616818852661"><ele>290.4</ele><time>2026-03-28T15:09:30Z</time></trkpt><trkpt lat="45.55912338553894" lon="10.47153263183356"><ele>290.0</ele><time>2026-03-28T15:09:31Z</time></trkpt><trkpt lat="45.55903788923097" lon="10.471418463285675"><ele>290.0</ele><time>2026-03-28T15:09:32Z</time></trkpt><trkpt lat="45.55891358138606" lon="10.471277812427536"><ele>290.0</ele><time>2026-03-28T15:09:33Z</time></trkpt><trkpt lat="45.55879468391345" lon="10.471163754591874"><ele>290.0</ele><time>2026-03-28T15:09:34Z</time></trkpt><trkpt lat="45.558694660341054" lon="10.47104656408216"><ele>290.0</ele><time>2026-03-28T15:09:35Z</time></trkpt><trkpt lat="45.55860894420277" lon="10.47094735734326"><ele>289.1666666666667</ele><time>2026-03-28T15:09:36Z</time></trkpt><trkpt lat="45.55854485029961" lon="10.470869863985799"><ele>288.33333333333337</ele><time>2026-03-28T15:09:37Z</time></trkpt><trkpt lat="45.55850881230331" lon="10.47079561596659"><ele>287.5</ele><time>2026-03-28T15:09:38Z</time></trkpt><trkpt lat="45.55850078634142" lon="10.470613634677104"><ele>286.6666666666667</ele><time>2026-03-28T15:09:40Z</time></trkpt><trkpt lat="45.55848209485107" lon="10.470524427776937"><ele>285.8333333333333</ele><time>2026-03-28T15:09:41Z</time></trkpt><trkpt lat="45.55841874254419" lon="10.470449053307465"><ele>285.0</ele><time>2026-03-28T15:09:42Z</time></trkpt><trkpt lat="45.55831834384355" lon="10.470409260222306"><ele>285.0</ele><time>2026-03-28T15:09:43Z</time></trkpt><trkpt lat="45.55817887401939" lon="10.470357185475175"><ele>285.0</ele><time>2026-03-28T15:09:44Z</time></trkpt><trkpt lat="45.558020747134236" lon="10.470311978115232"><ele>285.0</ele><time>2026-03-28T15:09:45Z</time></trkpt><trkpt lat="45.55784997954585" lon="10.470283476541704"><ele>284.0</ele><time>2026-03-28T15:09:46Z</time></trkpt><trkpt lat="45.557669988446456" lon="10.47026299311627"><ele>283.0</ele><time>2026-03-28T15:09:47Z</time></trkpt><trkpt lat="45.5574709505383" lon="10.470236727521698"><ele>282.0</ele><time>2026-03-28T15:09:48Z</time></trkpt><trkpt lat="45.557285735439585" lon="10.47020085341023"><ele>282.0</ele><time>2026-03-28T15:09:49Z</time></trkpt><trkpt lat="45.55711377853368" lon="10.470162848545145"><ele>282.0</ele><time>2026-03-28T15:09:50Z</time></trkpt><trkpt lat="45.556944963709554" lon="10.470099909952472"><ele>282.0</ele><time>2026-03-28T15:09:51Z</time></trkpt><trkpt lat="45.556801445042225" lon="10.469981636011793"><ele>281.6666666666667</ele><time>2026-03-28T15:09:52Z</time></trkpt><trkpt lat="45.55664714540107" lon="10.469849767020312"><ele>281.33333333333337</ele><time>2026-03-28T15:09:53Z</time></trkpt><trkpt lat="45.556485883311396" lon="10.469701179829219"><ele>281.0</ele><time>2026-03-28T15:09:54Z</time></trkpt><trkpt lat="45.55631944371118" lon="10.469544095122524"><ele>279.0</ele><time>2026-03-28T15:09:55Z</time></trkpt><trkpt lat="45.55614283962993" lon="10.469391544556805"><ele>277.0</ele><time>2026-03-28T15:09:56Z</time></trkpt><trkpt lat="45.55598944234778" lon="10.46920579838957"><ele>275.0</ele><time>2026-03-28T15:09:57Z</time></trkpt><trkpt lat="45.55587136385021" lon="10.469011683031658"><ele>275.0</ele><time>2026-03-28T15:09:58Z</time></trkpt><trkpt lat="45.555736079216885" lon="10.468870773085872"><ele>275.0</ele><time>2026-03-28T15:09:59Z</time></trkpt><trkpt lat="45.55561030351526" lon="10.468723071204572"><ele>275.0</ele><time>2026-03-28T15:10:00Z</time></trkpt><trkpt lat="45.555431506041984" lon="10.46864003966989"><ele>273.33333333333337</ele><time>2026-03-28T15:10:01Z</time></trkpt><trkpt lat="45.55525036212007" lon="10.46855833756174"><ele>271.6666666666667</ele><time>2026-03-28T15:10:02Z</time></trkpt><trkpt lat="45.55504098499993" lon="10.468470702877386"><ele>270.0</ele><time>2026-03-28T15:10:03Z</time></trkpt><trkpt lat="45.55483067369873" lon="10.46834944906251"><ele>270.0</ele><time>2026-03-28T15:10:04Z</time></trkpt><trkpt lat="45.554605562961655" lon="10.468246659301261"><ele>270.0</ele><time>2026-03-28T15:10:05Z</time></trkpt><trkpt lat="45.55438354298625" lon="10.468167866599407"><ele>268.3333333333333</ele><time>2026-03-28T15:10:06Z</time></trkpt><trkpt lat="45.55418031665304" lon="10.468073476215752"><ele>266.66666666666663</ele><time>2026-03-28T15:10:07Z</time></trkpt><trkpt lat="45.55398843078608" lon="10.467991844907196"><ele>265.0</ele><time>2026-03-28T15:10:08Z</time></trkpt><trkpt lat="45.553794103616575" lon="10.467926841490138"><ele>262.3333333333333</ele><time>2026-03-28T15:10:09Z</time></trkpt><trkpt lat="45.55358889834729" lon="10.467894836255967"><ele>259.6666666666667</ele><time>2026-03-28T15:10:10Z</time></trkpt><trkpt lat="45.553366112070314" lon="10.46789892586976"><ele>257.0</ele><time>2026-03-28T15:10:11Z</time></trkpt><trkpt lat="45.553126084664015" lon="10.46791585484078"><ele>257.0</ele><time>2026-03-28T15:10:12Z</time></trkpt><trkpt lat="45.55288609787264" lon="10.4679317137095"><ele>257.0</ele><time>2026-03-28T15:10:13Z</time></trkpt><trkpt lat="45.552643088425654" lon="10.467945344426285"><ele>256.5</ele><time>2026-03-28T15:10:14Z</time></trkpt><trkpt lat="45.55240605471585" lon="10.46793445259128"><ele>256.0</ele><time>2026-03-28T15:10:15Z</time></trkpt><trkpt lat="45.5521734066212" lon="10.467967248075215"><ele>256.3333333333333</ele><time>2026-03-28T15:10:16Z</time></trkpt><trkpt lat="45.55194627136305" lon="10.467969410717505"><ele>256.6666666666667</ele><time>2026-03-28T15:10:17Z</time></trkpt><trkpt lat="45.55172458908855" lon="10.46795697238964"><ele>257.0</ele><time>2026-03-28T15:10:18Z</time></trkpt><trkpt lat="45.55153124669202" lon="10.467873171978173"><ele>257.0</ele><time>2026-03-28T15:10:19Z</time></trkpt><trkpt lat="45.55135485930897" lon="10.467780225359709"><ele>257.0</ele><time>2026-03-28T15:10:20Z</time></trkpt><trkpt lat="45.551217421667985" lon="10.467667167554657"><ele>257.0</ele><time>2026-03-28T15:10:21Z</time></trkpt><trkpt lat="45.55107226655174" lon="10.46752403211381"><ele>258.33333333333337</ele><time>2026-03-28T15:10:22Z</time></trkpt><trkpt lat="45.55093310315851" lon="10.467361035122897"><ele>259.6666666666667</ele><time>2026-03-28T15:10:23Z</time></trkpt><trkpt lat="45.550784471623196" lon="10.467202858306331"><ele>261.0</ele><time>2026-03-28T15:10:24Z</time></trkpt><trkpt lat="45.55065983515326" lon="10.467052313562935"><ele>261.0</ele><time>2026-03-28T15:10:25Z</time></trkpt><trkpt lat="45.550537678860664" lon="10.46693722774903"><ele>261.0</ele><time>2026-03-28T15:10:26Z</time></trkpt><trkpt lat="45.55042513593293" lon="10.46685727081577"><ele>261.0</ele><time>2026-03-28T15:10:27Z</time></trkpt><trkpt lat="45.550324115517775" lon="10.466826906446585"><ele>261.0</ele><time>2026-03-28T15:10:28Z</time></trkpt><trkpt lat="45.55022811904619" lon="10.466852923044552"><ele>262.0</ele><time>2026-03-28T15:10:29Z</time></trkpt><trkpt lat="45.550157328916676" lon="10.466938875989833"><ele>263.0</ele><time>2026-03-28T15:10:30Z</time></trkpt><trkpt lat="45.550107982999364" lon="10.467064216813299"><ele>264.0</ele><time>2026-03-28T15:10:31Z</time></trkpt><trkpt lat="45.55005695924153" lon="10.467215512520493"><ele>265.0</ele><time>2026-03-28T15:10:32Z</time></trkpt><trkpt lat="45.54998948693498" lon="10.467363879335164"><ele>266.0</ele><time>2026-03-28T15:10:33Z</time></trkpt><trkpt lat="45.5498977446519" lon="10.467503148355688"><ele>266.2</ele><time>2026-03-28T15:10:34Z</time></trkpt><trkpt lat="45.549806675853596" lon="10.467620349567087"><ele>266.40000000000003</ele><time>2026-03-28T15:10:35Z</time></trkpt><trkpt lat="45.54972074680417" lon="10.467714096151985"><ele>266.6</ele><time>2026-03-28T15:10:36Z</time></trkpt><trkpt lat="45.549635954598976" lon="10.467793373293846"><ele>266.8</ele><time>2026-03-28T15:10:37Z</time></trkpt><trkpt lat="45.54953911011674" lon="10.467863146778253"><ele>267.0</ele><time>2026-03-28T15:10:38Z</time></trkpt><trkpt lat="45.549434194145185" lon="10.46789661832427"><ele>267.0</ele><time>2026-03-28T15:10:39Z</time></trkpt><trkpt lat="45.549317795389705" lon="10.46787567402784"><ele>267.0</ele><time>2026-03-28T15:10:40Z</time></trkpt><trkpt lat="45.549081848928786" lon="10.467695542484572"><ele>267.0</ele><time>2026-03-28T15:10:42Z</time></trkpt><trkpt lat="45.54893303139223" lon="10.46761430022052"><ele>267.0</ele><time>2026-03-28T15:10:43Z</time></trkpt><trkpt lat="45.54877132550696" lon="10.467500758547"><ele>267.0</ele><time>2026-03-28T15:10:44Z</time></trkpt><trkpt lat="45.5485992224982" lon="10.467389863422275"><ele>267.0</ele><time>2026-03-28T15:10:45Z</time></trkpt><trkpt lat="45.54842452943844" lon="10.467273818479873"><ele>266.3333333333333</ele><time>2026-03-28T15:10:46Z</time></trkpt><trkpt lat="45.54826451375512" lon="10.467162732330445"><ele>265.66666666666663</ele><time>2026-03-28T15:10:47Z</time></trkpt><trkpt lat="45.54811933021592" lon="10.467065753145524"><ele>265.0</ele><time>2026-03-28T15:10:48Z</time></trkpt><trkpt lat="45.54797656701822" lon="10.466973673684478"><ele>263.25</ele><time>2026-03-28T15:10:49Z</time></trkpt><trkpt lat="45.547849515702424" lon="10.466880389137351"><ele>261.5</ele><time>2026-03-28T15:10:50Z</time></trkpt><trkpt lat="45.547737256395266" lon="10.466777647579939"><ele>259.75</ele><time>2026-03-28T15:10:51Z</time></trkpt><trkpt lat="45.54764281612393" lon="10.466667566621418"><ele>258.0</ele><time>2026-03-28T15:10:52Z</time></trkpt><trkpt lat="45.54756490108285" lon="10.466555375798727"><ele>258.0</ele><time>2026-03-28T15:10:53Z</time></trkpt><trkpt lat="45.547499906146626" lon="10.466434464264799"><ele>258.0</ele><time>2026-03-28T15:10:54Z</time></trkpt><trkpt lat="45.547451171833835" lon="10.466309894568944"><ele>258.0</ele><time>2026-03-28T15:10:55Z</time></trkpt><trkpt lat="45.547420441288104" lon="10.466168499483233"><ele>258.0</ele><time>2026-03-28T15:10:56Z</time></trkpt><trkpt lat="45.54740070492405" lon="10.465990411731022"><ele>258.0</ele><time>2026-03-28T15:10:57Z</time></trkpt><trkpt lat="45.54737993589755" lon="10.465794880026767"><ele>257.6666666666667</ele><time>2026-03-28T15:10:58Z</time></trkpt><trkpt lat="45.5473691778501" lon="10.465578165442453"><ele>257.33333333333337</ele><time>2026-03-28T15:10:59Z</time></trkpt><trkpt lat="45.54738663490815" lon="10.465334460639358"><ele>257.0</ele><time>2026-03-28T15:11:00Z</time></trkpt><trkpt lat="45.547421053009444" lon="10.46509013123965"><ele>257.0</ele><time>2026-03-28T15:11:01Z</time></trkpt><trkpt lat="45.54745401519145" lon="10.464831907208808"><ele>257.0</ele><time>2026-03-28T15:11:02Z</time></trkpt><trkpt lat="45.547480354170276" lon="10.464556141247492"><ele>257.0</ele><time>2026-03-28T15:11:03Z</time></trkpt><trkpt lat="45.547504281356105" lon="10.464278723399612"><ele>257.0</ele><time>2026-03-28T15:11:04Z</time></trkpt><trkpt lat="45.54752742704031" lon="10.463989712265859"><ele>257.0</ele><time>2026-03-28T15:11:05Z</time></trkpt><trkpt lat="45.54755756099455" lon="10.4636962063224"><ele>257.0</ele><time>2026-03-28T15:11:06Z</time></trkpt><trkpt lat="45.54759160286335" lon="10.463396639287787"><ele>256.0</ele><time>2026-03-28T15:11:07Z</time></trkpt><trkpt lat="45.54762571077621" lon="10.463083185549571"><ele>255.0</ele><time>2026-03-28T15:11:08Z</time></trkpt><trkpt lat="45.54765635872183" lon="10.462770901711288"><ele>254.0</ele><time>2026-03-28T15:11:09Z</time></trkpt><trkpt lat="45.54768827986016" lon="10.462459014430042"><ele>252.66666666666669</ele><time>2026-03-28T15:11:10Z</time></trkpt><trkpt lat="45.547719870295026" lon="10.462148213331554"><ele>251.33333333333331</ele><time>2026-03-28T15:11:11Z</time></trkpt><trkpt lat="45.54774795654353" lon="10.461838165710546"><ele>250.0</ele><time>2026-03-28T15:11:12Z</time></trkpt><trkpt lat="45.547772446602096" lon="10.461550856448453"><ele>249.0</ele><time>2026-03-28T15:11:13Z</time></trkpt><trkpt lat="45.547806527887374" lon="10.46126965060849"><ele>248.0</ele><time>2026-03-28T15:11:14Z</time></trkpt><trkpt lat="45.54786454773229" lon="10.46100369818794"><ele>247.0</ele><time>2026-03-28T15:11:15Z</time></trkpt><trkpt lat="45.54794898500632" lon="10.460735685909338"><ele>246.33333333333331</ele><time>2026-03-28T15:11:16Z</time></trkpt><trkpt lat="45.54803795455612" lon="10.460495571535406"><ele>245.66666666666669</ele><time>2026-03-28T15:11:17Z</time></trkpt><trkpt lat="45.5481196430309" lon="10.46029029101027"><ele>245.0</ele><time>2026-03-28T15:11:18Z</time></trkpt><trkpt lat="45.54819239148763" lon="10.460105043857949"><ele>245.0</ele><time>2026-03-28T15:11:19Z</time></trkpt><trkpt lat="45.54825435162786" lon="10.45995013812231"><ele>245.0</ele><time>2026-03-28T15:11:20Z</time></trkpt><trkpt lat="45.5483151248219" lon="10.459809506805184"><ele>245.0</ele><time>2026-03-28T15:11:21Z</time></trkpt><trkpt lat="45.54837477993274" lon="10.459682490823806"><ele>245.0</ele><time>2026-03-28T15:11:22Z</time></trkpt><trkpt lat="45.54843168577947" lon="10.459565508803891"><ele>245.0</ele><time>2026-03-28T15:11:23Z</time></trkpt><trkpt lat="45.548475810091496" lon="10.45944767391676"><ele>245.0</ele><time>2026-03-28T15:11:24Z</time></trkpt><trkpt lat="45.5484972017665" lon="10.45932572753996"><ele>245.0</ele><time>2026-03-28T15:11:25Z</time></trkpt><trkpt lat="45.54848407540773" lon="10.45919907445662"><ele>245.0</ele><time>2026-03-28T15:11:26Z</time></trkpt><trkpt lat="45.54842606089881" lon="10.459072729484264"><ele>245.0</ele><time>2026-03-28T15:11:27Z</time></trkpt><trkpt lat="45.548339666736915" lon="10.45895615750766"><ele>245.0</ele><time>2026-03-28T15:11:28Z</time></trkpt><trkpt lat="45.54825752372385" lon="10.458813000519838"><ele>243.66666666666669</ele><time>2026-03-28T15:11:29Z</time></trkpt><trkpt lat="45.54819635805697" lon="10.458627346526708"><ele>242.33333333333331</ele><time>2026-03-28T15:11:30Z</time></trkpt><trkpt lat="45.54811799649446" lon="10.458431586653536"><ele>241.0</ele><time>2026-03-28T15:11:31Z</time></trkpt><trkpt lat="45.54800279928711" lon="10.458264663418841"><ele>240.66666666666666</ele><time>2026-03-28T15:11:32Z</time></trkpt><trkpt lat="45.547860775672206" lon="10.45810650030711"><ele>240.33333333333331</ele><time>2026-03-28T15:11:33Z</time></trkpt><trkpt lat="45.54771745672982" lon="10.457912253793006"><ele>240.0</ele><time>2026-03-28T15:11:34Z</time></trkpt><trkpt lat="45.54757299597153" lon="10.457724481489127"><ele>240.0</ele><time>2026-03-28T15:11:35Z</time></trkpt><trkpt lat="45.547425750206244" lon="10.457530825573217"><ele>240.0</ele><time>2026-03-28T15:11:36Z</time></trkpt><trkpt lat="45.547278282624944" lon="10.457336898913942"><ele>240.0</ele><time>2026-03-28T15:11:37Z</time></trkpt><trkpt lat="45.547140813995746" lon="10.45715174271305"><ele>241.0</ele><time>2026-03-28T15:11:38Z</time></trkpt><trkpt lat="45.54702436444451" lon="10.456970716230202"><ele>242.0</ele><time>2026-03-28T15:11:39Z</time></trkpt><trkpt lat="45.54692588055092" lon="10.45675962665157"><ele>243.0</ele><time>2026-03-28T15:11:40Z</time></trkpt><trkpt lat="45.54686124518434" lon="10.456519540540178"><ele>242.0</ele><time>2026-03-28T15:11:41Z</time></trkpt><trkpt lat="45.54681827226674" lon="10.456248542371789"><ele>241.0</ele><time>2026-03-28T15:11:42Z</time></trkpt><trkpt lat="45.546788310666535" lon="10.45594982654592"><ele>240.0</ele><time>2026-03-28T15:11:43Z</time></trkpt><trkpt lat="45.54676494025539" lon="10.455648890114324"><ele>240.0</ele><time>2026-03-28T15:11:44Z</time></trkpt><trkpt lat="45.54672985226193" lon="10.45534371505094"><ele>240.0</ele><time>2026-03-28T15:11:45Z</time></trkpt><trkpt lat="45.54670467626319" lon="10.455033522247065"><ele>240.0</ele><time>2026-03-28T15:11:46Z</time></trkpt><trkpt lat="45.546677648760884" lon="10.45471264540051"><ele>239.33333333333331</ele><time>2026-03-28T15:11:47Z</time></trkpt><trkpt lat="45.54665305408384" lon="10.45440420298127"><ele>238.66666666666666</ele><time>2026-03-28T15:11:48Z</time></trkpt><trkpt lat="45.546626240035664" lon="10.454104970393175"><ele>238.0</ele><time>2026-03-28T15:11:49Z</time></trkpt><trkpt lat="45.54660264650128" lon="10.453817884457969"><ele>237.66666666666666</ele><time>2026-03-28T15:11:50Z</time></trkpt><trkpt lat="45.54657602861747" lon="10.453547585291377"><ele>237.33333333333331</ele><time>2026-03-28T15:11:51Z</time></trkpt><trkpt lat="45.54653460667999" lon="10.453277062179328"><ele>237.0</ele><time>2026-03-28T15:11:52Z</time></trkpt><trkpt lat="45.546470049502844" lon="10.452995966241819"><ele>237.33333333333331</ele><time>2026-03-28T15:11:53Z</time></trkpt><trkpt lat="45.54637985234279" lon="10.452721951792183"><ele>237.66666666666666</ele><time>2026-03-28T15:11:54Z</time></trkpt><trkpt lat="45.5462714906523" lon="10.452448611944101"><ele>238.0</ele><time>2026-03-28T15:11:55Z</time></trkpt><trkpt lat="45.546153008109236" lon="10.452170060657176"><ele>236.5</ele><time>2026-03-28T15:11:56Z</time></trkpt><trkpt lat="45.54602786313364" lon="10.451887120307239"><ele>235.0</ele><time>2026-03-28T15:11:57Z</time></trkpt><trkpt lat="45.545897214975916" lon="10.451592011491991"><ele>235.0</ele><time>2026-03-28T15:11:58Z</time></trkpt><trkpt lat="45.545782682025965" lon="10.451319755064805"><ele>235.0</ele><time>2026-03-28T15:11:59Z</time></trkpt><trkpt lat="45.54566485918449" lon="10.451036035628668"><ele>235.0</ele><time>2026-03-28T15:12:00Z</time></trkpt><trkpt lat="45.545543937937154" lon="10.450760965275942"><ele>235.0</ele><time>2026-03-28T15:12:01Z</time></trkpt><trkpt lat="45.54542319527827" lon="10.450483983915865"><ele>234.0</ele><time>2026-03-28T15:12:02Z</time></trkpt><trkpt lat="45.545303064147625" lon="10.450213724704081"><ele>233.0</ele><time>2026-03-28T15:12:03Z</time></trkpt><trkpt lat="45.54518175137441" lon="10.449936952404537"><ele>233.0</ele><time>2026-03-28T15:12:04Z</time></trkpt><trkpt lat="45.545062156444146" lon="10.449656388929908"><ele>233.0</ele><time>2026-03-28T15:12:05Z</time></trkpt><trkpt lat="45.5449429314214" lon="10.449376643787183"><ele>232.66666666666669</ele><time>2026-03-28T15:12:06Z</time></trkpt><trkpt lat="45.544824991960425" lon="10.449093152994271"><ele>232.33333333333331</ele><time>2026-03-28T15:12:07Z</time></trkpt><trkpt lat="45.544710887183506" lon="10.448830179031647"><ele>232.0</ele><time>2026-03-28T15:12:08Z</time></trkpt><trkpt lat="45.54460947049239" lon="10.448601409694614"><ele>231.0</ele><time>2026-03-28T15:12:09Z</time></trkpt><trkpt lat="45.54451931225551" lon="10.448387224064065"><ele>230.0</ele><time>2026-03-28T15:12:10Z</time></trkpt><trkpt lat="45.5444327178881" lon="10.448185279208566"><ele>229.0</ele><time>2026-03-28T15:12:11Z</time></trkpt><trkpt lat="45.544339688163696" lon="10.447959081588072"><ele>229.0</ele><time>2026-03-28T15:12:12Z</time></trkpt><trkpt lat="45.54424037180328" lon="10.447722602196183"><ele>229.0</ele><time>2026-03-28T15:12:13Z</time></trkpt><trkpt lat="45.544150688496764" lon="10.447510860903446"><ele>229.0</ele><time>2026-03-28T15:12:14Z</time></trkpt><trkpt lat="45.54405169794043" lon="10.44728306975474"><ele>229.0</ele><time>2026-03-28T15:12:15Z</time></trkpt><trkpt lat="45.54395978551604" lon="10.447069057451717"><ele>229.0</ele><time>2026-03-28T15:12:16Z</time></trkpt><trkpt lat="45.543868163707685" lon="10.446850967444956"><ele>229.0</ele><time>2026-03-28T15:12:17Z</time></trkpt><trkpt lat="45.54377242000341" lon="10.446625561526709"><ele>229.0</ele><time>2026-03-28T15:12:18Z</time></trkpt><trkpt lat="45.543670694566245" lon="10.446389478169626"><ele>229.0</ele><time>2026-03-28T15:12:19Z</time></trkpt><trkpt lat="45.54357595578384" lon="10.446171731079597"><ele>229.0</ele><time>2026-03-28T15:12:20Z</time></trkpt><trkpt lat="45.543478250356166" lon="10.44594059168027"><ele>229.0</ele><time>2026-03-28T15:12:21Z</time></trkpt><trkpt lat="45.54338844380987" lon="10.44573161528168"><ele>229.0</ele><time>2026-03-28T15:12:22Z</time></trkpt><trkpt lat="45.54329335049119" lon="10.445520169533639"><ele>229.0</ele><time>2026-03-28T15:12:23Z</time></trkpt><trkpt lat="45.54321214750223" lon="10.445328041204691"><ele>229.5</ele><time>2026-03-28T15:12:24Z</time></trkpt><trkpt lat="45.543136399421044" lon="10.445143011125058"><ele>230.0</ele><time>2026-03-28T15:12:25Z</time></trkpt><trkpt lat="45.54306391304119" lon="10.444973771002616"><ele>230.5</ele><time>2026-03-28T15:12:26Z</time></trkpt><trkpt lat="45.54299614206371" lon="10.44481286062924"><ele>231.0</ele><time>2026-03-28T15:12:27Z</time></trkpt><trkpt lat="45.54293402500173" lon="10.444661689398176"><ele>229.75</ele><time>2026-03-28T15:12:28Z</time></trkpt><trkpt lat="45.542870068414366" lon="10.444514190892962"><ele>228.5</ele><time>2026-03-28T15:12:29Z</time></trkpt><trkpt lat="45.54280045793062" lon="10.444357416647987"><ele>227.25</ele><time>2026-03-28T15:12:30Z</time></trkpt><trkpt lat="45.542727477575205" lon="10.444201916705815"><ele>226.0</ele><time>2026-03-28T15:12:31Z</time></trkpt><trkpt lat="45.54264650677302" lon="10.444049005483945"><ele>226.0</ele><time>2026-03-28T15:12:32Z</time></trkpt><trkpt lat="45.542557591812376" lon="10.443908842497954"><ele>226.0</ele><time>2026-03-28T15:12:33Z</time></trkpt><trkpt lat="45.54245092068422" lon="10.443782533027912"><ele>226.0</ele><time>2026-03-28T15:12:34Z</time></trkpt><trkpt lat="45.54233994534794" lon="10.443694267856012"><ele>226.0</ele><time>2026-03-28T15:12:35Z</time></trkpt><trkpt lat="45.54222420691059" lon="10.443636134947498"><ele>224.0</ele><time>2026-03-28T15:12:36Z</time></trkpt><trkpt lat="45.542113228932394" lon="10.443592747062869"><ele>222.00000000000003</ele><time>2026-03-28T15:12:37Z</time></trkpt><trkpt lat="45.54202046429327" lon="10.44356130721729"><ele>220.00000000000003</ele><time>2026-03-28T15:12:38Z</time></trkpt><trkpt lat="45.54193571625817" lon="10.443537438998325"><ele>218.0</ele><time>2026-03-28T15:12:39Z</time></trkpt><trkpt lat="45.54187349224984" lon="10.443497736723682"><ele>216.0</ele><time>2026-03-28T15:12:40Z</time></trkpt><trkpt lat="45.54178961860418" lon="10.44346847239056"><ele>216.0</ele><time>2026-03-28T15:12:42Z</time></trkpt><trkpt lat="45.5417434480346" lon="10.443658784243135"><ele>216.0</ele><time>2026-03-28T15:12:43Z</time></trkpt><trkpt lat="45.54171226237476" lon="10.443786354463091"><ele>216.0</ele><time>2026-03-28T15:12:44Z</time></trkpt><trkpt lat="45.54167809574993" lon="10.443944672843848"><ele>216.0</ele><time>2026-03-28T15:12:45Z</time></trkpt><trkpt lat="45.54163741137715" lon="10.444124197650153"><ele>217.75</ele><time>2026-03-28T15:12:46Z</time></trkpt><trkpt lat="45.54158870999336" lon="10.444304287711144"><ele>219.5</ele><time>2026-03-28T15:12:47Z</time></trkpt><trkpt lat="45.54153342983273" lon="10.44450781298165"><ele>221.25</ele><time>2026-03-28T15:12:48Z</time></trkpt><trkpt lat="45.54148648612315" lon="10.444670962432525"><ele>223.0</ele><time>2026-03-28T15:12:49Z</time></trkpt><trkpt lat="45.541448770599466" lon="10.444818918435299"><ele>223.33333333333331</ele><time>2026-03-28T15:12:50Z</time></trkpt><trkpt lat="45.54140911528731" lon="10.44494998650844"><ele>223.66666666666666</ele><time>2026-03-28T15:12:51Z</time></trkpt><trkpt lat="45.54137050698762" lon="10.445078097991582"><ele>224.0</ele><time>2026-03-28T15:12:52Z</time></trkpt><trkpt lat="45.54133935033121" lon="10.445201776016319"><ele>224.33333333333331</ele><time>2026-03-28T15:12:53Z</time></trkpt><trkpt lat="45.54131163676358" lon="10.445308164498217"><ele>224.66666666666666</ele><time>2026-03-28T15:12:54Z</time></trkpt><trkpt lat="45.54128244825123" lon="10.445410846485629"><ele>225.0</ele><time>2026-03-28T15:12:55Z</time></trkpt><trkpt lat="45.54125493425913" lon="10.445504980975947"><ele>224.8</ele><time>2026-03-28T15:12:56Z</time></trkpt><trkpt lat="45.54122411741382" lon="10.44559995380181"><ele>224.6</ele><time>2026-03-28T15:12:57Z</time></trkpt><trkpt lat="45.541175635395305" lon="10.445681490087052"><ele>224.39999999999998</ele><time>2026-03-28T15:12:58Z</time></trkpt><trkpt lat="45.541131965844684" lon="10.44575952831421"><ele>224.2</ele><time>2026-03-28T15:12:59Z</time></trkpt><trkpt lat="45.540921031989676" lon="10.445754518194127"><ele>224.0</ele><time>2026-03-28T15:13:01Z</time></trkpt><trkpt lat="45.540795923566996" lon="10.445719511615302"><ele>224.0</ele><time>2026-03-28T15:13:02Z</time></trkpt><trkpt lat="45.5406558845492" lon="10.445666246893571"><ele>224.0</ele><time>2026-03-28T15:13:03Z</time></trkpt><trkpt lat="45.540505449200225" lon="10.445620473074401"><ele>224.0</ele><time>2026-03-28T15:13:04Z</time></trkpt><trkpt lat="45.540350489485576" lon="10.445562963061843"><ele>223.33333333333334</ele><time>2026-03-28T15:13:05Z</time></trkpt><trkpt lat="45.5402027133914" lon="10.445510454276059"><ele>222.66666666666669</ele><time>2026-03-28T15:13:06Z</time></trkpt><trkpt lat="45.54005950362248" lon="10.44545728598391"><ele>222.0</ele><time>2026-03-28T15:13:07Z</time></trkpt><trkpt lat="45.539913901294646" lon="10.445401618103931"><ele>221.75</ele><time>2026-03-28T15:13:08Z</time></trkpt><trkpt lat="45.53976739492787" lon="10.44535880508911"><ele>221.5</ele><time>2026-03-28T15:13:09Z</time></trkpt><trkpt lat="45.5396279229029" lon="10.445308340487449"><ele>221.25</ele><time>2026-03-28T15:13:10Z</time></trkpt><trkpt lat="45.53949685157876" lon="10.4452654486824"><ele>221.0</ele><time>2026-03-28T15:13:11Z</time></trkpt><trkpt lat="45.53937256343838" lon="10.445219179751886"><ele>220.66666666666669</ele><time>2026-03-28T15:13:12Z</time></trkpt><trkpt lat="45.53926704170159" lon="10.445175468148108"><ele>220.33333333333334</ele><time>2026-03-28T15:13:13Z</time></trkpt><trkpt lat="45.53917681835111" lon="10.44514884216263"><ele>220.0</ele><time>2026-03-28T15:13:14Z</time></trkpt><trkpt lat="45.53910018482221" lon="10.445120375156671"><ele>219.66666666666669</ele><time>2026-03-28T15:13:15Z</time></trkpt><trkpt lat="45.53902655619642" lon="10.445077793724016"><ele>219.33333333333334</ele><time>2026-03-28T15:13:16Z</time></trkpt><trkpt lat="45.53896768984148" lon="10.445017027490993"><ele>219.0</ele><time>2026-03-28T15:13:17Z</time></trkpt><trkpt lat="45.53891383794929" lon="10.44496882126662"><ele>219.0</ele><time>2026-03-28T15:13:18Z</time></trkpt><trkpt lat="45.538826743464455" lon="10.44495238067507"><ele>218.99999999999997</ele><time>2026-03-28T15:13:19Z</time></trkpt><trkpt lat="45.53872569892231" lon="10.444969535493962"><ele>218.99999999999997</ele><time>2026-03-28T15:13:20Z</time></trkpt><trkpt lat="45.53862279279025" lon="10.444942211547167"><ele>219.0</ele><time>2026-03-28T15:13:21Z</time></trkpt><trkpt lat="45.538502506356295" lon="10.444899179336353"><ele>219.0</ele><time>2026-03-28T15:13:22Z</time></trkpt><trkpt lat="45.538362918207035" lon="10.444849241630958"><ele>219.66666666666669</ele><time>2026-03-28T15:13:23Z</time></trkpt><trkpt lat="45.53819198527049" lon="10.44481179441864"><ele>220.33333333333334</ele><time>2026-03-28T15:13:24Z</time></trkpt><trkpt lat="45.53801062956969" lon="10.444745501199172"><ele>221.0</ele><time>2026-03-28T15:13:25Z</time></trkpt><trkpt lat="45.53783971393991" lon="10.444663876400194"><ele>220.0</ele><time>2026-03-28T15:13:26Z</time></trkpt><trkpt lat="45.53768048627401" lon="10.444606842589252"><ele>219.0</ele><time>2026-03-28T15:13:27Z</time></trkpt><trkpt lat="45.53753006334978" lon="10.44455250005862"><ele>218.0</ele><time>2026-03-28T15:13:28Z</time></trkpt><trkpt lat="45.537378637484494" lon="10.444521667713401"><ele>218.0</ele><time>2026-03-28T15:13:29Z</time></trkpt><trkpt lat="45.537226280707664" lon="10.444463828060295"><ele>218.0</ele><time>2026-03-28T15:13:30Z</time></trkpt><trkpt lat="45.53707843783124" lon="10.444387512144251"><ele>218.0</ele><time>2026-03-28T15:13:31Z</time></trkpt><trkpt lat="45.53691727719715" lon="10.44437314449008"><ele>217.33333333333334</ele><time>2026-03-28T15:13:32Z</time></trkpt><trkpt lat="45.536756777962594" lon="10.444354309926988"><ele>216.66666666666669</ele><time>2026-03-28T15:13:33Z</time></trkpt><trkpt lat="45.53658938672385" lon="10.444323106480821"><ele>216.0</ele><time>2026-03-28T15:13:34Z</time></trkpt><trkpt lat="45.536431408469525" lon="10.44435223670189"><ele>216.0</ele><time>2026-03-28T15:13:35Z</time></trkpt><trkpt lat="45.53628762792614" lon="10.444340788619394"><ele>216.0</ele><time>2026-03-28T15:13:36Z</time></trkpt><trkpt lat="45.536136560729766" lon="10.444355882379808"><ele>216.0</ele><time>2026-03-28T15:13:37Z</time></trkpt><trkpt lat="45.53597867237313" lon="10.444372065750246"><ele>214.66666666666669</ele><time>2026-03-28T15:13:38Z</time></trkpt><trkpt lat="45.53580393771829" lon="10.444413192203035"><ele>213.33333333333334</ele><time>2026-03-28T15:13:39Z</time></trkpt><trkpt lat="45.535630662963854" lon="10.444422327048994"><ele>212.0</ele><time>2026-03-28T15:13:40Z</time></trkpt><trkpt lat="45.53545982211499" lon="10.444422322233397"><ele>211.66666666666669</ele><time>2026-03-28T15:13:41Z</time></trkpt><trkpt lat="45.535283430435115" lon="10.444411375947535"><ele>211.33333333333331</ele><time>2026-03-28T15:13:42Z</time></trkpt><trkpt lat="45.535110087340904" lon="10.444372900264272"><ele>211.0</ele><time>2026-03-28T15:13:43Z</time></trkpt><trkpt lat="45.53493802334493" lon="10.444280540467089"><ele>211.0</ele><time>2026-03-28T15:13:44Z</time></trkpt><trkpt lat="45.534782595815685" lon="10.444189880724492"><ele>211.0</ele><time>2026-03-28T15:13:45Z</time></trkpt><trkpt lat="45.53464019017578" lon="10.444099534383897"><ele>211.0</ele><time>2026-03-28T15:13:46Z</time></trkpt><trkpt lat="45.53450459593517" lon="10.444041974032599"><ele>211.0</ele><time>2026-03-28T15:13:47Z</time></trkpt><trkpt lat="45.534377711787556" lon="10.443979909000623"><ele>211.0</ele><time>2026-03-28T15:13:48Z</time></trkpt><trkpt lat="45.534250584169925" lon="10.4439402718417"><ele>211.0</ele><time>2026-03-28T15:13:49Z</time></trkpt><trkpt lat="45.53411183106738" lon="10.443926764991428"><ele>211.0</ele><time>2026-03-28T15:13:50Z</time></trkpt><trkpt lat="45.53397567482603" lon="10.443921865634795"><ele>211.0</ele><time>2026-03-28T15:13:51Z</time></trkpt><trkpt lat="45.53383114320397" lon="10.443918590551617"><ele>211.0</ele><time>2026-03-28T15:13:52Z</time></trkpt><trkpt lat="45.53369100142599" lon="10.443912588521878"><ele>211.0</ele><time>2026-03-28T15:13:53Z</time></trkpt><trkpt lat="45.53354626781554" lon="10.443884863676859"><ele>211.0</ele><time>2026-03-28T15:13:54Z</time></trkpt><trkpt lat="45.53340489349245" lon="10.443903506801941"><ele>210.66666666666666</ele><time>2026-03-28T15:13:55Z</time></trkpt><trkpt lat="45.53326260668364" lon="10.443896635786588"><ele>210.33333333333331</ele><time>2026-03-28T15:13:56Z</time></trkpt><trkpt lat="45.53310716776292" lon="10.443891851067939"><ele>210.0</ele><time>2026-03-28T15:13:57Z</time></trkpt><trkpt lat="45.5329446817656" lon="10.443885169068277"><ele>210.33333333333331</ele><time>2026-03-28T15:13:58Z</time></trkpt><trkpt lat="45.53276220787871" lon="10.443855204319435"><ele>210.66666666666666</ele><time>2026-03-28T15:13:59Z</time></trkpt><trkpt lat="45.53256301350692" lon="10.4438364018128"><ele>211.0</ele><time>2026-03-28T15:14:00Z</time></trkpt><trkpt lat="45.53237232845985" lon="10.443804890901832"><ele>210.33333333333331</ele><time>2026-03-28T15:14:01Z</time></trkpt><trkpt lat="45.53216696755316" lon="10.443783649593769"><ele>209.66666666666669</ele><time>2026-03-28T15:14:02Z</time></trkpt><trkpt lat="45.53197383648133" lon="10.443735755906651"><ele>209.0</ele><time>2026-03-28T15:14:03Z</time></trkpt><trkpt lat="45.53179312950449" lon="10.443702812514951"><ele>209.0</ele><time>2026-03-28T15:14:04Z</time></trkpt><trkpt lat="45.531628071373014" lon="10.443670908409178"><ele>209.0</ele><time>2026-03-28T15:14:05Z</time></trkpt><trkpt lat="45.531458598925866" lon="10.443636885594161"><ele>209.0</ele><time>2026-03-28T15:14:06Z</time></trkpt><trkpt lat="45.53130638380798" lon="10.44360037304127"><ele>209.0</ele><time>2026-03-28T15:14:07Z</time></trkpt><trkpt lat="45.53116474733753" lon="10.443560051361839"><ele>209.0</ele><time>2026-03-28T15:14:08Z</time></trkpt><trkpt lat="45.53103938568623" lon="10.443524855022678"><ele>209.0</ele><time>2026-03-28T15:14:09Z</time></trkpt><trkpt lat="45.53092543970751" lon="10.443478285921117"><ele>209.0</ele><time>2026-03-28T15:14:10Z</time></trkpt><trkpt lat="45.53082841758977" lon="10.44340738268236"><ele>209.00000000000003</ele><time>2026-03-28T15:14:11Z</time></trkpt><trkpt lat="45.53075203843017" lon="10.443309392775351"><ele>209.0</ele><time>2026-03-28T15:14:12Z</time></trkpt><trkpt lat="45.53069639277143" lon="10.4432081872648"><ele>209.0</ele><time>2026-03-28T15:14:13Z</time></trkpt><trkpt lat="45.530630371675414" lon="10.4431237035178"><ele>209.0</ele><time>2026-03-28T15:14:14Z</time></trkpt><trkpt lat="45.53055667789416" lon="10.443098451770844"><ele>209.00000000000003</ele><time>2026-03-28T15:14:15Z</time></trkpt><trkpt lat="45.530480548268834" lon="10.443106069906888"><ele>209.0</ele><time>2026-03-28T15:14:16Z</time></trkpt><trkpt lat="45.53041784725053" lon="10.443170900658021"><ele>209.0</ele><time>2026-03-28T15:14:17Z</time></trkpt><trkpt lat="45.530378852632225" lon="10.443274895141574"><ele>209.0</ele><time>2026-03-28T15:14:18Z</time></trkpt><trkpt lat="45.53037985449229" lon="10.443398742893837"><ele>209.0</ele><time>2026-03-28T15:14:19Z</time></trkpt><trkpt lat="45.530412083389045" lon="10.443531293444556"><ele>209.0</ele><time>2026-03-28T15:14:20Z</time></trkpt><trkpt lat="45.53048582494985" lon="10.443659734689605"><ele>209.0</ele><time>2026-03-28T15:14:21Z</time></trkpt><trkpt lat="45.5305163923431" lon="10.443830761963232"><ele>209.33333333333334</ele><time>2026-03-28T15:14:22Z</time></trkpt><trkpt lat="45.530556630478955" lon="10.444012503593816"><ele>209.66666666666669</ele><time>2026-03-28T15:14:23Z</time></trkpt><trkpt lat="45.53050129549518" lon="10.44422819336792"><ele>210.0</ele><time>2026-03-28T15:14:24Z</time></trkpt><trkpt lat="45.53045664367223" lon="10.44444560107722"><ele>209.66666666666669</ele><time>2026-03-28T15:14:25Z</time></trkpt><trkpt lat="45.53040432153353" lon="10.444685706911304"><ele>209.33333333333334</ele><time>2026-03-28T15:14:26Z</time></trkpt><trkpt lat="45.530355016992495" lon="10.444937671383128"><ele>209.0</ele><time>2026-03-28T15:14:27Z</time></trkpt><trkpt lat="45.53030317053371" lon="10.445216049934098"><ele>210.33333333333334</ele><time>2026-03-28T15:14:28Z</time></trkpt><trkpt lat="45.530253640442155" lon="10.445494575792987"><ele>211.66666666666669</ele><time>2026-03-28T15:14:29Z</time></trkpt><trkpt lat="45.53020390376706" lon="10.445785173708423"><ele>213.0</ele><time>2026-03-28T15:14:30Z</time></trkpt><trkpt lat="45.530146433058825" lon="10.446075977909517"><ele>212.66666666666669</ele><time>2026-03-28T15:14:31Z</time></trkpt><trkpt lat="45.53007840514959" lon="10.446363385102334"><ele>212.33333333333334</ele><time>2026-03-28T15:14:32Z</time></trkpt><trkpt lat="45.53001520625366" lon="10.446611537427188"><ele>212.0</ele><time>2026-03-28T15:14:33Z</time></trkpt><trkpt lat="45.52995271433989" lon="10.446813279224827"><ele>212.0</ele><time>2026-03-28T15:14:34Z</time></trkpt><trkpt lat="45.52987765542049" lon="10.446992350157952"><ele>212.0</ele><time>2026-03-28T15:14:35Z</time></trkpt><trkpt lat="45.52977752655807" lon="10.447153492943398"><ele>212.0</ele><time>2026-03-28T15:14:36Z</time></trkpt><trkpt lat="45.52964672657363" lon="10.447291012699564"><ele>212.66666666666669</ele><time>2026-03-28T15:14:37Z</time></trkpt><trkpt lat="45.529489034415874" lon="10.447426461285298"><ele>213.33333333333331</ele><time>2026-03-28T15:14:38Z</time></trkpt><trkpt lat="45.52932290766446" lon="10.447549462887318"><ele>214.0</ele><time>2026-03-28T15:14:39Z</time></trkpt><trkpt lat="45.52915170244805" lon="10.447692305302732"><ele>214.0</ele><time>2026-03-28T15:14:40Z</time></trkpt><trkpt lat="45.52900490715501" lon="10.447831114945874"><ele>214.0</ele><time>2026-03-28T15:14:41Z</time></trkpt><trkpt lat="45.52887287417893" lon="10.447971240253432"><ele>214.0</ele><time>2026-03-28T15:14:42Z</time></trkpt><trkpt lat="45.52875631692977" lon="10.448123841351398"><ele>212.0</ele><time>2026-03-28T15:14:43Z</time></trkpt><trkpt lat="45.52866431618876" lon="10.448294185815671"><ele>210.0</ele><time>2026-03-28T15:14:44Z</time></trkpt><trkpt lat="45.528589204104684" lon="10.448487547531037"><ele>208.0</ele><time>2026-03-28T15:14:45Z</time></trkpt><trkpt lat="45.52853960486697" lon="10.44871035694186"><ele>208.0</ele><time>2026-03-28T15:14:46Z</time></trkpt><trkpt lat="45.528518934661996" lon="10.448951625403138"><ele>208.0</ele><time>2026-03-28T15:14:47Z</time></trkpt><trkpt lat="45.52852450160667" lon="10.449213296568454"><ele>208.0</ele><time>2026-03-28T15:14:48Z</time></trkpt><trkpt lat="45.52854413441574" lon="10.449482187778111"><ele>208.33333333333331</ele><time>2026-03-28T15:14:49Z</time></trkpt><trkpt lat="45.52855514170628" lon="10.449765358980137"><ele>208.66666666666669</ele><time>2026-03-28T15:14:50Z</time></trkpt><trkpt lat="45.52855171520969" lon="10.450019468959354"><ele>209.0</ele><time>2026-03-28T15:14:51Z</time></trkpt><trkpt lat="45.528520551607095" lon="10.450257371589466"><ele>208.66666666666669</ele><time>2026-03-28T15:14:52Z</time></trkpt><trkpt lat="45.528475385956" lon="10.450484008634074"><ele>208.33333333333331</ele><time>2026-03-28T15:14:53Z</time></trkpt><trkpt lat="45.52840669968611" lon="10.450697605830483"><ele>208.0</ele><time>2026-03-28T15:14:54Z</time></trkpt><trkpt lat="45.52830922778377" lon="10.450918165065918"><ele>208.0</ele><time>2026-03-28T15:14:55Z</time></trkpt><trkpt lat="45.52819005505637" lon="10.45111747533655"><ele>208.0</ele><time>2026-03-28T15:14:56Z</time></trkpt><trkpt lat="45.52805696466068" lon="10.45129698494376"><ele>208.0</ele><time>2026-03-28T15:14:57Z</time></trkpt><trkpt lat="45.52791111815154" lon="10.4514732525881"><ele>208.0</ele><time>2026-03-28T15:14:58Z</time></trkpt><trkpt lat="45.52777966770005" lon="10.451635859899806"><ele>208.0</ele><time>2026-03-28T15:14:59Z</time></trkpt><trkpt lat="45.527663213229125" lon="10.451788109675766"><ele>208.0</ele><time>2026-03-28T15:15:00Z</time></trkpt><trkpt lat="45.52755603832395" lon="10.451940850214319"><ele>208.0</ele><time>2026-03-28T15:15:01Z</time></trkpt><trkpt lat="45.52746890180383" lon="10.45210281880748"><ele>208.0</ele><time>2026-03-28T15:15:02Z</time></trkpt><trkpt lat="45.527391528208575" lon="10.452271839095925"><ele>208.0</ele><time>2026-03-28T15:15:03Z</time></trkpt><trkpt lat="45.527320618046495" lon="10.452438200458031"><ele>208.0</ele><time>2026-03-28T15:15:04Z</time></trkpt><trkpt lat="45.527254996656595" lon="10.452591354717"><ele>208.2</ele><time>2026-03-28T15:15:05Z</time></trkpt><trkpt lat="45.527192744426614" lon="10.452733600053204"><ele>208.4</ele><time>2026-03-28T15:15:06Z</time></trkpt><trkpt lat="45.5271327112149" lon="10.45286322271799"><ele>208.6</ele><time>2026-03-28T15:15:07Z</time></trkpt><trkpt lat="45.527083243931735" lon="10.452982702798016"><ele>208.79999999999998</ele><time>2026-03-28T15:15:08Z</time></trkpt><trkpt lat="45.52702345889008" lon="10.453069448461187"><ele>209.0</ele><time>2026-03-28T15:15:09Z</time></trkpt><trkpt lat="45.52697735471135" lon="10.453179637111772"><ele>208.50000000000003</ele><time>2026-03-28T15:15:10Z</time></trkpt><trkpt lat="45.52692334931836" lon="10.453290220409615"><ele>208.0</ele><time>2026-03-28T15:15:11Z</time></trkpt><trkpt lat="45.526870555700825" lon="10.45338311889878"><ele>207.5</ele><time>2026-03-28T15:15:12Z</time></trkpt><trkpt lat="45.52681774753347" lon="10.453467817673845"><ele>207.0</ele><time>2026-03-28T15:15:13Z</time></trkpt><trkpt lat="45.526768617990264" lon="10.453543450335616"><ele>206.50000000000003</ele><time>2026-03-28T15:15:14Z</time></trkpt><trkpt lat="45.5267165904149" lon="10.453620357628902"><ele>206.0</ele><time>2026-03-28T15:15:15Z</time></trkpt><trkpt lat="45.52665698124557" lon="10.453712987181243"><ele>206.5</ele><time>2026-03-28T15:15:16Z</time></trkpt><trkpt lat="45.52659406222628" lon="10.453812946997813"><ele>207.0</ele><time>2026-03-28T15:15:17Z</time></trkpt><trkpt lat="45.52652416101975" lon="10.45392597653425"><ele>207.5</ele><time>2026-03-28T15:15:18Z</time></trkpt><trkpt lat="45.52645074489766" lon="10.454062447481833"><ele>208.0</ele><time>2026-03-28T15:15:19Z</time></trkpt><trkpt lat="45.526391405775215" lon="10.454236184529336"><ele>208.0</ele><time>2026-03-28T15:15:20Z</time></trkpt><trkpt lat="45.52632371309653" lon="10.454436769480145"><ele>208.0</ele><time>2026-03-28T15:15:21Z</time></trkpt><trkpt lat="45.526253480608695" lon="10.454639564978763"><ele>208.0</ele><time>2026-03-28T15:15:22Z</time></trkpt><trkpt lat="45.5261710595451" lon="10.454830101065676"><ele>207.0</ele><time>2026-03-28T15:15:23Z</time></trkpt><trkpt lat="45.526113912203435" lon="10.455039330674497"><ele>206.0</ele><time>2026-03-28T15:15:24Z</time></trkpt><trkpt lat="45.526039870004" lon="10.455228111304692"><ele>205.0</ele><time>2026-03-28T15:15:25Z</time></trkpt><trkpt lat="45.525970656846965" lon="10.455415556185704"><ele>205.0</ele><time>2026-03-28T15:15:26Z</time></trkpt><trkpt lat="45.525902448192525" lon="10.455601139745688"><ele>205.0</ele><time>2026-03-28T15:15:27Z</time></trkpt><trkpt lat="45.52584335417274" lon="10.45577024655463"><ele>205.0</ele><time>2026-03-28T15:15:28Z</time></trkpt><trkpt lat="45.52579019722391" lon="10.455920453130148"><ele>205.0</ele><time>2026-03-28T15:15:29Z</time></trkpt><trkpt lat="45.52574082775698" lon="10.45605506896561"><ele>205.0</ele><time>2026-03-28T15:15:30Z</time></trkpt><trkpt lat="45.525694759061395" lon="10.456182882328529"><ele>205.0</ele><time>2026-03-28T15:15:31Z</time></trkpt><trkpt lat="45.525651840293555" lon="10.45629251383084"><ele>205.0</ele><time>2026-03-28T15:15:32Z</time></trkpt><trkpt lat="45.52561917847179" lon="10.456376613668896"><ele>205.0</ele><time>2026-03-28T15:15:33Z</time></trkpt><trkpt lat="45.52556421485758" lon="10.456514600348406"><ele>205.0</ele><time>2026-03-28T15:15:35Z</time></trkpt><trkpt lat="45.52551397343872" lon="10.456619547849053"><ele>205.0</ele><time>2026-03-28T15:15:36Z</time></trkpt><trkpt lat="45.525442413071126" lon="10.456757000373768"><ele>205.0</ele><time>2026-03-28T15:15:37Z</time></trkpt><trkpt lat="45.525361686054644" lon="10.45691257715221"><ele>205.0</ele><time>2026-03-28T15:15:38Z</time></trkpt><trkpt lat="45.525278391815625" lon="10.457073725087945"><ele>205.0</ele><time>2026-03-28T15:15:39Z</time></trkpt><trkpt lat="45.52518936865066" lon="10.4572564010789"><ele>204.5</ele><time>2026-03-28T15:15:40Z</time></trkpt><trkpt lat="45.52510516118952" lon="10.457430361996227"><ele>204.0</ele><time>2026-03-28T15:15:41Z</time></trkpt><trkpt lat="45.52501786433114" lon="10.457577729009879"><ele>203.5</ele><time>2026-03-28T15:15:42Z</time></trkpt><trkpt lat="45.52493998216184" lon="10.45774621298051"><ele>203.0</ele><time>2026-03-28T15:15:43Z</time></trkpt><trkpt lat="45.52484888330854" lon="10.457925354573455"><ele>203.0</ele><time>2026-03-28T15:15:44Z</time></trkpt><trkpt lat="45.52476035775905" lon="10.458105159984068"><ele>203.0</ele><time>2026-03-28T15:15:45Z</time></trkpt><trkpt lat="45.52467763195819" lon="10.458299025920194"><ele>203.0</ele><time>2026-03-28T15:15:46Z</time></trkpt><trkpt lat="45.52459836348403" lon="10.45849854019016"><ele>202.33333333333334</ele><time>2026-03-28T15:15:47Z</time></trkpt><trkpt lat="45.52452399962458" lon="10.458689527169376"><ele>201.66666666666669</ele><time>2026-03-28T15:15:48Z</time></trkpt><trkpt lat="45.52444678721052" lon="10.458876104424693"><ele>201.0</ele><time>2026-03-28T15:15:49Z</time></trkpt><trkpt lat="45.524372451539136" lon="10.459056676787213"><ele>201.0</ele><time>2026-03-28T15:15:50Z</time></trkpt><trkpt lat="45.52430034632438" lon="10.459233679099837"><ele>201.0</ele><time>2026-03-28T15:15:51Z</time></trkpt><trkpt lat="45.5242189998192" lon="10.459385768935485"><ele>201.0</ele><time>2026-03-28T15:15:52Z</time></trkpt><trkpt lat="45.52410430627813" lon="10.459513022462243"><ele>201.0</ele><time>2026-03-28T15:15:53Z</time></trkpt><trkpt lat="45.523994495205024" lon="10.45965042216506"><ele>201.0</ele><time>2026-03-28T15:15:54Z</time></trkpt><trkpt lat="45.5238504459201" lon="10.459716254221556"><ele>201.0</ele><time>2026-03-28T15:15:55Z</time></trkpt><trkpt lat="45.52371015238764" lon="10.459769512545297"><ele>201.0</ele><time>2026-03-28T15:15:56Z</time></trkpt><trkpt lat="45.52358335401053" lon="10.459824072381467"><ele>201.0</ele><time>2026-03-28T15:15:57Z</time></trkpt><trkpt lat="45.52347017135646" lon="10.459848642530687"><ele>200.8</ele><time>2026-03-28T15:15:58Z</time></trkpt><trkpt lat="45.5233606545137" lon="10.459877068190735"><ele>200.60000000000002</ele><time>2026-03-28T15:15:59Z</time></trkpt><trkpt lat="45.523257670484426" lon="10.459905078664313"><ele>200.4</ele><time>2026-03-28T15:16:00Z</time></trkpt><trkpt lat="45.52315890735551" lon="10.45993419327199"><ele>200.2</ele><time>2026-03-28T15:16:01Z</time></trkpt><trkpt lat="45.52305434968668" lon="10.459964568193197"><ele>200.0</ele><time>2026-03-28T15:16:02Z</time></trkpt><trkpt lat="45.52293975997612" lon="10.459987899373424"><ele>200.2</ele><time>2026-03-28T15:16:03Z</time></trkpt><trkpt lat="45.52281325133883" lon="10.459999257273084"><ele>200.4</ele><time>2026-03-28T15:16:04Z</time></trkpt><trkpt lat="45.52269544446002" lon="10.460000297718723"><ele>200.60000000000002</ele><time>2026-03-28T15:16:05Z</time></trkpt><trkpt lat="45.52260486533775" lon="10.460000890658938"><ele>200.8</ele><time>2026-03-28T15:16:06Z</time></trkpt><trkpt lat="45.522527555434785" lon="10.460017329713514"><ele>201.0</ele><time>2026-03-28T15:16:08Z</time></trkpt><trkpt lat="45.522443320288225" lon="10.460041390823223"><ele>201.0</ele><time>2026-03-28T15:16:10Z</time></trkpt><trkpt lat="45.52237560238066" lon="10.460054818210663"><ele>201.0</ele><time>2026-03-28T15:16:11Z</time></trkpt><trkpt lat="45.52230162524994" lon="10.460061382329524"><ele>201.0</ele><time>2026-03-28T15:16:12Z</time></trkpt><trkpt lat="45.522228938738564" lon="10.460066697095224"><ele>201.0</ele><time>2026-03-28T15:16:13Z</time></trkpt><trkpt lat="45.5221615478131" lon="10.460075798081544"><ele>201.0</ele><time>2026-03-28T15:16:14Z</time></trkpt><trkpt lat="45.5220882905061" lon="10.460103093603966"><ele>201.0</ele><time>2026-03-28T15:16:15Z</time></trkpt><trkpt lat="45.52200941686884" lon="10.460100042132533"><ele>201.0</ele><time>2026-03-28T15:16:16Z</time></trkpt><trkpt lat="45.521944850394" lon="10.460074908242522"><ele>201.0</ele><time>2026-03-28T15:16:17Z</time></trkpt><trkpt lat="45.52191466350512" lon="10.459870135286506"><ele>201.0</ele><time>2026-03-28T15:16:18Z</time></trkpt><trkpt lat="45.52184742766904" lon="10.459819779041887"><ele>201.0</ele><time>2026-03-28T15:16:19Z</time></trkpt><trkpt lat="45.521759875169444" lon="10.459772451800603"><ele>201.0</ele><time>2026-03-28T15:16:20Z</time></trkpt><trkpt lat="45.5216499191995" lon="10.459699239562433"><ele>201.0</ele><time>2026-03-28T15:16:21Z</time></trkpt><trkpt lat="45.52152924348218" lon="10.459612552811848"><ele>200.5</ele><time>2026-03-28T15:16:22Z</time></trkpt><trkpt lat="45.52141765792161" lon="10.459545400910557"><ele>200.0</ele><time>2026-03-28T15:16:23Z</time></trkpt><trkpt lat="45.52129610747609" lon="10.459469854522416"><ele>199.5</ele><time>2026-03-28T15:16:24Z</time></trkpt><trkpt lat="45.52116316660895" lon="10.459388676720245"><ele>199.0</ele><time>2026-03-28T15:16:25Z</time></trkpt><trkpt lat="45.521027851281815" lon="10.459306759550524"><ele>199.0</ele><time>2026-03-28T15:16:26Z</time></trkpt><trkpt lat="45.5209007643711" lon="10.459228260537019"><ele>199.0</ele><time>2026-03-28T15:16:27Z</time></trkpt><trkpt lat="45.520795971769225" lon="10.459133127858516"><ele>199.0</ele><time>2026-03-28T15:16:28Z</time></trkpt><trkpt lat="45.52069449529223" lon="10.459059634692263"><ele>199.0</ele><time>2026-03-28T15:16:29Z</time></trkpt><trkpt lat="45.520583704566846" lon="10.458994244953548"><ele>199.0</ele><time>2026-03-28T15:16:30Z</time></trkpt><trkpt lat="45.52047922109789" lon="10.458896436501806"><ele>199.0</ele><time>2026-03-28T15:16:31Z</time></trkpt><trkpt lat="45.520372672577054" lon="10.458800549912608"><ele>199.0</ele><time>2026-03-28T15:16:32Z</time></trkpt><trkpt lat="45.520267833494586" lon="10.458687772881808"><ele>199.0</ele><time>2026-03-28T15:16:33Z</time></trkpt><trkpt lat="45.52015294676076" lon="10.458581506908974"><ele>198.25</ele><time>2026-03-28T15:16:34Z</time></trkpt><trkpt lat="45.52002690423493" lon="10.458520721841985"><ele>197.5</ele><time>2026-03-28T15:16:35Z</time></trkpt><trkpt lat="45.51992160660427" lon="10.458426972675767"><ele>196.75</ele><time>2026-03-28T15:16:36Z</time></trkpt><trkpt lat="45.519810763311646" lon="10.458364621188005"><ele>196.0</ele><time>2026-03-28T15:16:37Z</time></trkpt><trkpt lat="45.519693364348925" lon="10.458341199757768"><ele>196.0</ele><time>2026-03-28T15:16:38Z</time></trkpt><trkpt lat="45.51959083780617" lon="10.458308844795045"><ele>196.0</ele><time>2026-03-28T15:16:39Z</time></trkpt><trkpt lat="45.51950091294421" lon="10.458263997212544"><ele>196.0</ele><time>2026-03-28T15:16:40Z</time></trkpt><trkpt lat="45.519396641247724" lon="10.45823453704196"><ele>196.0</ele><time>2026-03-28T15:16:41Z</time></trkpt><trkpt lat="45.519276907004425" lon="10.458264226579546"><ele>196.0</ele><time>2026-03-28T15:16:42Z</time></trkpt><trkpt lat="45.51917889227469" lon="10.458224419580928"><ele>195.60000000000002</ele><time>2026-03-28T15:16:43Z</time></trkpt><trkpt lat="45.5190937453303" lon="10.458199266383858"><ele>195.2</ele><time>2026-03-28T15:16:44Z</time></trkpt><trkpt lat="45.51901374723084" lon="10.45816781386657"><ele>194.8</ele><time>2026-03-28T15:16:45Z</time></trkpt><trkpt lat="45.51893566351258" lon="10.458138163112137"><ele>194.39999999999998</ele><time>2026-03-28T15:16:46Z</time></trkpt><trkpt lat="45.518834388400144" lon="10.458115250460388"><ele>194.0</ele><time>2026-03-28T15:16:47Z</time></trkpt><trkpt lat="45.518735218788734" lon="10.458060187998312"><ele>194.2</ele><time>2026-03-28T15:16:48Z</time></trkpt><trkpt lat="45.51862937437042" lon="10.458019013447274"><ele>194.39999999999998</ele><time>2026-03-28T15:16:49Z</time></trkpt><trkpt lat="45.518538803189536" lon="10.458007967802061"><ele>194.6</ele><time>2026-03-28T15:16:50Z</time></trkpt><trkpt lat="45.51843905214464" lon="10.457962392499626"><ele>194.8</ele><time>2026-03-28T15:16:51Z</time></trkpt><trkpt lat="45.51832004968921" lon="10.45792149131739"><ele>195.0</ele><time>2026-03-28T15:16:52Z</time></trkpt><trkpt lat="45.51819333087032" lon="10.457874231971815"><ele>194.5</ele><time>2026-03-28T15:16:53Z</time></trkpt><trkpt lat="45.51806064077829" lon="10.45782444635997"><ele>194.0</ele><time>2026-03-28T15:16:54Z</time></trkpt><trkpt lat="45.51793303182094" lon="10.457779323459203"><ele>193.5</ele><time>2026-03-28T15:16:55Z</time></trkpt><trkpt lat="45.51779577839317" lon="10.457731239872645"><ele>193.0</ele><time>2026-03-28T15:16:56Z</time></trkpt><trkpt lat="45.51766202322062" lon="10.457683961076956"><ele>192.5</ele><time>2026-03-28T15:16:57Z</time></trkpt><trkpt lat="45.51753717003881" lon="10.457643181736865"><ele>192.0</ele><time>2026-03-28T15:16:58Z</time></trkpt><trkpt lat="45.51741877304885" lon="10.457585553293438"><ele>191.5</ele><time>2026-03-28T15:16:59Z</time></trkpt><trkpt lat="45.517296342721544" lon="10.457531896769574"><ele>191.0</ele><time>2026-03-28T15:17:00Z</time></trkpt><trkpt lat="45.51716672428845" lon="10.457464916317695"><ele>191.0</ele><time>2026-03-28T15:17:01Z</time></trkpt><trkpt lat="45.51703979425258" lon="10.457390668053112"><ele>191.0</ele><time>2026-03-28T15:17:02Z</time></trkpt><trkpt lat="45.51691307895445" lon="10.457329347527894"><ele>191.0</ele><time>2026-03-28T15:17:03Z</time></trkpt><trkpt lat="45.516792994112656" lon="10.457269703924537"><ele>191.0</ele><time>2026-03-28T15:17:04Z</time></trkpt><trkpt lat="45.516683297456886" lon="10.4572194199906"><ele>191.0</ele><time>2026-03-28T15:17:05Z</time></trkpt><trkpt lat="45.51656034132365" lon="10.457175807484258"><ele>191.0</ele><time>2026-03-28T15:17:06Z</time></trkpt><trkpt lat="45.51644207390439" lon="10.45709592967811"><ele>191.0</ele><time>2026-03-28T15:17:07Z</time></trkpt><trkpt lat="45.516333389249134" lon="10.457044906872998"><ele>191.0</ele><time>2026-03-28T15:17:08Z</time></trkpt><trkpt lat="45.51621645694665" lon="10.457000940289038"><ele>190.5</ele><time>2026-03-28T15:17:09Z</time></trkpt><trkpt lat="45.51610376593373" lon="10.456935964377505"><ele>190.0</ele><time>2026-03-28T15:17:10Z</time></trkpt><trkpt lat="45.51599354867713" lon="10.456843514747177"><ele>189.5</ele><time>2026-03-28T15:17:11Z</time></trkpt><trkpt lat="45.515886963969734" lon="10.45676320906871"><ele>189.0</ele><time>2026-03-28T15:17:12Z</time></trkpt><trkpt lat="45.51578790013524" lon="10.456673284592245"><ele>189.0</ele><time>2026-03-28T15:17:13Z</time></trkpt><trkpt lat="45.51568698342235" lon="10.456579103370213"><ele>189.0</ele><time>2026-03-28T15:17:14Z</time></trkpt><trkpt lat="45.51557879835966" lon="10.45650809191156"><ele>189.0</ele><time>2026-03-28T15:17:15Z</time></trkpt><trkpt lat="45.515482951266755" lon="10.456417419694224"><ele>189.0</ele><time>2026-03-28T15:17:16Z</time></trkpt><trkpt lat="45.515402097761175" lon="10.456354267931326"><ele>189.0</ele><time>2026-03-28T15:17:17Z</time></trkpt><trkpt lat="45.51531488950396" lon="10.456317626607383"><ele>188.79999999999998</ele><time>2026-03-28T15:17:18Z</time></trkpt><trkpt lat="45.515222130076836" lon="10.456247350750349"><ele>188.6</ele><time>2026-03-28T15:17:19Z</time></trkpt><trkpt lat="45.51512758873662" lon="10.456216481662839"><ele>188.4</ele><time>2026-03-28T15:17:20Z</time></trkpt><trkpt lat="45.51502945213373" lon="10.456217760594706"><ele>188.2</ele><time>2026-03-28T15:17:21Z</time></trkpt><trkpt lat="45.51494182886728" lon="10.456215248729812"><ele>188.0</ele><time>2026-03-28T15:17:22Z</time></trkpt><trkpt lat="45.514869890960085" lon="10.45620660522403"><ele>188.0</ele><time>2026-03-28T15:17:23Z</time></trkpt><trkpt lat="45.514775922371655" lon="10.456150865474639"><ele>188.0</ele><time>2026-03-28T15:17:24Z</time></trkpt><trkpt lat="45.514706787000414" lon="10.456113393964538"><ele>188.0</ele><time>2026-03-28T15:17:25Z</time></trkpt><trkpt lat="45.51461833708244" lon="10.456063125137032"><ele>188.0</ele><time>2026-03-28T15:17:26Z</time></trkpt><trkpt lat="45.51452597094943" lon="10.456033539504956"><ele>188.0</ele><time>2026-03-28T15:17:27Z</time></trkpt><trkpt lat="45.51443620081614" lon="10.455982192066427"><ele>187.60000000000002</ele><time>2026-03-28T15:17:28Z</time></trkpt><trkpt lat="45.514335062655604" lon="10.455917670535788"><ele>187.20000000000002</ele><time>2026-03-28T15:17:29Z</time></trkpt><trkpt lat="45.51423295143025" lon="10.455870721012957"><ele>186.8</ele><time>2026-03-28T15:17:30Z</time></trkpt><trkpt lat="45.51412454064184" lon="10.45584515748491"><ele>186.4</ele><time>2026-03-28T15:17:31Z</time></trkpt><trkpt lat="45.51401424418858" lon="10.455793639133214"><ele>186.0</ele><time>2026-03-28T15:17:32Z</time></trkpt><trkpt lat="45.51390824087552" lon="10.455718177368256"><ele>186.0</ele><time>2026-03-28T15:17:33Z</time></trkpt><trkpt lat="45.513794446188996" lon="10.455676109925951"><ele>186.0</ele><time>2026-03-28T15:17:34Z</time></trkpt><trkpt lat="45.513686921079795" lon="10.455604862340273"><ele>186.0</ele><time>2026-03-28T15:17:35Z</time></trkpt><trkpt lat="45.51356579334167" lon="10.455533173964128"><ele>186.0</ele><time>2026-03-28T15:17:36Z</time></trkpt><trkpt lat="45.51345638542447" lon="10.455429233011872"><ele>185.8</ele><time>2026-03-28T15:17:37Z</time></trkpt><trkpt lat="45.51334614690818" lon="10.455345410464231"><ele>185.60000000000002</ele><time>2026-03-28T15:17:38Z</time></trkpt><trkpt lat="45.513247962535175" lon="10.455276519167281"><ele>185.4</ele><time>2026-03-28T15:17:39Z</time></trkpt><trkpt lat="45.51314475668503" lon="10.455239899355787"><ele>185.2</ele><time>2026-03-28T15:17:40Z</time></trkpt><trkpt lat="45.51304418904753" lon="10.455185239342871"><ele>185.0</ele><time>2026-03-28T15:17:41Z</time></trkpt><trkpt lat="45.51294963146807" lon="10.455145876783432"><ele>184.75</ele><time>2026-03-28T15:17:42Z</time></trkpt><trkpt lat="45.51284052927013" lon="10.45513449063591"><ele>184.5</ele><time>2026-03-28T15:17:43Z</time></trkpt><trkpt lat="45.51272317847073" lon="10.455119404241728"><ele>184.25</ele><time>2026-03-28T15:17:44Z</time></trkpt><trkpt lat="45.51259894222282" lon="10.45518553609875"><ele>184.0</ele><time>2026-03-28T15:17:45Z</time></trkpt><trkpt lat="45.51247444632851" lon="10.455257105647084"><ele>184.0</ele><time>2026-03-28T15:17:46Z</time></trkpt><trkpt lat="45.51237024601012" lon="10.455288100878859"><ele>184.0</ele><time>2026-03-28T15:17:47Z</time></trkpt><trkpt lat="45.51227590678285" lon="10.45530869869738"><ele>184.0</ele><time>2026-03-28T15:17:48Z</time></trkpt><trkpt lat="45.51218411457971" lon="10.45547586691322"><ele>184.0</ele><time>2026-03-28T15:17:49Z</time></trkpt><trkpt lat="45.51207517300204" lon="10.45553475217899"><ele>184.25</ele><time>2026-03-28T15:17:50Z</time></trkpt><trkpt lat="45.51199029427602" lon="10.455660863507129"><ele>184.5</ele><time>2026-03-28T15:17:51Z</time></trkpt><trkpt lat="45.5118757375923" lon="10.455766682531362"><ele>184.75</ele><time>2026-03-28T15:17:52Z</time></trkpt><trkpt lat="45.51176823760794" lon="10.45589283980051"><ele>185.0</ele><time>2026-03-28T15:17:53Z</time></trkpt><trkpt lat="45.511658183710225" lon="10.456027528769317"><ele>185.0</ele><time>2026-03-28T15:17:54Z</time></trkpt><trkpt lat="45.51155708613466" lon="10.45615845837601"><ele>185.0</ele><time>2026-03-28T15:17:55Z</time></trkpt><trkpt lat="45.51145661082742" lon="10.45628858208154"><ele>185.0</ele><time>2026-03-28T15:17:56Z</time></trkpt><trkpt lat="45.511372114508994" lon="10.45639744091213"><ele>185.0</ele><time>2026-03-28T15:17:57Z</time></trkpt><trkpt lat="45.51128902871687" lon="10.456502841981573"><ele>185.0</ele><time>2026-03-28T15:17:58Z</time></trkpt><trkpt lat="45.51120207911887" lon="10.45661126190714"><ele>185.0</ele><time>2026-03-28T15:17:59Z</time></trkpt><trkpt lat="45.51110925083037" lon="10.456726637983191"><ele>185.0</ele><time>2026-03-28T15:18:00Z</time></trkpt><trkpt lat="45.51102755772955" lon="10.45682817418772"><ele>185.0</ele><time>2026-03-28T15:18:01Z</time></trkpt><trkpt lat="45.51094712217185" lon="10.45692814739183"><ele>185.0</ele><time>2026-03-28T15:18:02Z</time></trkpt><trkpt lat="45.51087357838806" lon="10.457019554799674"><ele>185.0</ele><time>2026-03-28T15:18:03Z</time></trkpt><trkpt lat="45.51080361475188" lon="10.457106512463964"><ele>185.0</ele><time>2026-03-28T15:18:04Z</time></trkpt><trkpt lat="45.51072586761494" lon="10.457202309176619"><ele>185.0</ele><time>2026-03-28T15:18:05Z</time></trkpt><trkpt lat="45.51065750894156" lon="10.457285003713512"><ele>185.0</ele><time>2026-03-28T15:18:06Z</time></trkpt><trkpt lat="45.510576232638584" lon="10.457385100196023"><ele>185.0</ele><time>2026-03-28T15:18:07Z</time></trkpt><trkpt lat="45.510474142945654" lon="10.457520655614864"><ele>185.0</ele><time>2026-03-28T15:18:08Z</time></trkpt><trkpt lat="45.510378150185026" lon="10.457692948171522"><ele>185.0</ele><time>2026-03-28T15:18:09Z</time></trkpt><trkpt lat="45.510266563270946" lon="10.457855463068585"><ele>184.66666666666666</ele><time>2026-03-28T15:18:10Z</time></trkpt><trkpt lat="45.51015380450468" lon="10.458039516609839"><ele>184.33333333333334</ele><time>2026-03-28T15:18:11Z</time></trkpt><trkpt lat="45.510028442497585" lon="10.45825279225779"><ele>184.0</ele><time>2026-03-28T15:18:12Z</time></trkpt><trkpt lat="45.509906487164976" lon="10.458478160818622"><ele>184.0</ele><time>2026-03-28T15:18:13Z</time></trkpt><trkpt lat="45.50976489506817" lon="10.458666013494977"><ele>184.0</ele><time>2026-03-28T15:18:14Z</time></trkpt><trkpt lat="45.50962440306394" lon="10.458891607426"><ele>184.0</ele><time>2026-03-28T15:18:15Z</time></trkpt><trkpt lat="45.50948636183238" lon="10.459141927262735"><ele>184.0</ele><time>2026-03-28T15:18:16Z</time></trkpt><trkpt lat="45.50935390898471" lon="10.459396414714993"><ele>184.0</ele><time>2026-03-28T15:18:17Z</time></trkpt><trkpt lat="45.509232540513786" lon="10.459646089650882"><ele>184.0</ele><time>2026-03-28T15:18:18Z</time></trkpt><trkpt lat="45.50913521653942" lon="10.459886675033879"><ele>184.0</ele><time>2026-03-28T15:18:19Z</time></trkpt><trkpt lat="45.50902440276397" lon="10.460103183914068"><ele>184.0</ele><time>2026-03-28T15:18:20Z</time></trkpt><trkpt lat="45.50892557478864" lon="10.460290482434647"><ele>184.0</ele><time>2026-03-28T15:18:21Z</time></trkpt><trkpt lat="45.508832611725595" lon="10.460467374697227"><ele>184.0</ele><time>2026-03-28T15:18:22Z</time></trkpt><trkpt lat="45.50872667370629" lon="10.46062195190544"><ele>184.0</ele><time>2026-03-28T15:18:23Z</time></trkpt><trkpt lat="45.508631522239625" lon="10.460778873134139"><ele>184.0</ele><time>2026-03-28T15:18:24Z</time></trkpt><trkpt lat="45.508549195965195" lon="10.460942049627565"><ele>184.0</ele><time>2026-03-28T15:18:25Z</time></trkpt><trkpt lat="45.50845153120837" lon="10.461079680885968"><ele>184.0</ele><time>2026-03-28T15:18:26Z</time></trkpt><trkpt lat="45.508348807577256" lon="10.461191199434943"><ele>184.0</ele><time>2026-03-28T15:18:27Z</time></trkpt><trkpt lat="45.508269461554434" lon="10.461307432430011"><ele>184.0</ele><time>2026-03-28T15:18:28Z</time></trkpt><trkpt lat="45.50820582131287" lon="10.461429029862204"><ele>184.0</ele><time>2026-03-28T15:18:29Z</time></trkpt><trkpt lat="45.508157908094944" lon="10.461586045077693"><ele>184.66666666666669</ele><time>2026-03-28T15:18:30Z</time></trkpt><trkpt lat="45.50815810042106" lon="10.461785837182298"><ele>185.33333333333334</ele><time>2026-03-28T15:18:31Z</time></trkpt><trkpt lat="45.50818592124655" lon="10.46199266802457"><ele>186.0</ele><time>2026-03-28T15:18:32Z</time></trkpt><trkpt lat="45.50820832668259" lon="10.462234127669381"><ele>186.66666666666666</ele><time>2026-03-28T15:18:33Z</time></trkpt><trkpt lat="45.50823909316123" lon="10.462495094986696"><ele>187.33333333333331</ele><time>2026-03-28T15:18:34Z</time></trkpt><trkpt lat="45.50824964383453" lon="10.46273679971989"><ele>188.0</ele><time>2026-03-28T15:18:35Z</time></trkpt><trkpt lat="45.50827095993372" lon="10.46293939293976"><ele>188.0</ele><time>2026-03-28T15:18:36Z</time></trkpt><trkpt lat="45.5082885638703" lon="10.4631067048372"><ele>188.0</ele><time>2026-03-28T15:18:37Z</time></trkpt><trkpt lat="45.50830253327698" lon="10.463239473225697"><ele>188.0</ele><time>2026-03-28T15:18:38Z</time></trkpt><trkpt lat="45.5083132151488" lon="10.463346529147655"><ele>188.0</ele><time>2026-03-28T15:18:39Z</time></trkpt><trkpt lat="45.508327595945595" lon="10.463508036528907"><ele>188.0</ele><time>2026-03-28T15:18:41Z</time></trkpt><trkpt lat="45.50834673189056" lon="10.463599727663885"><ele>188.0</ele><time>2026-03-28T15:18:43Z</time></trkpt><trkpt lat="45.508282393897844" lon="10.463604805343204"><ele>188.0</ele><time>2026-03-28T15:18:45Z</time></trkpt><trkpt lat="45.50821224633097" lon="10.463468406977118"><ele>188.0</ele><time>2026-03-28T15:18:48Z</time></trkpt><trkpt lat="45.508206221725565" lon="10.463328830909346"><ele>188.0</ele><time>2026-03-28T15:18:50Z</time></trkpt><trkpt lat="45.50814772404394" lon="10.463271353478468"><ele>188.0</ele><time>2026-03-28T15:18:52Z</time></trkpt><trkpt lat="45.50804229877096" lon="10.463268913536359"><ele>188.0</ele><time>2026-03-28T15:18:54Z</time></trkpt><trkpt lat="45.50797704199642" lon="10.463282574516693"><ele>188.0</ele><time>2026-03-28T15:18:55Z</time></trkpt><trkpt lat="45.50791094329793" lon="10.463299052911003"><ele>188.0</ele><time>2026-03-28T15:18:56Z</time></trkpt><trkpt lat="45.50779792045255" lon="10.463331255015165"><ele>188.0</ele><time>2026-03-28T15:18:58Z</time></trkpt><trkpt lat="45.50770436774662" lon="10.46335905106679"><ele>188.0</ele><time>2026-03-28T15:19:00Z</time></trkpt><trkpt lat="45.507622999936395" lon="10.46335972475018"><ele>188.0</ele><time>2026-03-28T15:19:02Z</time></trkpt><trkpt lat="45.50753241428899" lon="10.463332234503573"><ele>182.0</ele><time>2026-03-28T15:19:04Z</time></trkpt><trkpt lat="45.50747091901418" lon="10.46330164200447"><ele>182.0</ele><time>2026-03-28T15:19:06Z</time></trkpt></trkseg></trk></gpx>